     2              OBSERVATION DATA    GPS                 RINEX VERSION / TYPE
srx-v1.5-(11/13/93) SEISMO 31-JAN-1994                      PGM / RUN BY / DATE
                                                            COMMENT
sig: 9 8 7 6 5 4 1 0                                        COMMENT
sig: 9 8 7 6 5 4 1 0                                        COMMENT
sig: 9 8 7 6 5 4 1 0                                        COMMENT
Original Marker Name: LNCH                                  COMMENT
Campaign Name: jpl 1993-1997                                COMMENT
4-Character Station Name: LNCH                              COMMENT
6-Character Antenna Code: DMRCHT                            COMMENT
Vertical Measurement Point: BPA                             COMMENT
Vertical Offset to Rinex Ref. Point: 0.0000                 COMMENT
Radial Measurement Point: RRP                               COMMENT
Radial Offset to Rinex Ref. Point: 0.0000                   COMMENT
Antenna Height from Field Measurement: 0.0814 m             COMMENT
Additional Antenna Identification Info.:                    COMMENT
Turborogue and Ashtech Choke Ring                           COMMENT
Original XYZ: -2517680.2832 -4635285.4653 3574312.0079      COMMENT
New XYZ position is based on association with SCEC monument COMMENT
E1E9I3I3+0011. Position of that monument is believed to be  COMMENT
valid to within 1 m horizontally; vertical accuracy         COMMENT
should be no worse than 3-times this value.                 COMMENT
                                                            COMMENT
Revised Rinex header created by UCSD GPS archive for        COMMENT
GSAC on 15-Apr-1999 (1999:105) 02:56:45 GMT                 COMMENT
For assistance contact dagnew@ucsd.edu or hjohnson@ucsd.edu COMMENT
                                                            COMMENT
LYNCH                                                       MARKER NAME
LNCH                                                        MARKER NUMBER
GWF JET PROPULSION LABORATORY                               OBSERVER / AGENCY
275 TURBOROGUE SNR-8000 93.09.02                            REC # / TYPE / VERS
363 DORNE-MARGOL. TYPE T                                    ANT # / TYPE
 -2517702.0000 -4635197.0000  3574286.0000                  APPROX POSITION XYZ
        0.0814        0.0000        0.0000                  ANTENNA: DELTA H/E/N
     1     1     0                                          WAVELENGTH FACT L1/2
     4    L1    L2    P1    P2                              # / TYPES OF OBSERV
    30                                                      INTERVAL
  1994     1    25     1     6   30.000000                  TIME OF FIRST OBS
  1994     1    25    23    59   30.000000                  TIME OF LAST OBS
    26                                                      # OF SATELLITES
          01   483   483   483   483                        PRN / # OF OBS
          02   628   628   628   628                        PRN / # OF OBS
          03   657   657   657   657                        PRN / # OF OBS
          04   493   493   493   493                        PRN / # OF OBS
          05   621   621   621   621                        PRN / # OF OBS
          07   573   573   573   573                        PRN / # OF OBS
          09   693   693   693   693                        PRN / # OF OBS
          12   683   683   683   683                        PRN / # OF OBS
          13   594   594   594   594                        PRN / # OF OBS
          14   558   558   558   558                        PRN / # OF OBS
          15   656   656   656   656                        PRN / # OF OBS
          16   571   571   571   571                        PRN / # OF OBS
          17   721   721   721   721                        PRN / # OF OBS
          18   536   536   536   536                        PRN / # OF OBS
          19   627   627   627   627                        PRN / # OF OBS
          20   628   628   628   628                        PRN / # OF OBS
          21   752   752   752   752                        PRN / # OF OBS
          22   665   665   665   665                        PRN / # OF OBS
          23   694   694   694   694                        PRN / # OF OBS
          24   203   203   203   203                        PRN / # OF OBS
          25   508   508   508   508                        PRN / # OF OBS
          26   638   638   638   638                        PRN / # OF OBS
          27   550   550   550   550                        PRN / # OF OBS
          28   697   697   697   697                        PRN / # OF OBS
          29   690   690   690   690                        PRN / # OF OBS
                                                            END OF HEADER
 94 01 25 01 06 30.0000000  0  5 02 07 19 27 31
  -4797152.03408  -3738036.20808  21179866.98308  21179869.82108
   -580705.90807   -452496.67107  22583840.35207  22583843.30407
  -5755723.98408  -4484970.41108  21294802.31508  21294804.77208
 -14578687.99408 -11360007.30508  20213759.58608  20213761.31908
   1084909.61807    845393.08608  23510952.35407  23510955.47908
 94 01 25 01 07 00.0000000  0  7 02 07 16 19 26 27 31
  -4823831.93908  -3758825.72008  21174790.04508  21174792.79808
   -676579.95207   -527203.58507  22565596.28307  22565598.86607
        -0.25317        -0.27716  24336287.42217  24336292.17516
  -5713660.35508  -4452193.56808  21302806.90008  21302809.36508
         0.49617         0.42817  24407503.15417  24407506.24117
 -14583085.78609 -11363434.15808  20212922.62409  20212924.42408
   1174301.84108    915049.32407  23527963.70908  23527965.14707
 94 01 25 01 07 30.0000000  0  7 02 07 16 19 26 27 31
  -4850350.64708  -3779489.61208  21169743.69008  21169746.27208
   -772293.82406   -601785.65407  22547382.70806  22547385.15507
     46089.05406     35913.47206  24345057.53606  24345061.98106
  -5671378.90308  -4419246.96908  21310852.77908  21310855.24008
    -90140.83907    -70239.54907  24390349.80807  24390352.94707
 -14587213.81508 -11366650.78609  20212136.90308  20212138.91809
   1263933.04308    984891.78007  23545020.34208  23545020.98007
 94 01 25 01 08 00.0000000  0  5 02 19 26 27 31
  -4876706.89308  -3800026.91708  21164728.30508  21164730.79308
  -5628907.89608  -4386152.66908  21318934.71208  21318937.23108
   -180096.63207   -140334.96807  24373231.42707  24373234.72407
 -14591078.88608 -11369662.51009  20211401.27808  20211403.56709
   1353782.18108   1054904.05307  23562118.31008  23562118.42507
 94 01 25 01 08 30.0000000  0  5 02 19 26 27 31
  -4902927.81908  -3820458.77208  21159738.55008  21159741.10608
  -5586304.56108  -4352955.26208  21327041.80008  21327044.25508
   -269941.72607   -210344.12007  24356134.49907  24356137.69307
 -14594713.56408 -11372494.71209  20210709.58908  20210711.88209
   1443796.89707   1125045.35707  23579247.62507  23579248.39907
 94 01 25 01 09 00.0000000  0  5 02 19 26 27 31
  -4928821.90108  -3840635.93908  21154810.92008  21154813.62208
  -5543376.42008  -4319504.76108  21335210.71908  21335213.00108
   -359510.65807   -280138.07307  24339090.42207  24339093.22107
 -14597932.10008 -11375002.65309  20210097.10308  20210099.36509
   1534160.36607   1195458.44708  23596442.85407  23596444.82608
 94 01 25 01 09 30.0000000  0  5 02 19 26 27 31
  -4954314.52908  -3860500.28408  21149959.79808  21149962.57708
  -5500034.90808  -4285732.14208  21343458.33308  21343460.51308
   -448731.76007   -349660.99307  24322112.62907  24322115.18307
 -14600659.73508 -11377128.07809  20209577.99608  20209580.39809
   1624973.52307   1266221.97108  23613723.14307  23613726.45208
 94 01 25 01 10 00.0000000  0  4 02 19 26 27
  -4979457.38008  -3880092.07608  21145175.27508  21145178.11908
  -5456318.96808  -4251667.76308  21351777.23808  21351779.53908
   -537686.27707   -418976.18107  24305185.01407  24305187.56807
 -14602959.75308 -11378920.29809  20209140.35008  20209142.81909
 94 01 25 01 10 30.0000000  0  4 02 19 26 27
  -5004360.04209  -3899496.71008  21140436.42909  21140439.32608
  -5412301.74408  -4217368.61608  21360153.43308  21360155.74308
   -626454.10007   -488145.87707  24288292.91207  24288295.11107
 -14604946.01008 -11380468.01309  20208762.53508  20208764.91409
 94 01 25 01 11 00.0000000  0  5 02 19 26 27 31
  -5029048.57409  -3918734.49108  21135738.27409  21135741.22408
  -5367986.79708  -4182837.47708  21368586.28708  21368588.48208
   -715014.18007   -557153.69007  24271440.73107  24271442.85407
 -14606639.85909 -11381787.88009  20208440.34809  20208442.52809
         0.15317         0.03518  23665986.27417  23665990.02218
 94 01 25 01 11 30.0000000  0  5 02 19 26 27 31
  -5053497.24409  -3937785.36908  21131085.98609  21131088.86408
  -5323356.72908  -4148060.79808  21377079.10808  21377081.24208
   -803311.94508   -625957.09507  24254638.67208  24254640.35407
 -14608003.67909 -11382850.58609  20208180.76909  20208182.85809
     92215.47007     71856.15508  23683534.47907  23683537.86008
 94 01 25 01 12 00.0000000  0  5 02 19 26 27 31
  -5077751.97009  -3956685.12408  21126470.45909  21126473.29408
  -5278465.04808  -4113080.26608  21385621.59108  21385623.83608
   -891372.88608   -694575.93707  24237880.90408  24237883.07107
 -14609061.90209 -11383675.16609  20207979.40909  20207981.37709
    184706.76907    143927.32008  23701135.58907  23701138.46608
 94 01 25 01 12 30.0000000  0  5 02 19 26 27 31
  -5101846.65408  -3975460.16908  21121885.20608  21121888.16108
  -5233365.19208  -4077937.51108  21394203.85408  21394206.21708
   -979208.46208   -763019.19507  24221166.26608  24221168.65007
 -14609826.63509 -11384271.04809  20207833.91009  20207835.82509
    277418.43207    216170.18208  23718777.96707  23718780.62408
 94 01 25 01 13 00.0000000  0  6 02 15 19 26 27 31
  -5125715.25308  -3994059.03408  21117343.13008  21117346.19408
        -0.21716        -0.06616  24798827.85416  24798838.48216
  -5188018.87608  -4042602.71108  21402832.80208  21402835.26808
  -1066780.62008   -831257.19907  24204501.63508  24204504.22107
 -14610231.87709 -11384586.80209  20207756.75809  20207758.65709
    370382.31407    288609.58108  23736468.13507  23736470.95808
 94 01 25 01 13 30.0000000  0  6 02 15 19 26 27 31
  -5149344.26108  -4012471.21008  21112846.65208  21112849.66608
    -62707.72706    -48862.91106  24786894.98506  24786893.43606
  -5142421.34608  -4007072.15108  21411509.54708  21411512.22408
  -1154098.63307   -899297.19807  24187885.33007  24187888.62507
 -14610274.84209 -11384620.26109  20207748.61109  20207750.38409
    463604.46607    361250.21907  23754207.19107  23754210.68807
 94 01 25 01 14 00.0000000  0  5 02 19 26 27 31
  -5172723.99208  -4030689.14508  21108397.65508  21108400.48108
  -5096548.77208  -3971327.27308  21420238.77508  21420241.43108
  -1241149.33707   -967128.85107  24171320.05907  24171322.29707
 -14609950.22309 -11384367.29008  20207810.22909  20207811.99208
    557106.58107    434109.00307  23771999.43207  23772003.45407
 94 01 25 01 14 30.0000000  0  6 02 07 19 26 27 31
  -5195851.76109  -4048710.75408  21103996.66209  21103999.32708
        -0.17217        -0.17118  22297198.67417  22297202.58518
  -5050390.00508  -3935359.39008  21429022.81308  21429025.29408
  -1327916.83007  -1034739.75906  24154808.24507  24154809.13006
 -14609252.11408 -11383823.29408  20207942.97808  20207944.79908
    650905.04207    507198.69507  23789848.57207  23789852.43407
 94 01 25 01 15 00.0000000  0  6 02 07 19 26 27 31
  -5218724.48409  -4066533.62908  21099644.18409  21099646.61708
    -91959.96607    -71657.09008  22279698.87507  22279702.99208
  -5003923.93208  -3899152.05708  21437864.97308  21437867.35908
  -1414407.80507  -1102135.17906  24138349.50407  24138349.90806
 -14608180.62308 -11382988.35208  20208146.88108  20208148.66708
    745020.93007    580535.76507  23807758.35907  23807761.93007
 94 01 25 01 15 30.0000000  0  6 02 07 19 26 27 31
  -5241345.57309  -4084160.43508  21095339.51009  21095341.83408
   -183639.22707   -143095.39808  22262251.96407  22262256.81008
  -4957144.55608  -3862700.58808  21446766.72208  21446769.13208
  -1500604.92907  -1169301.65007  24121946.28307  24121947.67107
 -14606732.01908 -11381859.55408  20208422.43108  20208424.48308
    839458.71307    654123.65207  23825729.96707  23825732.92307
 94 01 25 01 16 00.0000000  0  6 02 07 19 26 27 31
  -5263715.18309  -4101591.27308  21091082.75809  21091085.12508
   -274997.85806   -214283.82408  22244866.43906  22244871.52208
  -4910056.94708  -3826008.93308  21455727.31708  21455729.58408
  -1586501.49107  -1236233.95507  24105599.99807  24105603.16807
 -14604895.42608 -11380428.42008  20208771.76608  20208774.00308
    934215.39107    727960.01707  23843762.14407  23843765.09307
 94 01 25 01 16 30.0000000  0  6 02 07 19 26 27 31
  -5285848.11509  -4118837.68908  21086871.03909  21086873.37108
   -366050.89207   -285234.16107  22227540.41407  22227544.66007
  -4862694.16608  -3789102.86808  21464740.36208  21464742.42808
  -1672137.79007  -1302963.50908  24089303.13507  24089307.82008
 -14602697.63708 -11378715.83808  20209190.17408  20209192.16508
   1029257.93507    802019.12407  23861848.54507  23861851.45507
 94 01 25 01 17 00.0000000  0  6 02 07 19 26 27 31
  -5307726.23509  -4135885.54908  21082707.77509  21082710.04508
   -456810.21507   -355955.61607  22210269.82207  22210273.63907
  -4815052.25008  -3751979.29008  21473806.22208  21473808.29708
  -1757523.78207  -1369498.02808  24073054.85607  24073059.35508
 -14600149.70508 -11376730.42808  20209675.11608  20209676.85908
   1124578.77207    876295.09207  23879987.44507  23879990.56707
 94 01 25 01 17 30.0000000  0  6 02 07 19 26 27 31
  -5329336.32309  -4152724.55408  21078595.52709  21078597.87908
   -547257.46807   -426433.90707  22193058.21607  22193061.84007
  -4767124.28108  -3714632.82308  21482926.81908  21482928.74908
  -1842630.36107  -1435814.84508  24056860.51007  24056863.94608
 -14597236.98608 -11374460.76808  20210229.30408  20210231.16508
   1220184.90007    950793.37707  23898180.75407  23898183.92407
 94 01 25 01 18 00.0000000  0  6 02 07 19 26 27 31
  -5350681.30209  -4169356.97008  21074533.52809  21074536.09308
   -637392.13107   -496668.59907  22175906.14107  22175909.68807
  -4718910.80508  -3677063.87508  21492101.50108  21492103.46608
  -1927461.35907  -1501916.89708  24040718.43207  24040721.08708
 -14593959.58508 -11371906.92808  20210852.95708  20210855.00508
   1316074.67207   1025512.67907  23916427.69307  23916431.31007
 94 01 25 01 18 30.0000000  0  7 02 07 15 19 26 27 31
  -5371729.31909  -4185757.98308  21070528.11709  21070530.76208
   -727197.13507   -566646.41607  22158816.32207  22158820.23607
         0.03516        -0.27416  24669933.27616  24669936.15916
  -4670363.07708  -3639234.47908  21501339.76108  21501341.85408
  -2011966.52608  -1567765.02908  24024638.15508  24024639.92408
 -14590275.72908 -11369036.37608  20211554.05608  20211555.97208
   1412279.82807   1100477.73707  23934734.79807  23934738.65207
 94 01 25 01 19 00.0000000  0  7 02 07 15 19 26 27 31
  -5392532.04909  -4201967.87108  21066569.53009  21066571.91008
   -816705.92407   -636393.43207  22141783.58907  22141787.39407
    -60101.09106    -46832.18606  24658498.17406  24658499.45806
  -4621517.72208  -3601173.16508  21510634.71208  21510636.90208
  -2096163.57708  -1633373.03507  24008616.12208  24008617.14907
 -14586215.07809 -11365872.22208  20212326.94809  20212328.64308
   1508757.25507   1175654.96207  23953093.82307  23953097.53907
 94 01 25 01 19 30.0000000  0  6 02 07 19 26 27 31
  -5413134.62609  -4218021.80708  21062649.09809  21062651.26908
   -905922.76307   -705912.97107  22124806.13507  22124810.16707
  -4572402.04308  -3562901.21008  21519980.99408  21519983.30408
  -2180065.37708  -1698750.99007  23992650.04308  23992650.73207
 -14581784.58408 -11362419.87808  20213169.92908  20213171.65208
   1605485.56807   1251027.67107  23971500.75407  23971504.13407
 94 01 25 01 20 00.0000000  0  5 02 19 26 27 31
  -5433541.74608  -4233923.41708  21058765.69308  21058767.90608
  -4523013.90908  -3524416.93408  21529379.28008  21529381.55408
  -2263675.64507  -1763901.75307  23976738.88007  23976740.02907
 -14576985.52908 -11358680.31808  20214083.06208  20214084.90208
   1702454.51907   1326587.92707  23989953.46507  23989956.13407
 94 01 25 01 20 30.0000000  0  7 02 07 15 19 26 27 31
  -5453723.51309  -4249649.46608  21054925.30109  21054927.48308
        -0.89717        -0.32417  22091026.13817  22091029.76317
         0.13716         0.49917  24624452.49216  24624460.18517
  -4473322.22708  -3485696.17408  21538835.11208  21538837.44608
  -2346961.25908  -1828799.60307  23960889.36108  23960891.16007
 -14571784.87609 -11354627.86908  20215072.82309  20215074.60808
   1799696.86907   1402361.16306  24008458.00007  24008459.73306
 94 01 25 01 21 00.0000000  0  7 02 07 15 19 26 27 31
  -5473697.62709  -4265213.69008  21051124.49509  21051126.53908
    -88260.09407    -68773.66807  22074230.37207  22074234.45507
    -59144.74506    -46086.37307  24613195.96806  24613207.92507
  -4423352.93208  -3446759.07008  21548343.99208  21548346.35408
  -2429949.69407  -1893465.86708  23945096.97707  23945099.08308
 -14566207.08109 -11350281.51908  20216134.26509  20216136.05508
   1897193.33007   1478332.41306  24027011.05307  24027011.44806
 94 01 25 01 21 30.0000000  0  6 02 07 19 26 27 31
  -5493477.59709  -4280626.63708  21047360.51909  21047362.56308
   -176202.75807   -137300.38507  22057495.41607  22057499.28707
  -4373121.94208  -3407618.04908  21557902.70108  21557905.11308
  -2512673.21508  -1957925.71608  23929355.08608  23929357.81808
 -14560274.00709 -11345658.32309  20217263.09209  20217265.15709
   1994914.76707   1554478.96006  24045606.77107  24045606.38506
 94 01 25 01 22 00.0000000  0  6 02 07 19 26 27 31
  -5513025.14609  -4295858.47208  21043640.53009  21043642.73208
   -263809.15607   -205565.05407  22040824.65707  22040828.10707
  -4322592.37108  -3368244.36308  21567518.12308  21567520.58808
  -2595116.71408  -2022167.36408  23913667.05908  23913669.86908
 -14553975.02009 -11340749.99708  20218461.74709  20218463.75108
   2092883.33307   1630818.04906  24064249.46707  24064249.00806
 94 01 25 01 22 30.0000000  0  6 02 07 19 26 27 31
  -5532310.35309  -4310885.87508  21039970.48009  21039972.89808
   -351067.04607   -273558.15907  22024220.30707  22024223.11707
  -4271739.91608  -3328619.06508  21577195.03208  21577197.49308
  -2677258.93108  -2086174.26908  23898035.73808  23898039.08108
 -14547298.27909 -11335547.32708  20219732.47109  20219734.19908
   2191123.36807   1707368.67906  24082944.16107  24082944.57106
 94 01 25 01 23 00.0000000  0  6 02 07 19 26 27 31
  -5551362.02009  -4325731.29908  21036344.97509  21036347.36408
   -438018.63307   -341312.62007  22007674.49807  22007676.81007
  -4220582.91608  -3288756.45808  21586929.66008  21586932.07608
  -2759129.14208  -2149969.22108  23882456.59708  23882459.69408
 -14540275.85409 -11330075.30108  20221068.84109  20221070.47408
   2289600.90107   1784104.34806  24101684.01607  24101686.91006
 94 01 25 01 23 30.0000000  0  6 02 07 19 26 27 31
  -5570172.93209  -4340389.12108  21032765.36209  21032767.69808
   -524663.27807   -408827.86208  21991186.19907  21991189.11608
  -4169105.90208  -3248644.49408  21596725.49308  21596727.76008
  -2840706.06108  -2213535.61608  23866933.33108  23866936.27908
 -14532901.81009 -11324329.28208  20222471.94609  20222473.62808
   2388329.80807   1861035.97706  24120471.43607  24120474.61106
 94 01 25 01 24 00.0000000  0  6 02 07 19 26 27 31
  -5588764.17209  -4354875.77908  21029227.58609  21029229.81508
   -611033.12307   -476128.99308  21974750.36807  21974753.73108
  -4117335.44408  -3208303.88108  21606577.15408  21606579.35308
  -2921984.55908  -2276869.47208  23851466.74108  23851469.22808
 -14525189.85309 -11318319.95508  20223939.36609  20223941.21608
   2487300.25107   1938155.79406  24139304.57207  24139308.14606
 94 01 25 01 24 30.0000000  0  6 02 07 19 26 27 31
  -5607166.35109  -4369215.12308  21025725.85509  21025728.00108
   -697137.25107   -543223.07308  21958365.26207  21958368.64808
  -4065298.00208  -3167755.22508  21616479.44408  21616481.70708
  -3002960.07208  -2339967.21608  23836057.52708  23836059.58408
 -14517126.65308 -11312036.93408  20225473.72608  20225475.63508
   2586479.94907   2015438.69406  24158177.08107  24158181.10206
 94 01 25 01 25 00.0000000  0  5 02 07 19 26 27
  -5625350.55709  -4383384.61908  21022265.65509  21022267.77508
   -782918.05407   -610065.21308  21942041.43707  21942045.13908
  -4012969.28108  -3126979.60308  21626437.22308  21626439.49008
  -3083586.07008  -2402792.59908  23820714.53008  23820716.78308
 -14508657.07508 -11305437.25608  20227085.29108  20227087.33508
 94 01 25 01 25 30.0000000  0  6 02 07 19 26 27 31
  -5643331.18209  -4397395.47808  21018843.94609  21018846.16508
   -868379.97707   -676658.87208  21925778.61407  21925781.97908
  -3960382.03408  -3086002.53008  21636444.37608  21636446.50908
  -3163872.12108  -2465353.10508  23805436.66908  23805438.79708
 -14499785.71608 -11298524.49908  20228773.33408  20228775.43908
        -0.33117        -0.03116  24196056.96217  24196061.22316
 94 01 25 01 26 00.0000000  0  6 02 07 19 26 27 31
  -5661087.65509  -4411231.66608  21015464.80309  21015467.20408
   -953504.93507   -742989.98308  21909579.89507  21909583.09908
  -3907531.41508  -3044820.23008  21646501.60408  21646503.52608
  -3243818.19708  -2527648.70708  23790223.49008  23790225.73708
 -14490503.67008 -11291291.72508  20230539.53608  20230541.66908
     99852.94907     77807.73306  24215058.80907  24215063.80606
 94 01 25 01 26 30.0000000  0  6 02 07 19 26 27 31
  -5678587.66709  -4424868.00908  21012134.66709  21012137.11008
  -1038259.01707   -809032.06508  21893451.87007  21893454.94408
  -3854384.05008  -3003406.69508  21656615.13908  21656617.18608
  -3323419.52708  -2589675.67908  23775076.23608  23775078.48108
 -14480798.00208 -11283728.85809  20232386.78808  20232388.77609
    199941.12507    155798.51606  24234106.09807  24234111.52806
 94 01 25 01 27 00.0000000  0  6 02 07 19 26 27 31
  -5695835.57309  -4438307.90708  21008852.42509  21008854.87408
  -1122658.74707   -874798.05208  21877390.85707  21877394.02608
  -3800962.15508  -2961779.23808  21666781.08408  21666783.17008
  -3402717.59208  -2651466.34108  23759986.53008  23759988.57108
 -14470724.38108 -11275879.27309  20234303.79908  20234305.70109
    300256.63207    233966.50306  24253195.54907  24253198.28406
 94 01 25 01 27 30.0000000  0  6 02 07 19 26 27 31
  -5712815.55609  -4451539.03808  21005621.39309  21005623.71408
  -1206697.47807   -940282.68908  21861398.63707  21861401.95208
  -3747238.63808  -2919916.74608  21677004.35808  21677006.56608
  -3481700.21008  -2713011.19308  23744956.72008  23744958.70008
 -14460277.81208 -11267739.07809  20236291.69308  20236293.61609
    400805.75607    312316.49906  24272329.73107  24272330.51206
 94 01 25 01 28 00.0000000  0  6 02 07 19 26 27 31
  -5729536.66609  -4464568.45408  21002439.61209  21002441.87308
  -1290388.23007  -1005496.23508  21845472.95607  21845475.64308
  -3693214.37808  -2877819.91608  21687284.96608  21687287.12408
  -3560375.03308  -2774316.19308  23729985.45008  23729987.14308
 -14449469.28408 -11259316.84109  20238348.52508  20238350.47909
    501580.09707    390841.99606  24291507.14507  24291507.52206
 94 01 25 01 28 30.0000000  0  6 02 07 19 26 27 31
  -5746032.46508  -4477422.28508  20999300.44708  20999302.71808
  -1373740.96606  -1070446.37207  21829611.29606  21829614.01607
  -3638909.09708  -2835504.09108  21697618.93908  21697621.11608
  -3638744.26308  -2835383.06208  23715072.12808  23715074.00308
 -14438295.24008 -11250609.76609  20240474.86808  20240476.90509
    602565.40507    469531.86006  24310724.28407  24310725.04406
 94 01 25 01 29 00.0000000  0  6 02 07 19 26 27 31
  -5762308.19909  -4490104.67108  20996203.17809  20996205.41508
  -1456739.40207  -1135120.46008  21813817.08907  21813819.73308
  -3584326.36008  -2792972.11108  21708005.66908  21708007.94708
  -3716777.52908  -2896188.16608  23700222.66408  23700224.65608
 -14426730.59008 -11241598.35609  20242675.53708  20242677.64909
    703758.70408    548383.77706  24329981.31108  24329981.69106
 94 01 25 01 29 30.0000000  0  6 02 07 19 26 27 31
  -5778371.24909  -4502621.30808  20993146.43409  20993148.73408
  -1539394.94007  -1199527.31308  21798088.31507  21798090.86208
  -3529453.47708  -2750214.02608  21718447.64408  21718449.89808
  -3794441.95208  -2956705.86308  23685443.00208  23685445.45308
 -14414751.06708 -11232263.65809  20244955.01608  20244957.19409
    805161.59508    627399.02306  24349278.09708  24349278.59406
 94 01 25 01 30 00.0000000  0  6 02 07 19 26 27 31
  -5794233.86609  -4514981.76908  20990127.77009  20990130.14608
  -1621721.65907  -1263677.93808  21782421.94107  21782424.60408
  -3474312.14308  -2707246.75708  21728940.65408  21728942.86808
  -3871743.84808  -3016941.06308  23670732.31908  23670735.31008
 -14402371.37408 -11222617.14209  20247310.80208  20247312.71509
    906764.76807    706570.31306  24368612.68007  24368613.39906
 94 01 25 01 30 30.0000000  0  6 02 07 19 26 27 31
  -5809900.77808  -4527189.73008  20987146.28208  20987148.76808
  -1703708.22208  -1327563.54308  21766820.68008  21766823.28108
  -3418900.66808  -2664068.98808  21739485.08508  21739487.31308
  -3948676.31108  -3076888.40308  23656092.59108  23656095.58508
 -14389598.88809 -11212664.55609  20249741.48709  20249743.27709
   1008567.69207    785897.26206  24387984.79807  24387985.20306
 94 01 25 01 31 00.0000000  0  5 02 07 19 26 27
  -5825361.34108  -4539236.90008  20984204.25708  20984206.67208
  -1785357.29907  -1391186.13008  21751283.25607  21751286.27808
  -3363203.59708  -2620668.67908  21750083.79208  21750086.11508
  -4025238.66308  -3136547.33508  23641523.67908  23641526.36908
 -14376449.36708 -11202418.16408  20252243.82608  20252245.62308
 94 01 25 01 31 30.0000000  0  5 02 07 19 26 27
  -5840624.74708  -4551130.44108  20981299.83108  20981302.08408
  -1866687.14207  -1454559.98408  21735806.70207  21735809.98608
  -3307215.84908  -2577041.87508  21760737.92508  21760740.20808
  -4101462.71408  -3195942.65708  23627019.14108  23627021.48808
 -14362949.08108 -11191898.45708  20254812.83508  20254814.58408
 94 01 25 01 32 00.0000000  0  6 02 07 15 19 26 27
  -5855671.25108  -4562854.96808  20978436.53208  20978438.76208
  -1947664.40308  -1517659.08408  21720397.12708  21720400.27208
         0.38116         0.07016  24378724.65616  24378722.42116
  -3250925.80808  -2533179.51308  21771449.59708  21771451.67808
  -4177358.59308  -3255082.25508  23612576.63308  23612579.04608
 -14349073.45709 -11181086.28108  20257453.21409  20257454.92008
 94 01 25 01 32 30.0000000  0  6 02 07 15 19 26 27
  -5870495.63008  -4574406.41608  20975615.66508  20975617.65708
  -2028276.77508  -1580473.87208  21705057.52408  21705060.30908
    -52595.81906    -40983.84807  24368716.59506  24368714.12907
  -3194323.49008  -2489073.81508  21782220.83408  21782222.74308
  -4252932.06208  -3313970.62408  23598195.50208  23598197.92008
 -14334802.20909 -11169965.82608  20260168.97709  20260170.60308
 94 01 25 01 33 00.0000000  0  5 02 07 19 26 27
  -5885107.01109  -4585791.90108  20972835.17209  20972837.05808
  -2108551.10608  -1643025.25208  21689781.85808  21689784.80108
  -3137423.57108  -2444736.23008  21793048.52908  21793050.45508
  -4328208.86708  -3372627.82708  23583870.71008  23583873.25308
 -14320146.25809 -11158545.60208  20262957.86109  20262959.55808
 94 01 25 01 33 30.0000000  0  5 02 07 19 26 27
  -5899500.51709  -4597007.61308  20970096.15909  20970098.08708
  -2188482.46707  -1705309.38108  21674571.17407  21674574.33908
  -3080238.92008  -2400176.76908  21803930.32808  21803932.28708
  -4403186.83408  -3431052.18108  23569602.66808  23569605.32708
 -14305095.29308 -11146817.56508  20265821.93508  20265823.80408
 94 01 25 01 34 00.0000000  0  5 02 07 19 26 27
  -5913665.69008  -4608045.40408  20967400.49408  20967402.61908
  -2268042.23207  -1767303.96808  21659431.11207  21659434.40508
  -3022769.19308  -2355395.17008  21814866.42708  21814868.44308
  -4477835.45008  -3489219.90308  23555397.26108  23555399.83408
 -14289620.75308 -11134759.46408  20268766.62708  20268768.62208
 94 01 25 01 34 30.0000000  0  4 02 19 26 27
  -5927564.84208  -4618875.88108  20964755.42608  20964757.72208
  -2964972.13308  -2310358.48808  21825864.91008  21825866.98908
  -4552083.83308  -3547075.72608  23541268.16808  23541270.34508
 -14273693.86708 -11122348.86808  20271797.39608  20271799.34708
 94 01 25 01 35 00.0000000  0  6 02 07 15 19 26 27
  -5941265.38109  -4629551.62208  20962148.28609  20962150.77408
        -0.84917        -0.14518  21629376.36317  21629379.55218
        -0.82517        -0.59217  24319577.65717  24319578.05617
  -2906913.34308  -2265117.88708  21836913.15408  21836915.26708
  -4625980.59308  -3604657.58408  23527205.96208  23527207.79308
 -14257383.39208 -11109639.41508  20274901.27508  20274903.04708
 94 01 25 01 35 30.0000000  0  6 02 07 15 19 26 27
  -5954724.86809  -4640039.51608  20959586.90209  20959589.56708
    -78379.12407    -61074.08608  21614461.41907  21614464.44308
    -50616.82307    -39441.54307  24309944.64207  24309945.91807
  -2848547.39108  -2219637.92508  21848019.68608  21848021.90008
  -4699462.78308  -3661916.38208  23513222.63408  23513224.66208
 -14240629.01808 -11096584.05108  20278089.43708  20278091.23808
 94 01 25 01 36 00.0000000  0  5 02 07 19 26 27
  -5967915.53008  -4650317.93108  20957076.84508  20957079.52708
   -156300.06507   -121791.63608  21599633.26807  21599636.67608
  -2789831.91108  -2173885.60508  21859192.57808  21859195.09908
  -4772496.38508  -3718825.64208  23499324.91008  23499327.10308
 -14223388.95608 -11083150.22608  20281370.02208  20281371.92808
 94 01 25 01 36 30.0000000  0  5 02 07 19 26 27
  -5980935.54008  -4660463.35308  20954599.43308  20954601.90308
   -233874.81907   -182239.39908  21584871.29607  21584874.46008
  -2730862.13708  -2127935.10808  21870413.81508  21870416.54808
  -4845186.50008  -3775467.22308  23485492.78608  23485495.02108
 -14205779.26108 -11069428.34908  20284720.98708  20284722.86908
 94 01 25 01 37 00.0000000  0  4 02 19 26 27
  -5993774.93009  -4670468.07908  20952156.30509  20952158.67808
  -2671626.33708  -2081777.36308  21881685.97508  21881688.66208
  -4917528.75308  -3831837.78908  23471726.55208  23471728.98508
 -14187791.62108 -11055412.01708  20288143.91808  20288145.73008
 94 01 25 01 37 30.0000000  0  5 02 07 19 26 27
  -6006383.94409  -4680293.26708  20949756.91109  20949759.14908
        -0.18717        -0.39718  21555562.28017  21555565.15818
  -2612079.45608  -2035377.20308  21893017.40308  21893019.96608
  -4989472.11208  -3887897.51708  23458035.93808  23458038.42008
 -14169381.05608 -11041066.11108  20291647.35908  20291648.99908
 94 01 25 01 38 00.0000000  0  6 02 07 15 19 26 27
  -6018775.38209  -4689948.91508  20947398.94509  20947401.16208
    -76408.09907    -59538.98908  21541022.04107  21541024.92108
        -0.84317        -0.14916  24262828.28217  24262851.80216
  -2552241.40108  -1988750.15308  21904404.25908  21904406.72308
  -5061025.18008  -3943653.11608  23444419.37608  23444422.22708
 -14150578.54108 -11026414.79208  20295225.27308  20295226.92308
 94 01 25 01 38 30.0000000  0  6 02 07 15 19 26 27
  -6030912.03909  -4699406.03408  20945089.33409  20945091.46108
   -152394.64307   -118749.23408  21526562.43407  21526565.32608
    -48403.99807    -37716.94806  24253623.06107  24253625.87506
  -2492087.73308  -1941877.16908  21915851.07608  21915853.67108
  -5132138.52908  -3999066.07608  23430886.85908  23430890.04908
 -14131359.35408 -11011438.79508  20298882.51308  20298884.15108
 94 01 25 01 39 00.0000000  0  5 02 07 19 26 27
  -6042813.01508  -4708679.50808  20942824.54008  20942826.72508
   -227978.15507   -177645.42808  21512179.40107  21512182.47508
  -2431648.28908  -1894781.50908  21927352.43408  21927354.91708
  -5202830.86108  -4054150.97008  23417434.55708  23417438.12408
 -14111739.17508 -10996150.33208  20302615.99308  20302617.81708
 94 01 25 01 39 30.0000000  0  5 02 07 19 26 27
  -6054521.07408  -4717802.63808  20940596.52608  20940598.76908
   -303207.44707   -236265.57908  21497863.68307  21497866.74708
  -2370967.25708  -1847497.57408  21938899.83308  21938901.97508
  -5273157.42708  -4108950.84508  23404051.94108  23404055.19208
 -14091752.74808 -10980576.45708  20306419.18508  20306421.13808
 94 01 25 01 40 00.0000000  0  5 02 07 19 26 27
  -6066040.76508  -4726779.02708  20938404.38308  20938406.76608
   -378086.74108   -294613.05908  21483614.75008  21483617.57108
  -2310041.76108  -1800023.18708  21950493.83008  21950495.76508
  -5343136.48908  -4163479.99308  23390735.62108  23390738.62208
 -14071411.96908 -10964726.50808  20310289.96608  20310291.73208
 94 01 25 01 40 30.0000000  0  5 02 07 19 26 27
  -6077340.35008  -4735583.86109  20936254.07108  20936256.58909
   -452593.09108   -352669.90808  21469436.75608  21469439.47608
  -2248828.85908  -1752324.80808  21962142.28408  21962144.19208
  -5412759.83608  -4217731.91508  23377486.77608  23377489.50208
 -14050683.60208 -10948574.51408  20314234.50608  20314235.94708
 94 01 25 01 41 00.0000000  0  6 02 07 15 19 26 27
  -6088412.41808  -4744211.44109  20934147.04208  20934149.73709
   -526705.61208   -410419.91508  21455333.72908  21455336.34208
        -0.94517        -0.12716  24208542.36217  24208533.11216
  -2187303.98008  -1704383.38308  21973850.20808  21973852.01808
  -5482026.74808  -4271706.13508  23364305.79608  23364307.87208
 -14029544.70708 -10932102.67008  20318257.18408  20318258.35608
 94 01 25 01 41 30.0000000  0  6 02 07 15 19 26 27
  -6099289.25208  -4752686.87109  20932077.21108  20932080.09009
   -600446.34708   -467880.19408  21441301.36308  21441304.00108
    -46356.50207    -36121.17806  24199721.18307  24199711.86206
  -2125494.15308  -1656219.89408  21985612.41008  21985614.11508
  -5550954.34308  -4325415.92108  23351189.42408  23351190.72508
 -14008017.90408 -10915328.53708  20322353.60808  20322354.88408
 94 01 25 01 42 00.0000000  0  6 02 07 15 19 26 27
  -6109985.33308  -4761021.43309  20930041.59608  20930044.61509
   -673821.89008   -525055.88208  21427338.21008  21427341.06408
    -92374.79707    -71979.52306  24190965.45207  24190956.26506
  -2063401.49308  -1607835.98508  21997428.25708  21997430.10708
  -5619532.26808  -4378853.20108  23338139.56808  23338140.42808
 -13986109.57708 -10898257.08108  20326522.56708  20326523.96208
 94 01 25 01 42 30.0000000  0  6 02 07 15 19 26 27
  -6120484.28708  -4769202.43609  20928043.80808  20928046.73209
   -746793.47008   -581916.83708  21413452.18008  21413454.89908
   -138026.08907   -107551.92006  24182280.81707  24182270.70406
  -2001003.29708  -1559214.03508  22009302.14208  22009304.13808
  -5687713.27908  -4431981.22608  23325165.12708  23325166.03308
 -13963778.85308 -10880856.53208  20330772.00208  20330773.44608
 94 01 25 01 43 00.0000000  0  5 02 07 19 26 27
  -6130799.82808  -4777240.50709  20926080.91208  20926083.58009
   -819354.16108   -638457.59108  21399644.29408  21399646.97508
  -1938310.53808  -1510362.54108  22021232.00608  22021234.31508
  -5755477.00008  -4484784.07208  23312270.00908  23312271.41708
 -13941022.17308 -10863124.05808  20335102.51508  20335103.87208
 94 01 25 01 43 30.0000000  0  5 02 07 19 26 27
  -6140911.18108  -4785119.47809  20924156.87808  20924159.40909
   -891489.89808   -694667.21108  21385917.42108  21385920.15508
  -1875310.98608  -1461271.98208  22033220.34608  22033222.69708
  -5822810.66908  -4537251.80508  23299456.29708  23299458.48308
 -13917832.63308 -10845054.28608  20339515.17408  20339516.75408
 94 01 25 01 44 00.0000000  0  5 02 07 19 26 27
  -6150789.96808  -4792817.22708  20922277.05408  20922279.51308
   -963166.70708   -750519.22708  21372277.81408  21372280.47608
  -1811974.97008  -1411919.24408  22045272.86408  22045275.31308
  -5889696.31208  -4589370.44008  23286727.35508  23286730.85808
 -13894185.34508 -10826627.82708  20344015.12208  20344016.94608
 94 01 25 01 44 30.0000000  0  5 02 07 19 26 27
  -6160453.98808  -4800347.62508  20920437.95708  20920440.42608
  -1034404.88908   -806029.45308  21358721.66008  21358724.17208
  -1748341.45508  -1362334.69008  22057381.72808  22057384.36608
  -5956164.03407  -4641163.46208  23274077.90207  23274082.52508
 -13870108.56008 -10807866.68308  20348596.92108  20348598.83408
 94 01 25 01 45 00.0000000  0  5 02 07 19 26 27
  -6169943.86508  -4807742.33208  20918631.91508  20918634.57608
  -1105263.65908   -861244.04708  21345237.60208  21345240.12608
  -1684458.88008  -1312556.07008  22069538.33908  22069540.81308
  -6022264.03407  -4692669.99308  23261499.63107  23261504.05108
 -13845655.06208 -10788812.00208  20353250.25308  20353252.16908
 94 01 25 01 45 30.0000000  0  5 02 07 19 26 27
  -6179229.90208  -4814978.18608  20916864.55108  20916867.44608
  -1175719.45508   -916144.63108  21331830.34108  21331832.73008
  -1620300.47308  -1262562.50908  22081747.47208  22081749.77008
  -6087976.40908  -4743874.44308  23248995.17508  23248999.38708
 -13820804.44108 -10769447.86908  20357979.19408  20357980.99608
 94 01 25 01 46 00.0000000  0  6 02 07 15 19 26 27
  -6188299.55608  -4822045.43408  20915138.84608  20915141.54408
  -1245744.32408   -970709.43508  21318504.99708  21318507.21808
        -0.94917        -0.99216  24123565.08717  24123593.02516
  -1555843.69308  -1212336.44508  22094013.03308  22094015.37408
  -6153261.40308  -4794745.85208  23236572.66108  23236575.98908
 -13795526.71808 -10749750.93108  20362789.42908  20362791.13108
 94 01 25 01 46 30.0000000  0  5 02 07 19 26 27
  -6197162.29208  -4828951.46008  20913452.52508  20913454.99508
  -1315356.98908  -1024953.04808  21305258.19508  21305260.36708
  -1491090.58808  -1161879.48708  22106335.13108  22106337.42508
  -6218114.04108  -4845280.34508  23224232.30208  23224234.81608
 -13769822.31808 -10729721.52208  20367680.79608  20367682.64808
 94 01 25 01 47 00.0000000  0  5 02 07 19 26 27
  -6205841.34208  -4835714.33608  20911801.00808  20911803.40808
  -1384584.73808  -1078896.69908  21292084.49208  21292086.90608
  -1426064.62708  -1111209.90208  22118709.08908  22118711.39008
  -6282557.25108  -4895495.78808  23211969.46908  23211971.38908
 -13743711.18708 -10709375.16208  20372649.49908  20372651.41308
 94 01 25 01 47 30.0000000  0  5 02 07 19 26 27
  -6214335.96808  -4842333.52908  20910184.53608  20910186.94108
  -1453420.60708  -1132535.02908  21278985.28808  21278987.93808
  -1360770.63708  -1060331.48908  22131134.18108  22131136.37508
  -6346588.11008  -4945389.95008  23199784.95108  23199786.51408
 -13717197.22008 -10688714.93408  20377694.80208  20377696.81008
 94 01 25 01 48 00.0000000  0  6 02 07 15 19 26 27
  -6222653.01409  -4848814.33308  20908601.77709  20908604.16008
  -1521886.43108  -1185885.01408  21265956.45108  21265959.36308
        -0.57916        -0.21716  24091654.77816  24091665.05416
  -1295230.05608  -1009260.91208  22143606.26208  22143608.37808
  -6410214.63408  -4994969.03108  23187677.14708  23187678.65208
 -13690291.66108 -10667749.56108  20382814.70508  20382816.69808
 94 01 25 01 48 30.0000000  0  5 02 07 19 26 27
  -6230767.69708  -4855137.43908  20907057.60408  20907059.99108
  -1589972.23108  -1238938.86208  21252999.73508  21253002.96808
  -1229432.20408   -957989.86208  22156127.13708  22156129.27608
  -6473424.74408  -5044223.62408  23175648.73108  23175650.40508
 -13662986.68308 -10646472.94708  20388010.49008  20388012.61508
 94 01 25 01 49 00.0000000  0  5 02 07 19 26 27
  -6238676.74209  -4861300.32508  20905552.77209  20905555.05508
  -1657655.71408  -1291679.21608  21240119.86708  21240123.38108
  -1163373.09708   -906515.24808  22168697.83908  22168699.89308
  -6536214.73108  -5093150.85808  23163700.32608  23163702.09108
 -13635275.74808 -10624880.01608  20393283.85008  20393285.80408
 94 01 25 01 49 30.0000000  0  5 02 07 19 26 27
  -6246374.79009  -4867298.79008  20904087.89209  20904090.18208
  -1724914.86908  -1344088.92008  21227321.12708  21227324.31408
  -1097036.58208   -854824.46908  22181321.46208  22181323.28108
  -6598576.88808  -5141744.72208  23151833.03408  23151834.73508
 -13607150.27408 -10602964.06208  20398635.94008  20398637.87008
 94 01 25 01 50 00.0000000  0  5 02 07 19 26 27
  -6253859.16209  -4873130.75108  20902663.56309  20902665.93808
  -1791740.97808  -1396161.18408  21214604.63808  21214607.54508
  -1030410.18808   -802907.80008  22193999.97308  22194001.74008
  -6660505.74708  -5190000.95508  23140048.18008  23140049.98608
 -13578598.10808 -10580715.62108  20404069.28308  20404071.25308
 94 01 25 01 50 30.0000000  0  6 02 07 15 19 26 27
  -6261133.03009  -4878798.69008  20901279.26609  20901281.74208
  -1858112.06308  -1447878.88208  21201974.87608  21201977.65308
         0.34216        -0.11616  24053457.79416  24053484.10116
   -963480.72108   -750754.97308  22206736.18908  22206738.11508
  -6721994.61808  -5237914.34308  23128346.75908  23128348.93608
 -13549611.60508 -10558128.73608  20409585.23208  20409587.20708
 94 01 25 01 51 00.0000000  0  6 02 07 15 19 26 27
  -6268196.04809  -4884302.33109  20899935.19209  20899937.71509
  -1924012.05708  -1499229.49908  21189434.61408  21189437.32808
    -38868.94106    -30288.00006  24046057.74806  24046062.78206
   -896243.26508   -698362.14308  22219531.01008  22219533.01808
  -6783040.04108  -5285482.18908  23116730.04408  23116732.35708
 -13520188.95308 -10535201.99908  20415184.27908  20415186.07608
 94 01 25 01 51 30.0000000  0  5 02 07 19 26 27
  -6275038.39708  -4889634.01209  20898633.09908  20898635.67809
  -1989436.70508  -1550209.72308  21176984.67508  21176987.28508
   -828694.71708   -645726.90708  22232384.93908  22232386.91908
  -6843635.10408  -5332699.10808  23105198.79708  23105201.68108
 -13490334.13908 -10511938.51408  20420865.63108  20420867.27008
 94 01 25 01 52 00.0000000  0  5 02 07 19 26 27
  -6281727.92608  -4894846.59809  20897360.17008  20897362.65209
  -2054460.71508  -1600877.74308  21164610.83508  21164613.43708
   -760901.15108   -592900.72508  22245285.56708  22245287.82708
  -6903839.78308  -5379611.82408  23093742.15208  23093745.19008
 -13460111.01708 -10488388.01008  20426617.06108  20426618.66008
 94 01 25 01 52 30.0000000  0  5 02 07 19 26 27
  -6288233.68508  -4899916.03209  20896122.09308  20896124.59909
  -2119056.48608  -1651212.11308  21152318.64008  21152321.36808
   -692846.48108   -539871.14008  22258236.03008  22258238.39908
  -6963638.75608  -5426208.44608  23082362.71108  23082365.66808
 -13429489.45608 -10464527.06908  20432444.07208  20432445.76208
 94 01 25 01 53 00.0000000  0  5 02 07 19 26 27
  -6294537.58209  -4904828.14509  20894922.56209  20894925.07909
  -2183202.60208  -1701196.07908  21140111.97208  21140114.95008
   -624514.21008   -486625.22608  22271239.19508  22271241.48108
  -7023019.28508  -5472478.97708  23071063.29608  23071065.66808
 -13398451.77508 -10440341.85408  20438350.25008  20438352.01408
 94 01 25 01 53 30.0000000  0  6 02 07 15 19 26 27
  -6300624.44209  -4909571.14309  20893764.30109  20893766.69909
  -2246896.80408  -1750827.90708  21127991.43408  21127994.31508
         0.11117         0.50017  24010270.75817  24010275.88517
   -555888.61908   -433150.75308  22284298.08908  22284300.30008
  -7081961.86508  -5518408.23908  23059847.37108  23059849.16808
 -13366976.75708 -10415815.85608  20444339.69208  20444341.51808
 94 01 25 01 54 00.0000000  0  6 02 07 15 19 26 27
  -6306493.78909  -4914144.64909  20892647.32209  20892649.65509
  -2310146.95208  -1800113.73308  21115955.52508  21115958.00808
    -36326.26907    -28305.76806  24003357.65907  24003362.07606
   -486969.25408   -379447.35408  22297412.89508  22297415.22008
  -7140459.29308  -5563990.61808  23048715.98408  23048717.47408
 -13335057.28808 -10390943.53608  20450413.72208  20450415.49408
 94 01 25 01 54 30.0000000  0  6 02 07 15 19 26 27
  -6312140.05609  -4918544.32608  20891572.96109  20891575.27908
  -2372927.84208  -1849033.89108  21104009.03608  21104011.29208
    -72192.35507    -56253.34806  23996533.12807  23996536.49606
   -417737.01108   -325500.15008  22310587.21508  22310589.75208
  -7198483.76208  -5609204.45308  23037674.43908  23037675.97008
 -13302686.21808 -10365719.31608  20456573.64708  20456575.49508
 94 01 25 01 55 00.0000000  0  6 02 07 15 19 26 27
  -6317601.80608  -4922800.22708  20890533.65308  20890535.97708
  -2435265.39508  -1897608.59208  21092146.58208  21092148.92808
   -107614.89407    -83855.34306  23989792.75207  23989795.79406
   -348203.16908   -271317.93908  22323819.02508  22323821.69108
  -7256036.74408  -5654050.90608  23026722.42408  23026724.12408
 -13269886.84408 -10340161.35808  20462815.16308  20462817.09208
 94 01 25 01 55 30.0000000  0  6 02 07 15 19 26 27
  -6322890.85009  -4926921.55108  20889527.18209  20889529.50908
  -2497179.55208  -1945853.36108  21080364.70708  21080366.91608
   -142603.02807   -111118.79206  23983134.54807  23983136.23706
   -278381.06108   -216911.09608  22337105.80508  22337108.46908
  -7313120.81208  -5698531.98108  23015859.51608  23015861.48308
 -13236666.73808 -10314275.55208  20469136.72608  20469138.69008
 94 01 25 01 56 00.0000000  0  5 02 07 19 26 27
  -6328017.07908  -4930915.98508  20888551.62708  20888553.95108
  -2558664.16808  -1993763.41108  21068664.44308  21068666.70508
   -208285.57708   -162291.22908  22350444.56508  22350447.31608
  -7369753.32708  -5742661.19108  23005082.22308  23005084.62608
 -13203027.02008 -10288062.76408  20475538.15308  20475540.10508
 94 01 25 01 56 30.0000000  0  5 02 07 19 26 27
  -6332993.57709  -4934793.78508  20887604.73309  20887607.00108
  -2619714.94108  -2041335.43808  21057046.87408  21057049.04508
   -137936.99608   -107474.18508  22363831.53908  22363834.37308
  -7425956.81408  -5786456.11308  22994387.26208  22994389.29808
 -13168976.85308 -10261530.18608  20482017.80108  20482019.68208
 94 01 25 01 57 00.0000000  0  5 02 07 19 26 27
  -6337800.25609  -4938539.24208  20886690.16109  20886692.30808
  -2680342.75908  -2088577.86308  21045509.91308  21045511.78808
    -67349.02008    -52470.58308  22377264.14608  22377266.92808
  -7481740.18308  -5829923.65808  22983772.28908  22983774.10408
 -13134514.44408 -10234676.36709  20488575.82708  20488577.66609
 94 01 25 01 57 30.0000000  0  5 02 07 19 26 27
  -6342399.83408  -4942123.31908  20885814.90008  20885817.06308
  -2740521.17308  -2135470.10708  21034058.23908  21034060.22308
      3492.76908      2730.80308  22390744.84108  22390747.66208
  -7537091.49908  -5873054.52708  22973239.39808  22973241.31308
 -13099630.58208 -10207494.14009  20495213.95508  20495215.89609
 94 01 25 01 58 00.0000000  0  5 02 07 19 26 27
  -6346817.67308  -4945565.78808  20884974.10708  20884976.36808
  -2800267.22008  -2182025.45708  21022688.86908  21022690.85408
     74573.12808     58118.08008  22404270.97608  22404273.81208
  -7592028.23208  -5915862.35308  22962785.22608  22962787.07108
 -13064352.74908 -10180004.92509  20501927.01408  20501929.12609
 94 01 25 01 58 30.0000000  0  5 02 07 19 26 27
  -6350999.45908  -4948824.31208  20884178.19608  20884180.64408
  -2859531.47508  -2228205.37108  21011411.21008  21011413.30708
    145956.58308    113741.55508  22417854.77608  22417857.65208
  -7646473.50008  -5958287.22308  22952424.67308  22952426.37608
 -13028636.78508 -10152174.30609  20508723.61308  20508725.73209
 94 01 25 01 59 00.0000000  0  5 02 07 19 26 27
  -6354948.77508  -4951901.69008  20883426.54608  20883429.05908
  -2918332.66208  -2274024.45208  21000221.66308  21000223.85508
    217651.59908    169607.79908  22431497.75108  22431500.57208
  -7700422.80108  -6000325.64108  22942158.44208  22942159.97308
 -12992498.87608 -10124014.89409  20515600.34908  20515602.57409
 94 01 25 01 59 30.0000000  0  6 02 07 15 19 26 27
  -6358682.95809  -4954811.43508  20882715.99709  20882718.28808
  -2976660.66808  -2319474.81508  20989122.03708  20989124.31608
        -0.73217        -0.88916  23932852.02517  23932851.29616
    289661.08908    225719.09108  22445200.70608  22445203.66408
  -7753887.44608  -6041986.38108  22931984.23708  22931985.77308
 -12955937.82508 -10095525.75609  20522557.49508  20522559.95609
 94 01 25 02 00 00.0000000  0  6 02 07 15 19 26 27
  -6362207.97309  -4957558.19908  20882045.26309  20882047.40108
  -3034514.68508  -2364555.84608  20978112.70608  20978115.15808
    -30940.38907    -24109.54706  23926963.51007  23926965.98906
    361982.76508    282073.63308  22458963.04708  22458965.93808
  -7806861.69408  -6083265.01008  22921903.49308  22921904.95808
 -12918944.30008 -10066699.63209  20529597.11708  20529599.63309
 94 01 25 02 00 30.0000000  0  6 02 07 15 19 26 27
  -6365555.52109  -4960166.67908  20881408.24509  20881410.35408
  -3091924.28808  -2409290.57408  20967188.01508  20967190.50008
    -61439.85907    -47875.22406  23921159.80807  23921164.57806
    434570.58508    338635.56208  22472775.94308  22472778.90608
  -7859385.74908  -6124192.81508  22911908.47308  22911910.20208
 -12881551.22708 -10037562.17209  20536712.92608  20536715.25209
 94 01 25 02 01 00.0000000  0  6 02 07 15 19 26 27
  -6368735.29109  -4962644.41808  20880803.06009  20880805.25208
  -3148888.91508  -2453678.57308  20956347.92108  20956350.56208
    -91499.93107    -71298.57107  23915440.26707  23915446.86307
    507415.86008    395398.10208  22486638.10108  22486640.89808
  -7911474.66808  -6164781.55808  22901996.51608  22901998.48308
 -12843752.84908 -10008108.88909  20543905.75908  20543907.92209
 94 01 25 02 01 30.0000000  0  6 02 07 15 19 26 27
  -6371753.13509  -4964995.97608  20880228.67809  20880231.04808
  -3205394.79908  -2497709.09208  20945595.16408  20945597.99008
   -121112.32507    -94373.15707  23909805.69007  23909810.76407
    580513.43508    452357.24408  22500548.47708  22500551.20708
  -7963121.45108  -6205025.79108  22892168.53308  22892170.86308
 -12805523.64008  -9978319.89809  20551180.63108  20551182.68509
 94 01 25 02 02 00.0000000  0  6 02 07 15 19 26 27
  -6374605.33409  -4967218.46008  20879685.85509  20879688.33708
  -3261435.40808  -2541377.08208  20934931.01708  20934933.82408
   -150263.09307   -117088.05207  23904258.54407  23904261.87807
    653869.19608    509517.56508  22514507.75608  22514510.24808
  -8014298.84008  -6244904.26708  22882429.73208  22882432.31008
 -12766848.60208  -9948183.50608  20558540.15208  20558542.23908
 94 01 25 02 02 30.0000000  0  6 02 07 15 19 26 27
  -6377295.77309  -4969314.89508  20879174.03309  20879176.46908
  -3317017.11908  -2584687.47608  20924354.11308  20924356.86208
   -178952.47708   -139443.37907  23898799.01008  23898802.56607
    727482.92108    566878.89908  22528515.83108  22528518.40008
  -8065017.58008  -6284425.36908  22872778.26608  22872780.66008
 -12727741.49408  -9917710.43208  20565981.83208  20565983.99008
 94 01 25 02 03 00.0000000  0  6 02 07 15 19 26 27
  -6379817.47309  -4971279.84808  20878694.26909  20878696.61508
  -3372151.06808  -2627648.97708  20913862.49708  20913865.15108
   -207173.95608   -161434.14007  23893428.79608  23893432.03107
    801359.81108    624445.29908  22542574.23708  22542576.79708
  -8115277.46908  -6323588.92408  22863214.29808  22863216.29908
 -12688206.12708  -9886903.65208  20573505.14708  20573507.34508
 94 01 25 02 03 30.0000000  0  6 02 07 15 19 26 27
  -6382151.49109  -4973098.55108  20878250.17109  20878252.48008
  -3426826.68108  -2670253.33508  20903458.05608  20903460.67508
   -234918.21208   -183053.04507  23888149.17908  23888152.90307
    875513.42508    682227.32908  22556685.17408  22556687.82008
  -8165059.79208  -6362380.33508  22853741.31208  22853742.87008
 -12648243.42508  -9855763.89308  20581109.76608  20581111.94708
 94 01 25 02 04 00.0000000  0  6 02 07 15 19 26 27
  -6384280.41509  -4974757.44408  20877845.18409  20877847.33208
  -3481042.70108  -2712499.56908  20893141.24708  20893143.70808
   -262185.11108   -204299.97607  23882959.84308  23882964.36507
    949951.50608    740231.02408  22570850.46008  22570852.92408
  -8214360.81308  -6400796.68308  22844359.69208  22844360.94708
 -12607872.46108  -9824306.00908  20588792.12408  20588794.24808
 94 01 25 02 04 30.0000000  0  6 02 07 15 19 26 27
  -6386191.70609  -4976246.75608  20877481.62009  20877483.62908
  -3534795.98708  -2754385.22908  20882912.40508  20882914.84708
   -288969.33208   -225170.80507  23877862.70108  23877867.15207
   1024683.08408    798463.42908  22585071.42308  22585074.00008
  -8263173.97808  -6438832.87108  22835070.49408  22835072.07108
 -12567090.20508  -9792527.63608  20596552.90208  20596554.86008
 94 01 25 02 05 00.0000000  0  6 02 07 15 19 26 27
  -6387900.08809  -4977577.95508  20877156.55409  20877158.58508
  -3588085.13408  -2795909.22708  20872771.75408  20872774.32108
   -315277.17007   -245670.43307  23872856.25707  23872860.37707
   1099702.52208    856920.12608  22599347.25108  22599349.61408
  -8311496.89008  -6476487.05908  22825874.60408  22825876.65308
 -12525883.86408  -9760418.80008  20604394.25308  20604396.23808
 94 01 25 02 05 30.0000000  0  6 02 07 15 19 26 27
  -6389426.54909  -4978767.40309  20876866.04209  20876868.17509
  -3640901.70808  -2837064.98208  20862721.01408  20862723.63808
   -341112.85008   -265802.11507  23867939.94308  23867943.69907
   1175009.43108    915600.82608  22613677.72208  22613680.11908
  -8359326.96508  -6513757.23508  22816772.36108  22816774.99908
 -12484250.61008  -9727977.30808  20612316.87408  20612318.83408
 94 01 25 02 06 00.0000000  0  6 02 07 15 19 26 27
  -6390803.01809  -4979839.96609  20876603.83409  20876606.21209
  -3693257.16608  -2877861.41708  20852757.95508  20852760.56808
   -366485.93108   -285573.31207  23863111.86708  23863115.74507
   1250580.07508    974487.02108  22628058.31908  22628060.70508
  -8406684.31108  -6550659.06808  22807760.71208  22807763.14808
 -12442189.86408  -9695202.71008  20620320.76408  20620322.76608
 94 01 25 02 06 30.0000000  0  6 02 07 15 19 26 27
  -6392039.30509  -4980803.28909  20876368.35009  20876370.93309
  -3745150.18708  -2918297.51608  20842883.07108  20842885.58708
   -391393.06507   -304981.45107  23858372.38707  23858376.55907
   1326414.08108   1033578.44308  22642488.96508  22642491.32808
  -8453575.95408  -6587198.01408  22798837.69408  22798839.88608
 -12399698.44508  -9662092.51508  20628406.59908  20628408.62708
 94 01 25 02 07 00.0000000  0  6 02 07 15 19 26 27
  -6393127.57308  -4981651.27009  20876161.20208  20876163.74909
  -3796575.64508  -2958369.27808  20833097.26408  20833099.62208
   -415828.71207   -324022.23607  23853722.80707  23853726.60007
   1402505.62208   1092870.54408  22656968.76908  22656971.23308
  -8500011.33808  -6623381.41408  22790001.27208  22790003.61808
 -12356778.76608  -9628648.61008  20636574.02408  20636576.04708
 94 01 25 02 07 30.0000000  0  6 02 07 15 19 26 27
  -6394063.79209  -4982380.78209  20875983.23309  20875985.53809
  -3847545.82608  -2998086.28308  20823398.00308  20823400.25008
   -439795.40407   -342697.58107  23849161.75807  23849164.74307
   1478835.07808   1152348.02408  22671493.58408  22671496.25608
  -8545996.42008  -6659213.92808  22781250.32408  22781252.89908
 -12313443.29108  -9594880.71308  20644820.60208  20644822.47408
 94 01 25 02 08 00.0000000  0  6 02 07 15 19 26 27
  -6394812.69009  -4982964.33509  20875840.87909  20875843.07709
  -3898051.05308  -3037440.99208  20813787.29008  20813789.39508
   -463280.48208   -360997.60507  23844692.58608  23844695.22007
   1555404.97808   1212012.86608  22686064.29908  22686066.92408
  -8591519.41808  -6694686.37808  22772587.54508  22772590.10008
 -12269688.40709  -9560786.00008  20653146.93209  20653148.69408
 94 01 25 02 08 30.0000000  0  6 02 07 15 19 26 27
  -6395329.01309  -4983366.66009  20875742.60109  20875744.84709
  -3948069.06508  -3076416.05108  20804269.15108  20804271.24408
   -486259.54307   -378903.32607  23840319.47507  23840322.17107
   1632239.92808   1271884.23408  22700685.13708  22700687.86408
  -8636554.76408  -6729778.83308  22764017.75108  22764020.18408
 -12225499.85408  -9526353.36508  20661555.62608  20661557.45008
 94 01 25 02 09 00.0000000  0  6 02 07 15 19 26 27
  -6395611.38009  -4983586.68509  20875688.95109  20875691.09409
  -3997597.02808  -3115009.25308  20794844.09808  20794846.35708
   -508729.54807   -396412.39007  23836043.78007  23836046.42907
   1709332.15208   1331956.08008  22715355.18108  22715358.05908
  -8681081.96108  -6764475.32708  22755544.46608  22755546.68108
 -12180867.15208  -9491574.63608  20670048.75308  20670050.64708
 94 01 25 02 09 30.0000000  0  6 02 07 15 19 26 27
  -6395679.97009  -4983640.13009  20875675.81109  20875678.07709
  -4046640.13708  -3153224.63708  20785511.41108  20785513.70008
   -530696.02207   -413529.13507  23831863.42207  23831866.58907
   1786684.37108   1392230.51808  22730074.87008  22730077.83708
  -8725081.96208  -6798761.01308  22747171.67908  22747173.88408
 -12135797.31508  -9456455.28608  20678625.27008  20678627.11608
 94 01 25 02 10 00.0000000  0  6 02 07 15 19 26 27
  -6395539.36809  -4983530.56309  20875702.56809  20875705.00509
  -4095185.63908  -3191052.28108  20776273.42208  20776275.76208
   -552148.42707   -430245.29207  23827780.81607  23827783.98707
   1864313.08908   1452720.42508  22744847.17208  22744850.13008
  -8768543.68108  -6832627.27008  22738901.02808  22738903.46508
 -12090290.71908  -9420995.60508  20687284.84308  20687286.67008
 94 01 25 02 10 30.0000000  0  6 02 07 15 19 26 27
  -6395220.63309  -4983282.19209  20875763.29709  20875765.84009
  -4143233.61108  -3228492.23308  20767130.20308  20767132.57008
   -573086.22107   -446560.41807  23823796.08807  23823799.90807
   1942211.38208   1513420.38208  22759670.92408  22759673.94908
  -8811465.45008  -6866072.79208  22730733.47208  22730735.73608
 -12044346.98408  -9385195.29908  20696027.57808  20696029.31608
 94 01 25 02 11 00.0000000  0  5 02 07 19 26 27
  -6394739.55108  -4982907.30409  20875854.76908  20875857.42509
  -4190797.43308  -3265554.92508  20758079.17808  20758081.50108
   2020375.95708   1574327.84308  22774545.16608  22774548.33208
  -8853842.70908  -6899094.01308  22722669.18708  22722671.51208
 -11997973.22008  -9349059.89808  20704852.32008  20704854.01008
 94 01 25 02 11 30.0000000  0  6 02 07 15 19 26 27
  -6394111.82709  -4982418.15909  20875974.16409  20875976.75309
  -4237893.08408  -3302252.81708  20749117.16108  20749119.37208
         0.37917        -0.02517  23816114.72417  23816119.01717
   2098793.49308   1635432.40308  22789467.52908  22789470.70708
  -8895710.20208  -6931718.01908  22714702.11308  22714704.40408
 -11951194.76008  -9312609.15908  20713753.98208  20713755.68608
 94 01 25 02 12 00.0000000  0  6 02 07 15 19 26 27
  -6393320.39108  -4981801.44409  20876124.48408  20876127.05509
  -4284516.27408  -3338582.56108  20740245.17208  20740247.36608
    -19445.00607    -15152.24207  23812414.51607  23812418.74907
   2177462.59708   1696732.98708  22804438.22208  22804441.03008
  -8937085.32108  -6963958.35708  22706828.53108  22706830.89908
 -11904013.82508  -9275844.79508  20722732.20908  20722734.01308
 94 01 25 02 12 30.0000000  0  6 02 07 15 19 26 27
  -6392355.51708  -4981049.58408  20876307.94408  20876310.34208
  -4330676.98708  -3374551.93108  20731461.14908  20731463.40908
    -38405.04507    -29926.28907  23808806.69907  23808810.75707
   2256383.30908   1758229.62808  22819456.31408  22819458.84808
  -8977975.34308  -6995820.68708  22699047.29208  22699050.07008
 -11856432.47808  -9238768.43208  20731786.61208  20731788.44608
 94 01 25 02 13 00.0000000  0  6 02 07 15 19 26 27
  -6391197.96208  -4980147.58708  20876528.35608  20876530.67108
  -4376368.72708  -3410155.87108  20722766.32308  20722768.59708
    -56876.16608    -44319.35107  23805291.61108  23805295.33807
   2335573.56408   1819936.31408  22834525.62608  22834528.05608
  -9018383.01008  -7027307.17108  22691357.89108  22691360.58808
 -11808448.89608  -9201378.63508  20740917.56508  20740919.30508
 94 01 25 02 13 30.0000000  0  6 02 07 15 19 26 27
  -6389864.55109  -4979108.56008  20876782.15009  20876784.49308
  -4421591.94608  -3445394.72708  20714160.50008  20714162.74808
    -74864.15808    -58335.93107  23801868.54708  23801872.34107
   2415025.03208   1881846.53208  22849644.75108  22849647.02108
  -9058332.80508  -7058436.87508  22683755.64308  22683758.22508
 -11760071.34008  -9163681.84108  20750123.55808  20750125.47008
 94 01 25 02 14 00.0000000  0  6 02 07 15 19 26 27
  -6388345.15209  -4977924.60708  20877071.34209  20877073.63308
  -4466332.66108  -3480257.59808  20705646.62608  20705648.87508
    -92352.54508    -71963.23307  23798540.94908  23798544.36707
   2494746.90608   1943967.46908  22864815.25508  22864817.52708
  -9097803.07308  -7089192.92408  22676244.61108  22676246.91908
 -11711277.79508  -9125660.90008  20759408.75908  20759410.71308
 94 01 25 02 14 30.0000000  0  6 02 07 15 19 26 27
  -6386665.37609  -4976615.68808  20877391.05909  20877393.33008
  -4510597.91008  -3514749.98108  20697223.24908  20697225.45208
   -109347.77108    -85206.26207  23795307.29808  23795310.00907
   2574726.25708   2006289.03508  22880034.56108  22880036.90108
  -9136800.04708  -7119580.17608  22668823.36408  22668825.81608
 -11662063.36508  -9087312.00108  20768774.04308  20768775.97608
 94 01 25 02 15 00.0000000  0  6 02 07 15 19 26 27
  -6384846.25409  -4975198.19009  20877737.30309  20877739.60109
  -4554393.43008  -3548876.33908  20688889.25608  20688891.36808
   -125849.27908    -98064.57107  23792167.27708  23792169.42407
   2654940.26808   2068793.42808  22895298.75608  22895301.07808
  -9175330.50108  -7149603.89708  22661491.26908  22661493.46208
 -11612424.92908  -9048632.70608  20778219.95408  20778221.85408
 94 01 25 02 15 30.0000000  0  6 02 07 15 19 26 27
  -6382868.77909  -4973657.29709  20878113.48309  20878115.89809
  -4597699.84308  -3582621.57808  20680648.24408  20680650.27908
   -141837.87508   -110523.16907  23789124.83208  23789126.81507
   2735389.16408   2131480.86108  22910607.66508  22910609.65408
  -9213370.81508  -7179245.70308  22654252.88608  22654254.80708
 -11562343.30608  -9009608.07308  20787750.16908  20787752.05908
 94 01 25 02 16 00.0000000  0  6 02 07 15 19 26 27
  -6380727.72208  -4971988.93408  20878520.59808  20878523.29108
  -4640511.92308  -3615981.62108  20672501.37808  20672503.51308
   -157306.81108   -122576.84808  23786180.83908  23786183.40108
   2816075.28208   2194353.13908  22925961.72908  22925963.42708
  -9250903.19108  -7208491.70608  22647111.28008  22647112.96508
 -11511808.85708  -8970230.58908  20797366.51708  20797368.36108
 94 01 25 02 16 30.0000000  0  6 02 07 15 19 26 27
  -6378409.17408  -4970182.26108  20878961.58008  20878964.43808
  -4682811.76708  -3648942.52208  20664451.94908  20664454.06008
   -172242.25908   -134214.84408  23783338.72608  23783341.51908
   2897013.93308   2257422.21708  22941364.10308  22941365.73208
  -9287911.22908  -7237329.13108  22640069.19708  22640071.01708
 -11460816.85608  -8930496.57408  20807070.07408  20807071.70408
 94 01 25 02 17 00.0000000  0  6 02 07 15 19 26 27
  -6375898.03008  -4968225.49108  20879439.19608  20879442.10808
  -4724593.50908  -3681499.69008  20656500.99908  20656503.11308
   -186643.55008   -145436.59908  23780598.68208  23780601.01308
   2978202.97608   2320686.42208  22956814.15408  22956815.78008
  -9324394.62408  -7265757.72808  22633126.64608  22633128.57208
 -11409379.85608  -8890415.78708  20816858.22008  20816859.72108
 94 01 25 02 17 30.0000000  0  6 02 07 15 19 26 27
  -6373184.42708  -4966111.00308  20879955.89508  20879958.44608
  -4765841.20008  -3713640.75508  20648651.63108  20648653.75708
   -200506.87708   -156239.17308  23777960.64308  23777962.59208
   3059667.57708   2384165.30008  22972316.26808  22972318.04008
  -9360344.18508  -7293770.40308  22626285.83908  22626287.68408
 -11357512.16308  -8849999.42808  20826728.15708  20826729.74808
 94 01 25 02 18 00.0000000  0  6 02 07 15 19 26 27
  -6370279.03008  -4963847.06508  20880509.07708  20880511.30008
  -4806573.00608  -3745379.81108  20640900.65808  20640902.75708
   -213840.35108   -166628.83607  23775422.83408  23775424.98907
   3141402.41608   2447854.76908  22987869.85208  22987871.56208
  -9395767.49008  -7321372.96408  22619544.91608  22619546.52408
 -11305226.24708  -8809257.16708  20836677.66708  20836679.29808
 94 01 25 02 18 30.0000000  0  6 02 07 15 19 26 27
  -6367178.22209  -4961430.85708  20881099.21809  20881101.43908
  -4846794.46608  -3776721.20208  20633246.88708  20633248.83508
   -226646.63308   -176607.73408  23772985.91508  23772988.30008
   3223400.60308   2511749.45408  23003473.69108  23003475.22708
  -9430665.80008  -7348566.44608  22612903.83008  22612905.26008
 -11252541.75008  -8768204.32108  20846703.25408  20846704.95108
 94 01 25 02 19 00.0000000  0  6 02 07 15 19 26 27
  -6363884.34009  -4958864.19908  20881725.98309  20881728.22308
  -4886509.77808  -3807668.18708  20625689.34008  20625691.26208
   -238922.11408   -186173.04507  23770650.64408  23770652.44707
   3305669.46008   2575855.06508  23019128.72308  23019130.55908
  -9465037.81508  -7375349.81608  22606362.92908  22606364.25308
 -11199452.25408  -8726835.89208  20856805.76308  20856807.57408
 94 01 25 02 19 30.0000000  0  6 02 07 15 19 26 27
  -6360418.83709  -4956163.80208  20882385.50709  20882387.74708
  -4925742.43408  -3838239.07908  20618223.70808  20618225.68408
   -250676.79208   -195332.49407  23768413.61608  23768415.55907
   3388200.81908   2640165.21408  23034833.53608  23034836.05508
  -9498879.07408  -7401719.61308  22599922.82408  22599924.41208
 -11145961.27008  -8685154.61408  20866984.72908  20866986.57308
 94 01 25 02 20 00.0000000  0  6 02 07 15 19 26 27
  -6356791.67509  -4953337.44108  20883075.81609  20883077.80008
  -4964501.67808  -3868441.07908  20610848.10008  20610850.17108
   -261911.63107   -204086.87107  23766275.45707  23766277.31007
   3470970.76508   2704661.27308  23050583.98408  23050586.68208
  -9532190.72308  -7427676.71708  22593583.89008  22593585.58108
 -11092058.59008  -8643152.53708  20877242.14208  20877243.94408
 94 01 25 02 20 30.0000000  0  6 02 07 15 19 26 27
  -6353020.62209  -4950398.96308  20883793.44809  20883795.12508
  -5002785.06808  -3898272.28108  20603562.99708  20603565.09808
   -272628.59907   -212437.73807  23764235.98107  23764237.83507
   3553976.20808   2769340.83308  23066379.52408  23066381.92308
  -9564982.18608  -7453228.49308  22587344.03808  22587345.79308
 -11037744.43608  -8600829.83308  20887577.95408  20887579.61308
 94 01 25 02 21 00.0000000  0  6 02 07 15 19 26 27
  -6349108.96909  -4947350.92208  20884537.69509  20884539.52908
  -5040595.14008  -3927734.66209  20596367.91908  20596370.11509
   -282832.51108   -220388.80508  23762294.53208  23762296.80308
   3637210.26508   2834198.52108  23082218.54608  23082221.09108
  -9597266.64308  -7478385.22008  22581200.62608  22581202.41808
 -10983005.33908  -8558176.00108  20897994.63908  20897996.21108
 94 01 25 02 21 30.0000000  0  6 02 07 15 19 26 27
  -6345051.97908  -4944189.62708  20885309.60408  20885311.74708
  -5077935.07608  -3956830.70109  20589262.37208  20589264.49709
   -292526.25808   -227942.33108  23760449.87708  23760452.33808
   3720660.07807   2899224.32608  23098098.48307  23098100.96108
  -9629047.39908  -7503149.44208  22575153.10408  22575155.01808
 -10927847.67608  -8515196.01508  20908490.86208  20908492.39508
 94 01 25 02 22 00.0000000  0  6 02 07 15 19 26 27
  -6340833.60908  -4940902.57408  20886112.19908  20886114.64208
  -5114786.53608  -3985546.10908  20582249.79708  20582251.89508
   -301693.34907   -235085.48808  23758704.87507  23758707.83908
   3804339.73507   2964429.22808  23114021.68607  23114024.90808
  -9660319.35008  -7527517.19508  22569202.15108  22569204.26908
 -10872256.16408  -8471877.95508  20919069.49608  20919071.13608
 94 01 25 02 22 30.0000000  0  6 02 07 15 19 26 27
  -6336439.46808  -4937478.55108  20886948.31108  20886950.84608
  -5151153.04008  -4013883.62808  20575329.46708  20575331.56008
   -310339.15507   -241822.46208  23757060.01307  23757062.88608
   3888259.27307   3029821.05508  23129990.66707  23129994.16408
  -9691095.57208  -7551498.67008  22563345.69308  22563347.94808
 -10816237.03408  -8428226.69108  20929729.51308  20929731.35908
 94 01 25 02 23 00.0000000  0  6 02 07 15 19 26 27
  -6331861.52108  -4933911.30908  20887819.58408  20887822.06408
  -5187040.97008  -4041848.23508  20568500.14108  20568502.27908
   -318466.82408   -248155.68008  23755513.54608  23755516.76108
   3972428.91207   3095407.77808  23146007.38207  23146011.18608
  -9721373.20408  -7575091.65108  22557583.75408  22557586.38808
 -10759796.90808  -8384247.38108  20940469.71208  20940471.65808
 94 01 25 02 23 30.0000000  0  6 02 07 15 19 26 27
  -6327101.29609  -4930202.03808  20888725.51109  20888727.83908
  -5222444.37608  -4069435.28909  20561762.86308  20561765.12209
   -326062.08507   -254074.07608  23754067.46607  23754071.42008
   4056867.33007   3161203.93708  23162075.29707  23162079.22908
  -9751129.05908  -7598278.04608  22551921.02108  22551923.85908
 -10702935.53008  -8339939.81608  20951289.96508  20951291.97408
 94 01 25 02 24 00.0000000  0  6 02 07 15 19 26 27
  -6322171.38109  -4926360.54808  20889663.76409  20889665.82708
  -5257353.61008  -4096637.27409  20555119.94708  20555122.35609
   -333126.93007   -259579.19208  23752722.94807  23752726.55508
   4141583.70307   3227216.66907  23178196.42307  23178199.89207
  -9780373.15808  -7621065.68108  22546356.39108  22546358.86308
 -10645657.27708  -8295307.43008  20962189.78208  20962191.78708
 94 01 25 02 24 30.0000000  0  6 02 07 15 19 26 27
  -6317072.41309  -4922387.32708  20890634.06209  20890636.15408
  -5291760.75508  -4123448.02009  20548572.55008  20548575.00809
   -339654.82707   -264665.82607  23751480.32707  23751483.43007
   4226577.90207   3293445.89007  23194370.45407  23194373.47207
  -9809093.78508  -7643445.40808  22540891.40308  22540893.21008
 -10587957.79708  -8250346.81108  20973169.61308  20973171.53608
 94 01 25 02 25 00.0000000  0  6 02 07 15 19 26 27
  -6311835.23609  -4918306.40808  20891630.67509  20891632.89108
  -5325684.93708  -4149882.43309  20542116.99708  20542119.48409
   -345662.15507   -269346.81507  23750336.93007  23750340.05007
   4311808.53507   3359859.36107  23210589.14207  23210592.36807
  -9837286.19708  -7665413.52408  22535526.94808  22535527.96308
 -10529852.14808  -8205069.68708  20984226.73408  20984228.77808
 94 01 25 02 25 30.0000000  0  6 02 07 15 19 26 27
  -6306455.85509  -4914114.67708  20892654.20209  20892656.73408
  -5359119.75108  -4175935.51909  20535754.57008  20535757.04109
   -351148.75507   -273622.09907  23749293.13507  23749296.71007
   4397246.88107   3426434.67807  23226847.85507  23226850.76007
  -9864949.71808  -7686969.50208  22530262.87508  22530263.46708
 -10471338.99908  -8159475.03408  20995361.21008  20995363.51308
 94 01 25 02 26 00.0000000  0  6 02 07 15 19 26 27
  -6300914.15008  -4909796.45709  20893708.71908  20893711.38409
  -5392047.88108  -4201593.79009  20529488.52808  20529490.91909
   -356104.53607   -277483.78707  23748350.63407  23748354.07307
   4482888.62107   3493168.48707  23243145.52507  23243147.88407
  -9892081.12208  -7708110.83508  22525100.00308  22525100.17608
 -10412405.46008  -8113552.80908  21006575.85608  21006578.21408
 94 01 25 02 26 30.0000000  0  6 02 07 15 19 26 27
  -6295197.18108  -4905341.66509  20894796.54708  20894799.30009
  -5424486.31508  -4226870.48409  20523315.68108  20523317.84909
   -360532.98508   -280934.52507  23747508.39208  23747511.23407
   4568708.86108   3560041.37207  23259476.98508  23259479.07207
  -9918678.35208  -7728835.91508  22520038.72708  22520038.84508
 -10353061.36108  -8067310.67308  21017868.70108  21017870.92308
 94 01 25 02 27 00.0000000  0  6 02 07 15 19 26 27
  -6289287.55608  -4900736.75309  20895921.11108  20895923.87009
  -5456418.06408  -4251752.36309  20517239.24208  20517241.29309
   -364424.75907   -283967.03807  23746767.03507  23746770.51707
   4654725.59208   3627067.36507  23275845.95208  23275847.42907
  -9944745.46108  -7749147.92908  22515078.11608  22515078.59608
 -10293309.66608  -8020750.93808  21029239.19608  21029241.12608
 94 01 25 02 27 30.0000000  0  7 02 07 13 15 19 26 27
  -6283172.58208  -4895971.83609  20897084.77008  20897087.52009
  -5487814.23908  -4276216.91009  20511264.85808  20511266.86209
        -0.32517        -0.34416  23641584.83317  23641587.41916
   -367758.13907   -286564.45607  23746132.56207  23746136.55807
   4740987.05208   3694284.06307  23292261.24208  23292262.36807
  -9970284.83708  -7769048.74108  22510217.78508  22510218.69808
 -10233138.77308  -7973864.55308  21040689.50308  21040691.32008
 94 01 25 02 28 00.0000000  0  7 02 07 13 15 19 26 27
  -6276891.32508  -4891077.35209  20898280.11008  20898282.69009
  -5518704.00308  -4300286.85509  20505386.84808  20505388.77209
   -115445.04907    -89957.27106  23619616.42107  23619620.67906
   -370559.90207   -288747.60908  23745599.40507  23745603.31108
   4827478.21208   3761679.75407  23308720.33408  23308721.40607
  -9995325.61108  -7788561.03608  22505452.24808  22505453.68308
 -10172576.88408  -7926673.49408  21052214.11608  21052215.83808
 94 01 25 02 28 30.0000000  0  7 02 07 13 15 19 26 27
  -6270431.25808  -4886043.52909  20899509.32008  20899511.94609
  -5549076.53208  -4323953.75309  20499607.04208  20499609.16209
   -230703.29007   -179768.82006  23597683.19207  23597687.11106
   -372813.35707   -290503.51307  23745170.45107  23745173.85107
   4914216.76108   3829268.20907  23325226.18008  23325227.42707
 -10019839.64608  -7807662.87908  22500787.22008  22500788.71308
 -10111612.51908  -7879168.82208  21063815.19008  21063817.18308
 94 01 25 02 29 00.0000000  0  6 02 07 13 19 26 27
  -6263779.16008  -4880860.07309  20900775.05708  20900777.81409
  -5578889.73408  -4347184.80609  20493933.60808  20493935.90009
   -345735.50507   -269404.36106  23575792.98507  23575798.44206
   5001249.05408   3897085.57607  23341788.00908  23341789.69807
 -10043778.99808  -7826316.91908  22496231.78008  22496233.38908
 -10050199.32008  -7831314.39108  21075501.56008  21075503.80808
 94 01 25 02 29 30.0000000  0  6 02 07 13 19 26 27
  -6256988.68908  -4875568.78509  20902067.30108  20902070.08009
  -5608205.22708  -4370028.03109  20488355.07108  20488357.42909
   -460588.14207   -358899.86906  23553937.17507  23553941.73506
   5088513.10008   3965083.50908  23358393.70908  23358396.07908
 -10067178.65608  -7844550.39108  22491779.01008  22491780.82308
  -9988379.23808  -7783142.90208  21087265.43608  21087267.89608
 94 01 25 02 30 00.0000000  0  6 02 07 15 19 26 27
  -6250028.39109  -4870145.16708  20903391.96309  20903394.46308
  -5637016.61708  -4392478.44409  20482872.47508  20482874.89109
        -0.02117        -0.56317  23744528.95617  23744531.28617
   5176013.64508   4033265.73708  23375044.39908  23375047.18608
 -10090013.08308  -7862343.42908  22487433.59308  22487435.86308
  -9926139.67608  -7734644.55008  21099109.38108  21099111.79508
 94 01 25 02 30 30.0000000  0  6 02 07 15 19 26 27
  -6242907.23809  -4864596.21608  20904747.39109  20904749.41508
  -5665346.03508  -4414553.29609  20477481.57308  20477483.98609
       -32.83907       -26.13507  23744522.20307  23744524.59307
   5263734.64108   4101619.74908  23391737.20308  23391740.09308
 -10112306.28608  -7879714.74908  22483191.19408  22483193.90208
  -9863495.70408  -7685831.07708  21111030.13108  21111032.65808
 94 01 25 02 31 00.0000000  0  6 02 07 15 19 26 27
  -6235626.97309  -4858923.29308  20906132.82309  20906134.57708
  -5693191.62608  -4436251.13809  20472182.69208  20472185.04409
       471.42307       366.75307  23744618.88607  23744620.40107
   5351680.41407   4170148.91508  23408472.53007  23408475.78908
 -10134081.06508  -7896682.11808  22479047.41608  22479050.51308
  -9800439.86008  -7636696.67508  21123029.16808  21123031.80508
 94 01 25 02 31 30.0000000  0  5 02 07 19 26 27
  -6228161.58809  -4853106.12508  20907553.50309  20907555.15208
  -5720547.42708  -4457567.32709  20466977.05608  20466979.37109
   5439853.51507   4238855.22508  23425251.27007  23425254.39608
 -10155342.47708  -7913249.46708  22475001.48708  22475004.72008
  -9736974.94908  -7587243.52908  21135106.21708  21135108.90208
 94 01 25 02 32 00.0000000  0  5 02 07 19 26 27
  -6220527.90208  -4847157.78208  20909005.98408  20909007.92208
  -5747419.71908  -4478506.73709  20461863.41508  20461865.67209
   5528242.07107   4307729.45607  23442071.22107  23442074.23907
 -10176109.27608  -7929431.38808  22471049.74908  22471052.82808
  -9673115.43408  -7537482.87608  21147258.40908  21147260.84408
 94 01 25 02 32 30.0000000  0  5 02 07 19 26 27
  -6212703.75109  -4841061.04708  20910494.64909  20910496.94208
  -5773768.96008  -4499038.61909  20456849.36608  20456851.38509
   5616866.29007   4376787.26307  23458935.91307  23458938.87207
 -10196335.90608  -7945192.43308  22467200.89608  22467203.64508
  -9608818.99908  -7487381.79308  21159493.60208  21159495.94108
 94 01 25 02 33 00.0000000  0  7 02 07 13 15 19 26 27
  -6204667.80809  -4834799.26108  20912023.72009  20912026.11508
  -5799559.25708  -4519134.95009  20451941.87408  20451943.74409
         0.14017         0.01016  23401995.42017  23401997.19516
         0.39017         0.02917  23746046.43117  23746049.51417
   5705749.14807   4446046.62507  23475850.04007  23475852.54807
 -10215983.27708  -7960502.07708  22463462.24508  22463464.90008
  -9544077.28608  -7436933.71708  21171813.52308  21171815.88008
 94 01 25 02 33 30.0000000  0  5 02 07 19 26 27
  -6196471.17008  -4828412.24008  20913583.51208  20913585.83108
  -5824846.04408  -4538838.91608  20447129.97508  20447131.75308
   5794831.60907   4515461.56007  23492801.64707  23492804.36907
 -10235096.98708  -7975395.86608  22459825.20008  22459827.70508
  -9478954.06208  -7386188.34208  21184206.00008  21184208.40408
 94 01 25 02 34 00.0000000  0  7 02 07 13 15 19 26 27
  -6188129.63909  -4821912.36008  20915170.87509  20915173.04308
  -5849640.34909  -4558159.17409  20442411.88509  20442413.50909
        -0.20417        -0.96616  23358942.75317  23358945.55016
        -0.06917        -0.90517  23747396.38017  23747400.22717
   5884109.51007   4585028.72307  23509790.09007  23509793.06407
 -10253682.03508  -7989877.73408  22456288.89508  22456291.10008
  -9413445.53308  -7335142.78208  21196671.71308  21196674.33808
 94 01 25 02 34 30.0000000  0  7 02 07 13 15 19 26 27
  -6179597.60808  -4815264.02308  20916794.40808  20916796.61208
  -5873904.12109  -4577066.00909  20437794.51109  20437796.23209
   -112770.17907    -87873.62006  23337483.02607  23337486.29506
      4398.02107      3426.20407  23748233.81107  23748237.29707
   5973624.45307   4654780.62007  23526824.07807  23526827.37907
 -10271697.51808  -8003915.76908  22452860.87608  22452862.78108
  -9347516.03708  -7283769.17408  21209217.77308  21209220.09308
 94 01 25 02 35 00.0000000  0  7 02 07 13 15 19 26 27
  -6170921.48708  -4808503.41408  20918445.26208  20918447.58808
  -5897698.26108  -4595606.89709  20433266.49508  20433268.30609
   -225348.14807   -175596.66406  23316060.40907  23316063.29406
      9319.55507      7261.20407  23749171.20707  23749173.69907
   6063331.56407   4724682.23107  23543895.30407  23543897.97107
 -10289214.40508  -8017565.28008  22449527.34808  22449529.24908
  -9281224.45008  -7232113.40608  21221832.80008  21221834.84508
 94 01 25 02 35 30.0000000  0  6 02 07 15 19 26 27
  -6162087.28308  -4801619.61708  20920126.16608  20920128.59308
  -5921023.88908  -4613782.70609  20428827.68808  20428829.54909
     14780.30807     11516.39607  23750210.15007  23750212.32307
   6153248.51707   4794747.37807  23561005.67707  23561008.67907
 -10306224.34408  -8030819.76708  22446290.25008  22446292.19308
  -9214540.62108  -7180151.99208  21234522.31908  21234524.33808
 94 01 25 02 36 00.0000000  0  6 02 07 15 19 26 27
  -6153102.80908  -4794618.71708  20921835.84708  20921838.45608
  -5943876.97608  -4631590.30009  20424478.90608  20424480.83009
     20776.87707     16189.09007  23751350.57307  23751353.56207
   6243372.79407   4864974.06707  23578155.23307  23578158.38607
 -10322716.79508  -8043671.01308  22443151.76308  22443153.63108
  -9147461.95908  -7127882.91908  21247287.05908  21247289.05808
 94 01 25 02 36 30.0000000  0  5 02 07 19 26 27
  -6143922.79308  -4787465.44608  20923582.78308  20923585.56908
  -5966206.79608  -4648990.15009  20420229.63808  20420231.68009
   6333738.83607   4935389.16107  23595351.21607  23595354.06707
 -10338650.28108  -8056086.71308  22440119.58808  22440121.38108
  -9079964.98808  -7075287.89008  21260131.28808  21260133.39508
 94 01 25 02 37 00.0000000  0  5 02 07 19 26 27
  -6134558.20708  -4780168.35508  20925364.69308  20925367.57108
  -5988022.36208  -4665989.27909  20416078.09308  20416080.36309
   6424336.07107   5005984.40207  23612591.76407  23612593.81007
 -10354043.57208  -8068081.47908  22437190.26008  22437192.15108
  -9012053.91108  -7022370.17808  21273054.30308  21273056.52708
 94 01 25 02 37 30.0000000  0  6 02 07 15 19 26 27
  -6124988.09708  -4772711.11408  20927185.84808  20927188.57608
  -6009295.92408  -4682566.06509  20412029.79508  20412032.16109
        -0.60317        -0.33017  23755426.41417  23755428.42917
   6515187.71007   5076777.87407  23629880.66807  23629882.31707
 -10368865.02408  -8079630.65508  22434369.82008  22434372.03908
  -8943707.57108  -6969113.29508  21286060.22208  21286062.47008
 94 01 25 02 38 00.0000000  0  5 02 07 15 26 27
  -6115263.62008  -4765133.58908  20929036.55908  20929039.06508
  -6030064.73008  -4698749.53709  20408077.61708  20408080.04809
      8250.73907      6429.32707  23756996.13507  23756998.83707
 -10383160.22908  -8090769.77508  22431649.73108  22431652.14108
  -8874979.59808  -6915559.04108  21299138.68208  21299141.07708
 94 01 25 02 38 30.0000000  0  6 02 07 15 19 26 27
  -6105392.47008  -4757441.77808  20930915.30708  20930917.55808
  -6050345.39008  -4714552.63209  20404218.25808  20404220.69609
     17033.33207     13272.94307  23758667.69207  23758670.20407
        -0.33617         0.06917  23664568.63017  23664569.14017
 -10396942.93108  -8101509.54408  22429026.54108  22429029.50608
  -8805869.54008  -6861707.05308  21312289.76708  21312292.22308
 94 01 25 02 39 00.0000000  0  6 02 07 15 19 26 27
  -6095377.20508  -4749637.67708  20932821.19008  20932823.31508
  -6070156.04608  -4729989.49409  20400448.26908  20400450.79509
     26354.99607     20536.59607  23760441.69907  23760444.51707
     91433.44607     71247.17907  23681967.38507  23681968.59707
 -10410205.19608  -8111843.79608  22426502.57508  22426505.66108
  -8736358.16208  -6807542.35408  21325517.45308  21325519.77208
 94 01 25 02 39 30.0000000  0  6 02 07 15 19 26 27
  -6085211.94108  -4741716.68408  20934755.37108  20934757.68608
  -6089491.90908  -4745056.38709  20396768.99808  20396771.45309
     36229.64607     28231.12107  23762320.79807  23762322.51607
    183081.50107    142661.23306  23699407.08507  23699408.45506
 -10422914.83508  -8121747.43708  22424083.92608  22424086.99108
  -8666434.46308  -6753056.35608  21338823.48808  21338825.80408
 94 01 25 02 40 00.0000000  0  6 02 07 15 19 26 27
  -6074893.06609  -4733675.99308  20936719.10509  20936721.24908
  -6108343.95808  -4759746.28309  20393181.69708  20393184.02509
     46665.87207     36363.20606  23764306.69407  23764306.71806
    274951.09907    214247.92506  23716889.28207  23716890.22306
 -10435058.38608  -8131209.96608  22421773.13108  22421775.85408
  -8596085.65808  -6698239.11508  21352210.35308  21352212.96208
 94 01 25 02 40 30.0000000  0  6 02 07 15 19 26 27
  -6064431.73009  -4725524.29908  20938709.94409  20938711.89308
  -6126725.57008  -4774069.60909  20389683.76708  20389685.99509
     57658.42407     44928.82906  23766398.19607  23766398.56706
    367042.75107    286007.62606  23734413.35807  23734414.37406
 -10446653.19908  -8140244.87808  22419566.85508  22419569.17908
  -8525323.03008  -6643099.42108  21365676.01908  21365678.89808
 94 01 25 02 41 00.0000000  0  5 02 07 19 26 27
  -6053846.53909  -4717276.09608  20940724.20009  20940726.24408
  -6144649.87808  -4788036.59609  20386272.98608  20386275.16009
    459336.09807    357924.49706  23751975.99307  23751976.54506
 -10457726.89508  -8148873.71508  22417459.92708  22417461.76808
  -8454193.35108  -6587673.72008  21379211.70908  21379214.42208
 94 01 25 02 41 30.0000000  0  5 02 07 19 26 27
  -6043148.67909  -4708940.10208  20942759.92209  20942762.11208
  -6162100.58708  -4801634.54609  20382952.14108  20382954.28109
    551813.86706    429985.05306  23769573.73906  23769574.87806
 -10468296.11308  -8157109.45808  22415448.92408  22415450.80808
  -8382720.81008  -6531980.84708  21392812.51608  21392815.07708
 94 01 25 02 42 00.0000000  0  5 02 07 19 26 27
  -6032321.16109  -4700503.07008  20944820.25909  20944822.59008
  -6179053.06708  -4814844.26609  20379726.22608  20379728.42709
    644472.80006    502186.80506  23787205.66606  23787207.73406
 -10478359.67608  -8164951.19508  22413533.98608  22413536.23808
  -8310897.95508  -6476015.00608  21406480.06308  21406482.40908
 94 01 25 02 42 30.0000000  0  6 02 07 15 19 26 27
  -6021319.23109  -4691930.12308  20946913.73509  20946916.29608
  -6195480.57008  -4827644.90809  20376600.10608  20376602.30409
        -0.10517         0.32416  23775764.85117  23775767.70716
    737331.23906    574543.96706  23804876.52706  23804878.06106
 -10487901.60008  -8172386.46008  22411718.52708  22411720.69808
  -8238702.52308  -6419758.85008  21420218.67608  21420220.71808
 94 01 25 02 43 00.0000000  0  5 02 07 15 26 27
  -6010129.20708  -4683210.61508  20949043.07408  20949045.58408
  -6211385.19408  -4840038.10709  20373573.52208  20373575.69009
     13670.17707     10652.55107  23778367.10307  23778369.11207
 -10496909.48008  -8179405.59808  22410004.45908  22410006.51608
  -8166132.78608  -6363211.02508  21434028.49608  21434030.17108
 94 01 25 02 43 30.0000000  0  5 02 07 15 26 27
  -5998717.65608  -4674318.47308  20951214.57608  20951216.98508
  -6226736.64908  -4852000.24909  20370652.31608  20370654.50809
     27937.19507     21769.75507  23781081.61507  23781084.34807
 -10505339.56908  -8185974.47208  22408400.16908  22408402.19608
  -8093131.08608  -6306326.58308  21447920.24008  21447921.74608
 94 01 25 02 44 00.0000000  0  6 02 07 13 15 26 27
  -5987124.46108  -4665284.81108  20953420.68008  20953423.02708
  -6241588.40108  -4863573.03709  20367826.15608  20367828.37109
        -0.39417         0.43116  22938092.88817  22938096.49616
     42756.65907     33317.35307  23783901.73907  23783904.50007
 -10513233.66708  -8192125.71608  22406897.96808  22406899.92308
  -8019733.99008  -6249134.06208  21461887.29708  21461888.71208
 94 01 25 02 44 30.0000000  0  6 02 07 13 15 26 27
  -5975339.67509  -4656101.87908  20955663.47609  20955665.70008
  -6255929.24908  -4874747.73609  20365097.09308  20365099.41509
   -107919.66207    -84092.49506  22917556.74507  22917560.45506
     58141.43908     45305.42707  23786829.92708  23786832.49207
 -10520578.79608  -8197849.21608  22405500.26008  22405502.03708
  -7945929.99108  -6191624.49508  21475931.84108  21475933.14908
 94 01 25 02 45 00.0000000  0  5 02 07 15 26 27
  -5963425.89109  -4646818.40808  20957930.61009  20957932.91708
  -6269791.58408  -4885549.54309  20362458.95708  20362461.48309
     74060.45908     57709.88907  23789859.55508  23789862.02607
 -10527394.81308  -8203160.40508  22404203.19908  22404205.04308
  -7871750.81108  -6133822.55108  21490047.76008  21490049.00808
 94 01 25 02 45 30.0000000  0  5 02 07 15 26 27
  -5951372.46609  -4637426.12308  20960224.09309  20960226.58708
  -6283147.27808  -4895956.56109  20359917.35808  20359919.89009
     90530.44108     70543.68607  23792993.64308  23792995.64207
 -10533665.12908  -8208046.37608  22403010.27508  22403012.11208
  -7797188.68608  -6075722.20408  21504236.29308  21504237.69708
 94 01 25 02 46 00.0000000  0  5 02 07 15 26 27
  -5939148.52909  -4627900.96808  20962550.14209  20962552.63508
  -6295973.75608  -4905951.20409  20357476.83208  20357479.19009
    107573.54408     83824.05707  23796236.88208  23796239.23607
 -10539367.37708  -8212489.69808  22401925.21808  22401926.97308
  -7722233.55808  -6017315.62508  21518499.56208  21518501.22508
 94 01 25 02 46 30.0000000  0  5 02 07 15 26 27
  -5926771.98509  -4618256.90708  20964905.64909  20964907.61908
  -6308298.55508  -4915554.93509  20355131.72408  20355133.82909
    125173.55908     97538.35707  23799586.02208  23799589.33507
 -10544516.20508  -8216501.77908  22400945.39808  22400947.15508
  -7646909.06808  -5958621.23408  21532833.24008  21532834.96808
 94 01 25 02 47 00.0000000  0  5 02 07 15 26 27
  -5914224.60109  -4608479.73508  20967293.33609  20967295.09708
  -6320115.76009  -4924763.14709  20352882.93809  20352884.84309
    143347.03108    111699.53507  23803044.31408  23803047.37307
 -10549105.80008  -8220078.08908  22400072.11008  22400073.80708
  -7571198.09708  -5899625.69708  21547240.59108  21547242.25108
 94 01 25 02 47 30.0000000  0  5 02 07 15 26 27
  -5901508.88009  -4598571.39108  20969712.89609  20969714.91708
  -6331441.79409  -4933588.62909  20350727.73809  20350729.53609
    162072.46108    126290.83507  23806607.98608  23806610.56707
 -10553176.89808  -8223250.39608  22399297.22508  22399298.94608
  -7495122.65408  -5840346.15808  21561717.19208  21561718.90508
 94 01 25 02 48 00.0000000  0  5 02 07 15 26 27
  -5888639.05708  -4588542.95808  20972161.82508  20972163.97908
  -6342278.31609  -4942032.67409  20348665.59809  20348667.39309
    181348.01608    141310.78407  23810275.79408  23810279.15107
 -10556744.11108  -8226030.04908  22398618.13708  22398619.73008
  -7418677.85108  -5780778.79808  21576264.24708  21576265.81308
 94 01 25 02 48 30.0000000  0  6 02 07 13 15 26 27
  -5875605.53308  -4578386.95908  20974641.93408  20974644.22008
  -6352597.40308  -4950073.52009  20346701.85108  20346703.79909
         0.11816         0.38516  22755211.32516  22755212.17616
    201192.82908    156774.29607  23814052.41008  23814056.21307
 -10559801.53208  -8228412.46908  22398036.16608  22398037.81908
  -7341844.28308  -5720908.50208  21590885.31208  21590886.88508
 94 01 25 02 49 00.0000000  0  5 02 07 15 26 27
  -5862404.40008  -4568100.35308  20977154.13708  20977156.39508
  -6362386.38208  -4957701.29009  20344838.97008  20344841.05809
    221612.44908    172685.69707  23817938.30308  23817941.21407
 -10562349.05608  -8230397.55808  22397551.15208  22397552.67208
  -7264619.67408  -5660733.50908  21605580.50508  21605582.18608
 94 01 25 02 49 30.0000000  0  6 02 07 13 15 26 27
  -5849051.29209  -4557695.33408  20979695.30709  20979697.31608
  -6371657.86308  -4964925.80709  20343074.63408  20343076.90809
         0.44916        -0.15316  22715201.38516  22715202.27516
    242593.24808    189034.35707  23821931.23608  23821933.00507
 -10564385.26508  -8231984.20208  22397163.47408  22397164.85608
  -7187021.77608  -5600267.63108  21620346.96608  21620348.58708
 94 01 25 02 50 00.0000000  0  6 02 07 13 15 26 27
  -5835529.44509  -4547158.83308  20982268.46109  20982270.37608
  -6380423.12508  -4971755.87109  20341406.48608  20341408.86109
   -104644.89606    -81541.91506  22695288.33206  22695288.76206
    264147.53808    205829.87607  23826033.00808  23826033.50807
 -10565881.43308  -8233150.04508  22396878.76408  22396880.22208
  -7109037.62008  -5539500.77108  21635186.86808  21635188.61408
 94 01 25 02 50 30.0000000  0  5 02 07 15 26 27
  -5821824.92409  -4536479.98708  20984876.30009  20984878.34508
  -6388710.20308  -4978213.31909  20339829.49308  20339831.93109
    286264.75107    223064.00207  23830241.16307  23830241.37607
 -10566830.37108  -8233889.48708  22396698.41508  22396700.05808
  -7030671.84108  -5478436.53408  21650099.35108  21650101.27708
 94 01 25 02 51 00.0000000  0  5 02 07 15 26 27
  -5807927.67909  -4525650.95908  20987520.85509  20987522.86908
  -6396546.15408  -4984319.24009  20338338.38408  20338340.82609
    308935.66907    240729.61707  23834554.36807  23834554.97707
 -10567211.98508  -8234186.85608  22396625.69708  22396627.56908
  -6951923.18308  -5417073.95208  21665084.68308  21665086.95508
 94 01 25 02 51 30.0000000  0  4 02 07 26 27
  -5793791.99509  -4514636.13608  20990210.94209  20990212.85308
  -6403896.49808  -4990046.77009  20336939.79508  20336942.02909
 -10566987.71308  -8234012.10708  22396668.32408  22396670.46308
  -6872751.63508  -5355381.84908  21680150.43308  21680153.07908
 94 01 25 02 52 00.0000000  0  5 02 07 15 26 27
  -5779381.21809  -4503406.95708  20992953.29409  20992955.13208
  -6410719.61509  -4995363.47909  20335641.52209  20335643.58409
         0.35116         0.43917  23843521.93416  23843525.46817
 -10566120.87208  -8233336.65508  22396833.32508  22396835.43208
  -6793108.28108  -5293322.11208  21695306.03608  21695308.83708
 94 01 25 02 52 30.0000000  0  5 02 07 15 26 27
  -5764719.56209  -4491982.28608  20995743.20909  20995745.07408
  -6417013.80409  -5000268.03509  20334443.86909  20334445.90909
     24482.17407     19077.25507  23848180.32307  23848184.58207
 -10564628.16708  -8232173.51708  22397117.64308  22397119.69208
  -6713011.28708  -5230908.88808  21710548.01808  21710550.84408
 94 01 25 02 53 00.0000000  0  6 02 07 13 15 26 27
  -5750058.66809  -4480558.21208  20998533.14609  20998534.95508
  -6422993.08208  -5004927.20409  20333305.84208  20333307.94809
        -0.24717        -0.22216  22577118.53217  22577120.13216
     49344.94607     38450.89608  23852911.72007  23852916.05208
 -10562746.65508  -8230707.40908  22397475.75108  22397477.69808
  -6632696.65208  -5168326.07808  21725831.44508  21725834.15708
 94 01 25 02 53 30.0000000  0  6 02 07 13 15 26 27
  -5735333.02809  -4469083.68708  21001335.37609  21001337.15408
  -6428550.22708  -5009257.43409  20332248.34308  20332250.47509
   -102517.09607    -79883.47006  22557610.18607  22557612.46006
     74679.82807     58192.38208  23857732.87107  23857737.50808
 -10560415.77408  -8228891.15108  22397919.40708  22397921.15008
  -6552087.33508  -5105513.64208  21741170.92508  21741173.50208
 94 01 25 02 54 00.0000000  0  6 02 07 13 15 26 27
  -5720526.68709  -4457546.28008  21004152.96109  21004154.85208
  -6433662.69408  -5013241.16409  20331275.42908  20331277.48009
   -204756.26606   -159550.26006  22538153.75306  22538157.49606
    100515.75307     78324.26308  23862649.90707  23862654.06008
 -10557611.56108  -8226706.06708  22398452.88608  22398454.62208
  -6471160.25008  -5042453.60408  21756570.87408  21756573.47108
 94 01 25 02 54 30.0000000  0  6 02 07 13 15 26 27
  -5705587.12809  -4445905.05808  21006995.77009  21006997.90008
  -6438277.54708  -5016837.14909  20330397.21808  20330399.11009
   -306664.42107   -238959.17307  22518760.45207  22518764.75707
    126902.79208     98885.61708  23867672.14808  23867675.32608
 -10554298.50008  -8224124.49108  22399083.58108  22399085.12108
  -6389894.18308  -4979129.42708  21772035.15808  21772037.66108
 94 01 25 02 55 00.0000000  0  5 02 07 15 26 27
  -5690495.71808  -4434145.49308  21009867.44208  21009869.80008
  -6442388.34408  -5020040.34409  20329615.00308  20329616.87709
    153849.81407    119883.33608  23872799.95107  23872802.84808
 -10550487.13708  -8221154.58908  22399809.00808  22399810.38308
  -6308293.30108  -4915544.33108  21787563.29908  21787565.65608
 94 01 25 02 55 30.0000000  0  6 02 07 13 15 26 27
  -5675220.54909  -4422242.78208  21012774.23909  21012776.56708
  -6445978.50708  -5022837.89309  20328931.63508  20328933.53109
         0.34616        -0.10417  22480174.27016  22480178.84717
    181371.77808    141329.01408  23878036.60808  23878039.93808
 -10546157.80308  -8217781.10808  22400633.04108  22400634.31908
  -6226338.94908  -4851683.84808  21803158.75208  21803160.99108
 94 01 25 02 56 00.0000000  0  6 02 07 13 15 26 27
  -5659745.43609  -4410184.25108  21015719.13609  21015721.29808
  -6449044.68208  -5025227.12009  20328348.08808  20328350.04609
   -100831.47406    -78570.35206  22460986.92006  22460990.89906
    209476.36308    163228.70308  23883385.01208  23883388.11808
 -10541283.65508  -8213983.07008  22401560.50508  22401561.71708
  -6144020.90508  -4787539.93908  21818823.25508  21818825.39808
 94 01 25 02 56 30.0000000  0  6 02 07 13 15 26 27
  -5644096.86109  -4397990.56008  21018696.96609  21018699.10908
  -6451607.10008  -5027223.80609  20327860.47908  20327862.51609
   -201315.77906   -156869.79306  22441865.61106  22441869.12706
    238135.53808    185560.56308  23888839.14808  23888842.07708
 -10535885.18508  -8209776.46908  22402587.88108  22402589.12208
  -6061373.34008  -4723139.26208  21834550.54908  21834552.62408
 94 01 25 02 57 00.0000000  0  6 02 07 13 15 26 27
  -5628264.76208  -4385653.85408  21021709.61008  21021712.03808
  -6453658.35908  -5028822.18709  20327470.20908  20327472.26809
   -301435.67106   -234885.26906  22422813.50306  22422816.68206
    267363.19708    208335.40408  23894400.89408  23894404.00708
 -10529932.82208  -8205138.25908  22403720.29508  22403721.83608
  -5978357.85208  -4658451.89208  21850348.00308  21850350.04608
 94 01 25 02 57 30.0000000  0  6 02 07 13 15 26 27
  -5612271.56308  -4373191.61408  21024752.91408  21024755.45008
  -6455212.98408  -5030033.57909  20327174.40708  20327176.58209
   -401198.49406   -312622.44306  22403829.50006  22403833.09206
    297148.71708    231544.92208  23900069.04908  23900072.08808
 -10523423.02708  -8200065.68708  22404959.15608  22404960.76108
  -5894966.05008  -4593471.29208  21866216.90908  21866218.93308
 94 01 25 02 58 00.0000000  0  6 02 07 13 15 26 27
  -5596112.42609  -4360600.07708  21027828.12009  21027830.39608
  -6456271.51008  -5030858.39909  20326973.01408  20326975.22109
   -500604.35806   -390081.45606  22384913.51906  22384916.67006
    327488.53008    255186.35308  23905842.56108  23905845.44508
 -10516361.09208  -8194562.87608  22406302.97808  22406304.53008
  -5811201.64008  -4528200.33808  21882156.74608  21882158.65708
 94 01 25 02 58 30.0000000  0  6 02 07 13 15 26 27
  -5579788.23409  -4347879.92908  21030934.53309  21030936.62608
  -6456854.22108  -5031312.45209  20326862.08108  20326864.30409
   -599664.37007   -467271.04706  22366064.32507  22366065.59206
    358368.08108    279248.35608  23911719.06908  23911721.50608
 -10508775.90808  -8188652.34308  22407746.41908  22407747.95808
  -5727073.20008  -4462645.72208  21898165.86008  21898167.71708
 94 01 25 02 59 00.0000000  0  6 02 07 13 15 26 27
  -5563301.32108  -4335032.97908  21034071.72108  21034073.97008
  -6456978.21208  -5031409.06109  20326838.50808  20326840.67309
   -698384.62807   -544195.95206  22347280.73907  22347280.16406
    389778.39608    303723.94708  23917696.07408  23917698.44808
 -10500687.28608  -8182349.52508  22409285.43808  22409287.20308
  -5642576.09808  -4396803.83708  21914245.16108  21914246.76808
 94 01 25 02 59 30.0000000  0  5 02 07 15 26 27
  -5546634.82908  -4322046.09308  21037243.02808  21037245.50508
  -6456623.13208  -5031132.37509  20326906.14908  20326908.27209
    421731.41708    328622.40408  23923776.22008  23923778.68908
 -10492082.22108  -8175644.30208  22410922.58808  22410924.88208
  -5557713.73908  -4330677.33208  21930394.16908  21930395.47308
 94 01 25 03 00 00.0000000  0  5 02 07 15 26 27
  -5529794.37808  -4308923.65708  21040447.61008  21040449.97708
  -6455797.59008  -5030489.09309  20327063.30208  20327065.46709
    454212.09608    353932.01508  23929956.99408  23929959.55008
 -10482972.26708  -8168545.65008  22412655.64308  22412658.42008
  -5472519.24108  -4264292.02808  21946606.26108  21946607.42308
 94 01 25 03 00 30.0000000  0  5 02 07 15 26 27
  -5512755.81008  -4295646.84208  21043689.85208  21043692.12308
  -6454473.75008  -5029457.52309  20327315.18608  20327317.40309
    487259.64908    379683.35808  23936245.70908  23936248.29008
 -10473317.85108  -8161022.75308  22414492.69608  22414495.56308
  -5386960.91208  -4197623.21408  21962887.64208  21962888.63408
 94 01 25 03 01 00.0000000  0  5 02 07 15 26 27
  -5495531.83508  -4282225.56408  21046967.53308  21046969.63308
  -6452648.08208  -5028034.91309  20327662.60008  20327664.89509
    520875.95908    405877.87708  23942642.51908  23942645.22208
 -10463112.54008  -8153070.59308  22416435.04908  22416437.52808
  -5301046.02308  -4130676.55508  21979236.80308  21979237.64908
 94 01 25 03 01 30.0000000  0  5 02 07 15 26 27
  -5478146.20108  -4268678.32108  21050276.11108  21050278.09308
  -6450338.93208  -5026235.56309  20328101.96508  20328104.23009
    555042.12408    432500.87208  23949143.72208  23949146.83108
 -10452368.76308  -8144698.82708  22418479.76408  22418481.91408
  -5214798.51408  -4063470.73408  21995649.25208  21995649.98408
 94 01 25 03 02 00.0000000  0  6 02 07 09 15 26 27
  -5460589.16308  -4254997.51108  21053617.18808  21053619.10608
  -6447548.76708  -5024061.39909  20328632.83608  20328635.06009
        -0.57016        -0.41416  24686059.50116  24686066.25416
    589769.43807    459561.14108  23955751.46607  23955755.28608
 -10441091.32908  -8135911.21708  22420625.85508  22420627.97408
  -5128187.75408  -3995981.84508  22012130.73908  22012131.35908
 94 01 25 03 02 30.0000000  0  7 02 07 09 13 15 26 27
  -5442808.54908  -4241142.48608  21057000.72508  21057002.75608
  -6444223.30008  -5021470.11909  20329265.68008  20329267.76509
    -99572.68507    -77589.00806  24667112.20807  24667119.50006
        -0.38116         0.25716  22217755.24316  22217758.71416
    625111.04207    487100.07608  23962476.49707  23962480.43708
 -10429228.70408  -8126667.61608  22422883.10008  22422885.47708
  -5041146.39908  -3928157.43208  22028694.18908  22028694.95608
 94 01 25 03 03 00.0000000  0  7 02 07 09 13 15 26 27
  -5424861.39608  -4227157.68408  21060415.82808  21060417.99008
  -6440417.91808  -5018504.88009  20329989.92508  20329991.83909
   -199127.23607   -155163.92106  24648167.82707  24648175.54506
    -95645.84407    -74528.65006  22199555.36307  22199557.91806
    661000.78807    515066.12607  23969306.42107  23969309.94807
 -10416848.29608  -8117020.55508  22425239.15108  22425241.45608
  -4953729.19308  -3860040.15608  22045329.02408  22045330.22908
 94 01 25 03 03 30.0000000  0  7 02 07 09 13 15 26 27
  -5406853.45208  -4213125.51308  21063842.63408  21063844.80608
  -6436233.26708  -5015244.10809  20330786.21608  20330788.12609
   -298767.70907   -232805.76506  24629206.95507  24629216.46506
   -191013.63907   -148841.20907  22181407.11707  22181409.65907
    697328.28508    543373.27508  23976219.60308  23976222.99708
 -10404054.90108  -8107051.68508  22427673.93508  22427676.07708
  -4866042.91508  -3791713.21108  22062014.96408  22062016.68108
 94 01 25 03 04 00.0000000  0  7 02 07 09 13 15 26 27
  -5388715.23608  -4198991.83408  21067294.16808  21067296.25908
  -6431603.14308  -5011636.21209  20331667.31908  20331669.27609
   -398406.71207   -310446.56406  24610246.38307  24610259.53406
   -286039.58107   -222887.39407  22163324.14707  22163326.94907
    734154.62608    572069.13007  23983227.91408  23983230.87207
 -10390793.71508  -8096718.28808  22430197.69908  22430199.70208
  -4778045.59008  -3723143.90208  22078760.42908  22078762.27408
 94 01 25 03 04 30.0000000  0  7 02 07 09 13 15 26 27
  -5370418.48408  -4184734.62108  21070775.91708  21070777.93408
  -6426492.39108  -5007653.80009  20332639.68308  20332641.69809
   -498039.13607   -388082.16506  24591286.75807  24591305.11906
   -380695.08407   -296644.92607  22145312.02507  22145314.60307
    771504.79908    601173.15307  23990335.86208  23990338.63207
 -10377029.93608  -8085993.26308  22432816.87508  22432818.62808
  -4689738.63008  -3654333.30308  22095564.67008  22095566.70708
 94 01 25 03 05 00.0000000  0  7 02 07 09 13 15 26 27
  -5351952.34208  -4170345.41808  21074289.83808  21074291.89108
  -6420899.42908  -5003295.64009  20333704.15408  20333706.13909
   -597658.99007   -465708.02006  24572329.66207  24572351.15606
   -474959.32207   -370097.55407  22127374.32607  22127376.54107
    809396.03408    630698.79608  23997546.54208  23997549.18808
 -10362748.74408  -8074865.05408  22435534.44008  22435535.91208
  -4601112.55408  -3585274.04108  22112429.49708  22112431.87008
 94 01 25 03 05 30.0000000  0  6 02 07 13 15 26 27
  -5333316.12508  -4155823.69208  21077836.34208  21077838.32108
  -6414840.66609  -4998574.51909  20334857.19309  20334859.13309
   -568830.59607   -443243.98407  22109510.92007  22109513.59807
    847826.84908    660644.88407  24004859.71508  24004862.27007
 -10347944.57608  -8063329.31608  22438351.21508  22438352.81708
  -4512178.33708  -3515974.67008  22129352.95908  22129355.71208
 94 01 25 03 06 00.0000000  0  6 02 07 13 15 26 27
  -5314485.08008  -4141150.14908  21081419.72708  21081421.78708
  -6408319.78609  -4993493.31309  20336098.30209  20336100.11709
   -662292.81707   -516071.69107  22091725.66407  22091728.39507
    886809.43908    691020.90707  24012277.70108  24012279.84107
 -10332608.80808  -8051379.35008  22441269.51808  22441271.00008
  -4422917.77508  -3446421.00808  22146338.75308  22146341.70508
 94 01 25 03 06 30.0000000  0  6 02 07 13 15 26 27
  -5295454.74608  -4126321.31608  21085041.14908  21085042.99208
  -6401339.66209  -4988054.25409  20337426.54709  20337428.36109
   -755333.77907   -588571.15907  22074020.15507  22074023.61107
    926352.95708    721834.04807  24019802.60108  24019804.79507
 -10316726.48708  -8039003.52008  22444292.03608  22444293.47008
  -4333299.87908  -3376588.90008  22163392.45008  22163395.56308
 94 01 25 03 07 00.0000000  0  6 02 07 13 15 26 27
  -5276251.01709  -4111357.37408  21088695.61109  21088697.31608
  -6393923.35209  -4982275.30709  20338837.62609  20338839.59909
   -847974.57507   -660758.81007  22056390.77407  22056394.50907
    966432.56408    753064.93007  24027429.54208  24027432.05807
 -10300321.74408  -8026220.62408  22447413.76208  22447415.54408
  -4243336.10208  -3306487.27308  22180512.15308  22180515.07008
 94 01 25 03 07 30.0000000  0  6 02 07 13 15 26 27
  -5256865.96608  -4096252.14008  21092384.40708  21092386.26008
  -6386056.99609  -4976145.67209  20340334.46609  20340336.58509
   -940218.02507   -732636.83007  22038837.38007  22038841.01407
   1007041.92608    784708.58207  24035156.99608  24035160.14807
 -10283394.53408  -8013030.61208  22450634.94108  22450636.84008
  -4153035.45208  -3236123.13608  22197695.80108  22197698.54908
 94 01 25 03 08 00.0000000  0  6 02 07 13 15 26 27
  -5237307.30908  -4081011.62708  21096106.17208  21096108.18608
  -6377733.94809  -4969660.16609  20341918.16709  20341920.42609
  -1032067.85508   -804208.12807  22021358.77908  22021362.60407
   1048173.42908    816759.09607  24042983.66308  24042987.10007
 -10265959.66408  -7999445.02208  22453952.74308  22453954.70708
  -4062407.14808  -3165503.68608  22214941.79208  22214944.35808
 94 01 25 03 08 30.0000000  0  6 02 07 13 15 26 27
  -5217602.93108  -4065657.55808  21099855.75808  21099858.05708
  -6368948.14309  -4962814.07109  20343589.96609  20343592.19609
  -1123532.37508   -875479.16507  22003953.69808  22003957.39207
   1089815.79807    849207.70607  24050907.21107  24050910.46707
 -10248033.91608  -7985476.91508  22457363.60608  22457365.72608
  -3971479.76708  -3094651.19008  22232245.00608  22232247.39708
 94 01 25 03 09 00.0000000  0  6 02 07 13 15 26 27
  -5197744.06308  -4050183.10808  21103634.78208  21103637.09008
  -6359684.53809  -4955595.66809  20345352.70709  20345354.85209
  -1214600.48308   -946441.32807  21986624.04308  21986627.82507
   1131976.53007    882060.24306  24058929.64007  24058932.23606
 -10229611.73908  -7971121.98108  22460869.38208  22460871.44108
  -3880262.02208  -3023572.44908  22249603.39508  22249605.48608
 94 01 25 03 09 30.0000000  0  6 02 07 13 15 26 27
  -5177712.84608  -4034574.36308  21107446.72608  21107449.06708
  -6349946.54409  -4948007.61309  20347205.86709  20347207.89809
  -1305259.50208  -1017084.72107  21969372.30308  21969375.64007
   1174664.50707    915323.64406  24067053.21707  24067055.55706
 -10210690.45508  -7956378.13408  22464470.27708  22464471.95708
  -3788748.18308  -2952262.98108  22267017.85608  22267019.75308
 94 01 25 03 10 00.0000000  0  6 02 07 13 15 26 27
  -5157520.67808  -4018840.20808  21111289.10608  21111291.46308
  -6339747.60708  -4940060.38209  20349146.73908  20349148.71209
  -1395510.04908  -1087409.82306  21952198.36108  21952201.86706
   1217875.72107    948994.76006  24075276.85507  24075279.14406
 -10191290.06708  -7941260.95008  22468162.02508  22468163.64408
  -3696936.34508  -2880721.30508  22284489.22708  22284490.81108
 94 01 25 03 10 30.0000000  0  6 02 07 13 15 26 27
  -5137173.25708  -4002985.07808  21115161.14108  21115163.49208
  -6329082.73908  -4931750.08909  20351176.22608  20351178.23709
  -1485343.62408  -1157410.03306  21935103.75508  21935106.54006
   1261614.91408    983077.24206  24083600.79808  24083602.06106
 -10171395.75608  -7925758.88508  22471947.52308  22471949.28408
  -3604820.80308  -2808942.96608  22302018.26508  22302019.65608
 94 01 25 03 11 00.0000000  0  6 02 07 13 15 26 27
  -5116633.85409  -3986980.35008  21119069.79709  21119072.07508
  -6317936.42708  -4923064.64809  20353297.25208  20353299.32509
  -1574730.67108  -1227062.31406  21918094.00808  21918096.56206
   1305908.04308   1017591.35006  24092029.73008  24092029.55206
 -10150970.74308  -7909843.29508  22475833.66308  22475835.84108
  -3512354.60808  -2736891.41008  22319613.57408  22319615.17708
 94 01 25 03 11 30.0000000  0  5 02 07 13 26 27
  -5095946.46209  -3970860.30508  21123006.56409  21123008.68008
  -6306341.07708  -4914029.29909  20355503.72208  20355505.77409
  -1663708.71508  -1296395.93506  21901162.09108  21901166.28906
 -10130061.16608  -7893550.13408  22479811.90008  22479814.86108
  -3419564.39908  -2664587.37608  22337270.75708  22337272.29608
 94 01 25 03 12 00.0000000  0  5 02 07 13 26 27
  -5075116.24109  -3954628.96808  21126970.37409  21126972.40608
  -6294276.01808  -4904627.94409  20357799.68608  20357801.65509
  -1752270.82308  -1365405.38506  21884309.27508  21884312.88906
 -10108664.56708  -7876877.47908  22483883.56908  22483886.68008
  -3326442.81408  -2592025.12708  22354991.12308  22354992.55108
 94 01 25 03 12 30.0000000  0  5 02 07 13 26 27
  -5054093.77509  -3938247.83208  21130970.69309  21130972.84308
  -6281711.01708  -4894837.02909  20360190.61508  20360192.57209
  -1840372.19708  -1434055.83006  21867544.00108  21867547.77806
 -10086730.02808  -7859785.65608  22488058.10208  22488060.74608
  -3232953.44608  -2519176.29408  22372781.83708  22372782.77608
 94 01 25 03 13 00.0000000  0  5 02 07 13 26 27
  -5032859.95608  -3921701.99508  21135011.21508  21135013.54308
  -6268681.99708  -4884684.54009  20362669.93408  20362671.85509
  -1928025.40608  -1502357.01606  21850864.20608  21850868.22906
 -10064291.00808  -7842300.72408  22492328.23408  22492330.70908
  -3139111.30308  -2446052.56208  22390639.53808  22390640.23608
 94 01 25 03 13 30.0000000  0  5 02 07 13 26 27
  -5011430.30008  -3905003.55408  21139088.96708  21139091.46708
  -6255213.66508  -4874189.73109  20365232.82508  20365234.87009
  -2015246.60308  -1570321.56206  21834266.45408  21834270.98106
 -10041372.36408  -7824442.05608  22496689.29608  22496691.64608
  -3044952.90508  -2372682.40608  22408557.33208  22408558.00308
 94 01 25 03 14 00.0000000  0  5 02 07 13 26 27
  -4989802.36908  -3888150.61408  21143204.68008  21143207.17008
  -6241333.39108  -4863373.93009  20367874.17608  20367876.24409
  -2102043.93408  -1637955.84006  21817749.42008  21817753.56606
 -10017973.44108  -7806209.13908  22501141.75108  22501144.04508
  -2950498.81608  -2299081.83908  22426531.29008  22426532.21008
 94 01 25 03 14 30.0000000  0  5 02 07 13 26 27
  -4967959.21808  -3871129.97608  21147361.44808  21147363.64708
  -6227043.37808  -4852238.84909  20370593.47208  20370595.59409
  -2188404.06608  -1705249.45606  21801315.70008  21801320.13406
  -9994078.77408  -7787589.91708  22505688.82508  22505691.39208
  -2855741.97208  -2225245.36608  22444563.16008  22444563.86308
 94 01 25 03 15 00.0000000  0  5 02 07 13 26 27
  -4945939.03208  -3853971.38108  21151551.74608  21151553.92908
  -6212353.93508  -4840792.52309  20373388.94408  20373391.14209
  -2274352.65408  -1772222.38006  21784960.36408  21784964.37906
  -9969720.57708  -7768609.49308  22510324.20308  22510326.84808
  -2760707.53808  -2151192.58708  22462647.81608  22462648.66008
 94 01 25 03 15 30.0000000  0  5 02 07 13 26 27
  -4923789.00408  -3836711.60808  21155766.78108  21155769.07808
  -6197243.40409  -4829018.07009  20376264.29609  20376266.49209
  -2359893.97908  -1838877.93806  21768682.40408  21768684.55106
  -9944894.78808  -7749264.71808  22515048.54108  22515051.38608
  -2665404.98908  -2076930.89608  22480783.35908  22480784.48108
 94 01 25 03 16 00.0000000  0  5 02 07 09 26 27
  -4901508.75109  -3819350.36708  21160006.70609  21160008.86908
  -6181689.81109  -4816898.37809  20379224.15009  20379226.23409
         0.35317        -0.19617  24157240.24217  24157241.88717
  -9919596.29208  -7729551.61708  22519862.75708  22519865.62908
  -2569820.28008  -2002449.32708  22498972.43708  22498973.72008
 94 01 25 03 16 30.0000000  0  5 02 07 09 26 27
  -4879109.05209  -3801896.05308  21164269.39109  21164271.31408
  -6165685.27809  -4804427.31109  20382269.89509  20382271.71709
    -98610.93907    -76840.14807  24138475.20507  24138476.81307
  -9893841.86208  -7709483.23708  22524763.66608  22524766.46008
  -2473951.69808  -1927746.56708  22517215.45008  22517216.83608
 94 01 25 03 17 00.0000000  0  5 02 07 09 26 27
  -4856529.31309  -3784301.44908  21168566.28509  21168567.96008
  -6149163.63609  -4791553.30509  20385413.91509  20385415.58309
   -197120.30607   -153600.68208  24119729.34207  24119731.14108
  -9867573.84408  -7689014.67208  22529762.59708  22529765.14808
  -2377734.40508  -1852772.06908  22535524.81708  22535526.32108
 94 01 25 03 17 30.0000000  0  6 02 07 09 13 26 27
  -4833770.08509  -3766566.98808  21172897.26409  21172898.87208
  -6132161.85109  -4778305.16209  20388649.12409  20388650.70409
   -295528.60707   -230282.42908  24101002.99707  24101004.75008
        -0.94317        -0.36016  21704409.63117  21704417.54016
  -9840808.62708  -7668158.67208  22534856.31008  22534858.47308
  -2281194.03108  -1777545.82208  22553895.70808  22553897.23208
 94 01 25 03 18 00.0000000  0  6 02 07 09 13 26 27
  -4810829.95309  -3748691.56308  21177262.68109  21177264.27508
  -6114729.64908  -4764721.62609  20391966.27408  20391967.96609
   -393849.57207   -306896.12608  24082292.78607  24082294.65708
    -83287.85607    -64899.36706  21688560.72007  21688566.53706
  -9813577.19807  -7646939.38508  22540038.13507  22540040.29808
  -2184359.66008  -1702090.47608  22572322.74008  22572324.21408
 94 01 25 03 18 30.0000000  0  6 02 07 09 13 26 27
  -4787697.68209  -3730666.41408  21181664.42509  21181666.14508
  -6096875.57308  -4750809.35109  20395363.64008  20395365.51609
   -492074.03107   -383434.62608  24063601.42807  24063603.16608
   -166127.29207   -129449.64906  21672797.19707  21672801.67806
  -9785865.19607  -7625345.64108  22545311.74707  22545313.72408
  -2087238.38208  -1626411.56808  22590804.11408  22590805.89308
 94 01 25 03 19 00.0000000  0  4 02 07 09 27
  -4764364.83908  -3712484.95308  21186104.44008  21186106.59308
  -6078593.70508  -4736563.71009  20398842.38308  20398844.42509
   -590202.90107   -459898.60708  24044928.11307  24044929.73608
  -1989842.45708  -1550518.62308  22609337.80108  22609339.95108
 94 01 25 03 19 30.0000000  0  5 02 07 09 26 27
  -4740869.31908  -3694176.76708  21190575.39908  21190577.64108
  -6059918.30308  -4722011.45909  20402396.20908  20402398.22709
   -688275.27408   -536318.59608  24026265.36408  24026267.05708
        -0.19617        -0.27118  22556132.21417  22556134.88918
  -1892220.56208  -1474449.64208  22627914.60808  22627917.01808
 94 01 25 03 20 00.0000000  0  6 02 07 09 13 26 27
  -4717188.13308  -3675723.89208  21195081.72208  21195083.74808
  -6040799.72008  -4707113.84909  20406034.41908  20406036.49409
   -786246.24708   -612659.56708  24007621.71908  24007623.72208
        -0.27817        -0.32317  21626001.93217  21626005.38217
     29160.42907     22722.28808  22561681.61507  22561684.01108
  -1794332.13008  -1398172.95608  22646542.12508  22646544.67508
 94 01 25 03 20 30.0000000  0  6 02 07 09 13 26 27
  -4693340.23908  -3657141.11808  21199619.73208  21199621.82708
  -6021227.38208  -4691862.66409  20409758.92208  20409760.98209
   -884118.60207   -688923.66608  23988996.98407  23988999.29608
    -81060.33607    -63164.01607  21610577.34507  21610579.80507
     58811.67807     45827.14808  22567324.39107  22567326.67608
  -1696171.56408  -1321684.20608  22665221.49808  22665223.96508
 94 01 25 03 21 00.0000000  0  6 02 07 09 13 26 27
  -4669332.36108  -3638433.67508  21204188.24008  21204190.60608
  -6001210.10108  -4676264.77309  20413568.26708  20413570.15709
   -981900.20507   -765117.09208  23970389.22507  23970391.88308
   -161658.37108   -125967.66807  21595239.78908  21595242.29307
     88915.03407     69284.31408  22573052.88007  22573055.13608
  -1597738.13908  -1244982.84708  22683952.87508  22683955.22108
 94 01 25 03 21 30.0000000  0  6 02 07 09 13 26 27
  -4645176.11808  -3619610.62608  21208785.04908  21208787.43108
  -5980772.31308  -4660339.22309  20417457.62108  20417459.35309
  -1079580.12407   -841231.30208  23951800.83607  23951804.23808
   -241790.02908   -188407.89407  21579991.57308  21579994.06007
    119460.60007     93086.05608  22578865.57407  22578867.64008
  -1499029.65908  -1168067.14608  22702736.77908  22702739.02208
 94 01 25 03 22 00.0000000  0  6 02 07 09 13 26 27
  -4620851.03108  -3600656.01208  21213413.99608  21213416.23908
  -5959902.05408  -4644076.67909  20421428.86308  20421430.65409
  -1177148.63607   -917258.67308  23933233.88907  23933237.48908
   -321444.63908   -250476.39108  21564833.76508  21564836.61608
    150449.77807    117233.47208  22584762.30407  22584764.59308
  -1400024.44308  -1090920.24908  22721577.12408  22721579.18408
 94 01 25 03 22 30.0000000  0  6 02 07 09 13 26 27
  -4596334.09709  -3581551.91408  21218079.55509  21218081.56408
  -5938602.58708  -4627479.68909  20425481.68808  20425483.57909
  -1274620.41407   -993210.70908  23914686.26107  23914689.00308
   -400621.00208   -312172.22708  21549766.78108  21549769.92908
    181885.54107    141728.89208  22590744.06807  22590746.66408
  -1300722.64908  -1013542.24908  22740473.84608  22740475.71408
 94 01 25 03 23 00.0000000  0  6 02 07 09 13 26 27
  -4571608.95909  -3562285.58408  21222784.61109  21222786.60708
  -5916894.13108  -4610564.00608  20429612.55008  20429614.55108
  -1372001.70408  -1069092.21008  23896155.69408  23896157.93408
   -479317.91908   -373494.46208  21534791.31508  21534794.25208
    213781.83907    166583.16108  22596813.93907  22596816.44108
  -1201147.36708   -935951.16108  22759422.46808  22759424.35208
 94 01 25 03 23 30.0000000  0  6 02 07 09 13 26 27
  -4546676.77009  -3542857.91108  21227529.06309  21227531.13408
  -5894780.81908  -4593332.84308  20433820.69508  20433822.61308
  -1469294.75808  -1144904.95808  23877641.73608  23877643.53808
   -557529.69408   -434438.68708  21519907.82308  21519911.02208
    246174.16206    191823.94808  22602977.69606  22602980.52608
  -1101297.65008   -858146.21908  22778423.35608  22778425.01408
 94 01 25 03 24 00.0000000  0  5 02 07 09 13 27
  -4521554.91809  -3523282.43808  21232309.51209  21232311.64808
  -5872283.54708  -4575802.50208  20438101.98708  20438103.83308
  -1566545.46008  -1220684.71408  23859135.54708  23859137.31508
   -635283.10108   -495025.76908  21505111.43208  21505115.01408
  -1001192.97208   -780142.61208  22797472.50808  22797474.43808
 94 01 25 03 24 30.0000000  0  5 02 07 09 13 27
  -4496265.31609  -3503576.25708  21237122.14309  21237124.08408
  -5849423.48808  -4557989.47309  20442452.01308  20442453.81409
  -1663751.36608  -1296429.54408  23840638.09408  23840639.55008
   -712584.00308   -555260.22808  21490401.51208  21490405.19008
   -900847.75508   -701951.56108  22816567.49708  22816569.45008
 94 01 25 03 25 00.0000000  0  5 02 07 09 13 27
  -4470780.32208  -3483717.82408  21241971.67608  21241973.54008
  -5826142.46908  -4539848.41409  20446882.17208  20446884.20409
  -1760846.52608  -1372088.08608  23822161.56808  23822162.97908
   -789383.95708   -615104.32608  21475786.85408  21475790.65908
   -800203.98308   -623527.87908  22835719.32108  22835721.33308
 94 01 25 03 25 30.0000000  0  5 02 07 09 13 27
  -4445108.95509  -3463714.17008  21246856.70909  21246858.57808
  -5802424.55808  -4521366.91709  20451395.40008  20451397.66809
  -1857806.36908  -1447641.19108  23803710.72408  23803711.86008
   -865681.26508   -674556.76008  21461267.86008  21461271.68108
   -699238.61408   -544853.58408  22854932.23108  22854934.65408
 94 01 25 03 26 00.0000000  0  5 02 07 09 13 27
  -4419266.47109  -3443577.16708  21251774.37109  21251776.38608
  -5778264.68708  -4502541.02909  20455993.04508  20455995.39709
  -1954623.38108  -1523082.99608  23785286.88808  23785288.25508
   -941491.30808   -733629.50008  21446841.67708  21446845.37208
   -597976.61408   -465948.14308  22874201.63008  22874204.16108
 94 01 25 03 26 30.0000000  0  6 02 07 09 13 26 27
  -4393271.16909  -3423321.08508  21256721.27409  21256723.15108
  -5753666.89808  -4483373.90309  20460674.02408  20460676.28509
  -2051297.11208  -1598413.15308  23766890.32708  23766891.93708
  -1016828.46108   -792333.76108  21432505.56308  21432509.18508
        -0.16317         0.03818  22641856.48517  22641857.04318
   -496448.28308   -386835.17908  22893521.59708  22893524.49208
 94 01 25 03 27 00.0000000  0  6 02 07 09 13 26 27
  -4367133.14609  -3402953.79008  21261695.20409  21261696.86508
  -5728650.79909  -4463880.82709  20465434.53709  20465436.66109
  -2147850.84608  -1673649.82808  23748516.56408  23748518.23208
  -1091716.30408   -850687.90208  21418254.84008  21418258.53308
     35597.62107     27738.56508  22648630.36807  22648631.17308
   -394680.05808   -307535.28707  22912887.19908  22912890.28407
 94 01 25 03 27 30.0000000  0  6 02 07 09 13 26 27
  -4340844.27409  -3382468.95508  21266697.74909  21266699.32308
  -5703224.70109  -4444068.27709  20470273.02809  20470275.04209
  -2244283.28608  -1748791.97208  23730165.86908  23730167.56908
  -1166148.78308   -908687.21508  21404090.81708  21404094.42808
     71592.65708     55786.67708  22655479.06508  22655480.62508
   -292690.49308   -228062.92007  22932295.06308  22932298.19807
 94 01 25 03 28 00.0000000  0  6 02 07 09 13 26 27
  -4314401.86309  -3361864.47908  21271729.44409  21271731.01708
  -5677390.71309  -4423937.89709  20475189.04209  20475190.97209
  -2340623.28908  -1823862.08508  23711833.10908  23711834.50908
  -1240121.86108   -966328.55208  21390013.93708  21390017.83408
    107989.18808     84147.63408  22662404.96108  22662406.66308
   -190502.72507   -148436.11507  22951740.68107  22951743.47507
 94 01 25 03 28 30.0000000  0  6 02 07 09 13 26 27
  -4287793.40809  -3341130.61508  21276792.74009  21276794.49508
  -5651157.96909  -4403496.79509  20480180.91509  20480182.84809
  -2436877.42608  -1898865.28808  23693516.47508  23693517.93208
  -1313622.75508  -1023601.94908  21376027.05308  21376031.05908
    144802.34808    112833.22008  22669410.12408  22669411.81108
    -88098.80107    -68640.86307  22971227.24807  22971229.90707
 94 01 25 03 29 00.0000000  0  6 02 07 09 13 26 27
  -4261000.99609  -3320253.40508  21281891.22109  21281893.11208
  -5624527.98308  -4382746.14609  20485248.27408  20485250.38109
  -2533018.71408  -1973780.54108  23675221.44108  23675222.75808
  -1386627.04708  -1080488.39408  21362134.72708  21362138.76208
    182057.39408    141863.13308  22676499.47008  22676501.17708
     14546.85907     11342.74507  22990759.86707  22990762.78707
 94 01 25 03 29 30.0000000  0  6 02 07 09 13 26 27
  -4234013.75509  -3299224.37908  21287026.84809  21287028.59208
  -5597489.94008  -4361677.52509  20490393.05708  20490395.35809
  -2629038.52508  -2048601.14708  23656949.41108  23656950.91308
  -1459118.37508  -1136975.14608  21348340.21708  21348344.09208
    219768.57808    171248.48008  22683675.70408  22683677.65708
    117452.36807     91528.85707  23010341.80307  23010345.40507
 94 01 25 03 30 00.0000000  0  5 02 07 09 13 26
  -4206814.56209  -3278030.20308  21292202.84709  21292204.47408
  -5570043.63708  -4340290.78209  20495615.94808  20495618.24309
  -2724934.88108  -2123325.53908  23638700.76208  23638702.42208
  -1531089.90208  -1193056.85808  21334644.68608  21334648.28408
    257949.31208    200999.69708  22690941.14508  22690943.06408
 94 01 25 03 30 30.0000000  0  5 02 07 09 13 26
  -4179418.05809  -3256682.28108  21297416.14109  21297418.01308
  -5542217.92008  -4318608.39909  20500911.15808  20500913.14409
  -2820701.75908  -2197949.04108  23620476.74208  23620478.35708
  -1602559.48608  -1248747.45708  21321044.65708  21321048.10308
    296588.48208    231108.13608  22698293.85008  22698295.98208
 94 01 25 03 31 00.0000000  0  5 02 07 09 13 26
  -4151853.51009  -3235203.40908  21302661.33409  21302663.37008
  -5514033.35308  -4296646.39808  20506274.53808  20506276.23508
  -2916354.86908  -2272483.90808  23602274.35208  23602276.16808
  -1673550.00208  -1304064.75208  21307535.76108  21307538.87008
    335655.50008    261549.94808  22705728.28308  22705730.32108
 94 01 25 03 31 30.0000000  0  6 02 07 09 12 13 26
  -4124081.82809  -3213563.13708  21307946.19809  21307948.09208
  -5485443.64608  -4274368.70208  20511714.94008  20511716.67708
  -3011871.66308  -2346912.55808  23584098.20208  23584100.11608
         0.37716         0.03416  24622819.34816  24622825.45016
  -1744027.43108  -1358982.23508  21294124.44308  21294127.47408
    375180.27008    292348.45408  22713249.69808  22713251.55308
 94 01 25 03 32 00.0000000  0  5 02 07 09 13 26
  -4096011.49109  -3191690.15208  21313287.84009  21313289.55908
  -5456355.48708  -4251702.60508  20517250.33908  20517252.08808
  -3107146.92008  -2421152.99608  23565967.75308  23565969.50808
  -1813897.34408  -1413426.30808  21280828.67308  21280831.72608
    415254.31908    323574.95808  22720875.29808  22720877.32808
 94 01 25 03 32 30.0000000  0  5 02 07 09 13 26
  -4067693.38209  -3169624.10108  21318676.59109  21318678.20208
  -5426815.95808  -4228684.78509  20522871.58308  20522873.47509
  -3202214.65408  -2495231.73808  23547876.89808  23547878.58908
  -1883202.20108  -1467430.07508  21267640.41008  21267643.50808
    455825.25207    355188.64108  22728595.34707  22728597.99608
 94 01 25 03 33 00.0000000  0  5 02 07 09 13 26
  -4039400.34408  -3147577.58608  21324060.32608  21324062.19008
  -5397089.19908  -4205521.07609  20528528.39008  20528530.33409
  -3297352.32308  -2569364.96408  23529772.75108  23529774.68908
  -1952211.73208  -1521203.72408  21254508.30008  21254511.53008
    496607.51807    386966.98408  22736355.76307  22736358.70608
 94 01 25 03 33 30.0000000  0  5 02 07 09 13 26
  -4010991.37708  -3125440.73108  21329466.49608  21329468.43608
  -5367048.11008  -4182112.42409  20534244.97108  20534247.02209
  -3392428.08508  -2643449.95608  23511680.29208  23511682.22708
  -2020791.34208  -1574642.37308  21241458.06008  21241461.20008
    537724.86307    419006.40807  22744180.50507  22744182.84107
 94 01 25 03 34 00.0000000  0  5 02 07 09 13 26
  -3982413.09508  -3103171.94308  21334904.80608  21334906.72208
  -5336638.19308  -4158416.37409  20540031.79008  20540033.84309
  -3487371.43008  -2717431.77208  23493613.14608  23493615.25608
  -2088880.04208  -1627698.48908  21228501.15908  21228504.37608
    579219.05307    451339.50607  22752077.51107  22752078.70107
 94 01 25 03 34 30.0000000  0  5 02 07 09 13 26
  -3953640.76608  -3080751.95008  21340379.98908  21340381.88108
  -5305825.50508  -4134406.47709  20545895.25808  20545897.24609
  -3582153.97108  -2791288.28308  23475576.58108  23475578.88908
  -2156443.97708  -1680345.69208  21215644.19008  21215647.41808
    621119.12707    483988.93707  22760050.93507  22760051.94407
 94 01 25 03 35 00.0000000  0  5 02 07 09 13 26
  -3924691.65708  -3058194.20708  21345888.74908  21345890.69008
  -5274607.57308  -4110080.80809  20551835.88008  20551837.76709
  -3676793.30108  -2865033.21008  23457566.95708  23457569.75108
  -2223493.25008  -1732591.86308  21202885.22508  21202888.26208
    663413.03407    516945.24307  22768099.41207  22768100.69507
 94 01 25 03 35 30.0000000  0  5 02 07 09 13 26
  -3895555.61508  -3035490.79508  21351433.16908  21351435.06208
  -5242977.31709  -4085433.85009  20557855.00209  20557856.86109
  -3771266.22108  -2938648.47608  23439589.56608  23439592.23608
  -2290008.79208  -1784422.12708  21190227.73108  21190230.85408
    706126.69507    550228.66607  22776227.91707  22776228.68307
 94 01 25 03 36 00.0000000  0  5 02 07 09 13 26
  -3866217.13108  -3012629.62608  21357016.21508  21357018.03608
  -5210904.20009  -4060441.80809  20563958.40109  20563960.35609
  -3865551.32508  -3012117.39508  23421648.07108  23421650.40008
  -2355970.56508  -1835820.89608  21177675.63408  21177678.80908
    749292.61207    583864.44007  22784441.59707  22784442.82607
 94 01 25 03 36 30.0000000  0  5 02 07 09 13 26
  -3836667.07308  -2989603.60708  21362639.24608  21362641.20908
  -5178384.62209  -4035101.87009  20570146.72709  20570148.64609
  -3959647.57508  -3085439.14108  23403742.04608  23403744.36708
  -2421374.41108  -1886784.91508  21165229.64008  21165232.93008
    792929.67307    617867.31107  22792745.51407  22792747.00807
 94 01 25 03 37 00.0000000  0  5 02 07 09 13 26
  -3806878.07708  -2966391.39708  21368307.93908  21368309.76608
  -5145410.22809  -4009407.53309  20576421.38709  20576423.47209
  -4053538.62408  -3158600.98308  23385875.40208  23385877.25308
  -2486204.63808  -1937301.95108  21152892.88508  21152896.15708
    837049.86507    652246.64507  22801141.09707  22801142.80307
 94 01 25 03 37 30.0000000  0  5 02 07 09 13 26
  -3776842.84608  -2942987.32408  21374023.62908  21374025.17908
  -5112000.70908  -3983374.13109  20582778.97408  20582781.23709
  -4147208.31508  -3231590.32608  23368050.78608  23368052.29708
  -2550460.46808  -1987371.40708  21140665.37508  21140668.63408
    881647.73807    686998.19407  22809627.31407  22809629.34707
 94 01 25 03 38 00.0000000  0  5 02 07 09 13 26
  -3746545.84309  -2919379.27908  21379789.05609  21379790.42208
  -5078150.33908  -3956997.20909  20589220.32808  20589222.65909
  -4240647.87808  -3304400.34508  23350269.76108  23350270.86708
  -2614138.07808  -2036990.30308  21128547.91708  21128551.21308
    926715.91707    722116.23808  22818204.05307  22818205.63408
 94 01 25 03 38 30.0000000  0  5 02 07 09 13 26
  -3716006.92808  -2895582.72908  21385600.37908  21385601.78208
  -5043906.42808  -3930313.63009  20595736.73308  20595739.03809
  -4333876.94008  -3377046.32608  23332528.86208  23332529.53308
  -2677258.00308  -2086174.63608  21116536.55008  21116539.77608
    972225.94007    757578.59308  22826864.52707  22826866.33908
 94 01 25 03 39 00.0000000  0  5 02 07 09 13 26
  -3685237.46508  -2871606.52008  21391455.35208  21391456.91008
  -5009303.61208  -3903350.38709  20602321.29608  20602323.48309
  -4426905.02508  -3449535.69508  23314826.01108  23314826.74208
  -2739835.44508  -2134936.25608  21104628.42008  21104631.59608
   1018146.01407    793360.44208  22835602.72007  22835604.71908
 94 01 25 03 39 30.0000000  0  5 02 07 09 13 26
  -3654255.28108  -2847464.56008  21397350.99608  21397352.62108
  -4974361.71108  -3876122.92308  20608970.40908  20608972.44608
  -4519741.33108  -3521875.64208  23297159.56008  23297161.05308
  -2801882.36508  -2183284.49008  21092821.18508  21092824.31308
   1064468.30607    829455.69708  22844417.06907  22844419.49008
 94 01 25 03 40 00.0000000  0  4 02 07 09 13
  -3623101.68608  -2823189.02308  21403279.34108  21403281.04408
  -4939117.12208  -3848659.57708  20615677.21908  20615679.20508
  -4612438.79208  -3594107.39208  23279519.67408  23279521.41908
  -2863435.16708  -2231247.67208  21081108.08808  21081111.08308
 94 01 25 03 40 30.0000000  0  6 02 07 09 12 13 26
  -3591769.97608  -2798774.72908  21409241.57808  21409243.51608
  -4903557.93608  -3820951.15008  20622444.05808  20622445.68708
  -4704982.23908  -3666219.18108  23261909.24608  23261911.35808
        -0.00518         0.05216  24310115.41218  24310128.07616
  -2924478.26808  -2278813.73308  21069491.99908  21069494.85508
        -0.08017        -0.30917  22862254.85017  22862257.65417
 94 01 25 03 41 00.0000000  0  6 02 07 09 12 13 26
  -3560213.89308  -2774185.57408  21415246.55408  21415248.51308
  -4867603.40008  -3792934.63908  20629286.05308  20629287.54308
  -4797312.58208  -3738164.90008  23244339.58408  23244341.73808
    -91305.95308    -71147.44506  24292740.85308  24292750.86706
  -2984955.54808  -2325938.87608  21057983.47108  21057986.36308
     47470.01607     36989.31707  22871288.28807  22871290.87607
 94 01 25 03 41 30.0000000  0  6 02 07 09 12 13 26
  -3528521.62508  -2749490.28808  21421277.30408  21421279.41508
  -4831301.72308  -3764647.61008  20636194.05008  20636195.67708
  -4889498.97508  -3809998.43708  23226797.38108  23226799.55408
   -182653.94707   -142327.70407  24275357.75907  24275365.88607
  -3044937.60708  -2372678.12108  21046569.08008  21046572.21308
     95285.15807     74247.83907  22880386.92907  22880389.80507
 94 01 25 03 42 00.0000000  0  6 02 07 09 12 13 26
  -3496857.53808  -2724816.96708  21427302.91308  21427304.94108
  -4794808.82608  -3736211.57108  20643138.33908  20643140.15808
  -4981701.83708  -3881844.79208  23209252.06108  23209254.15408
   -274207.51407   -213668.11407  24257935.66207  24257943.09407
  -3104588.55808  -2419159.34908  21035217.74008  21035221.03908
    143268.40206    111637.35407  22889517.67906  22889520.81807
 94 01 25 03 42 30.0000000  0  6 02 07 09 12 13 26
  -3465081.67008  -2700056.55408  21433349.59208  21433351.67608
  -4757984.54508  -3707517.32008  20650145.89908  20650147.73608
  -5073766.36008  -3953583.35208  23191732.75008  23191734.77508
   -365827.78907   -285060.53107  24240500.51507  24240507.36507
  -3163769.47908  -2465274.32608  21023955.92808  21023959.28308
    191566.50806    149272.19207  22898708.40206  22898712.19407
 94 01 25 03 43 00.0000000  0  6 02 07 09 12 13 26
  -3433114.21608  -2675146.85108  21439432.52808  21439434.86808
  -4720759.69408  -3678510.95109  20657229.71408  20657231.56809
  -5165627.70408  -4025163.59108  23174252.30908  23174254.07208
   -457441.60407   -356447.94407  24223066.52807  24223072.15707
  -3222407.90108  -2510966.58308  21012797.52908  21012800.69008
    240258.72406    187214.13207  22907974.05906  22907978.06407
 94 01 25 03 43 30.0000000  0  5 02 07 09 12 13
  -3400927.42508  -2650066.22308  21445557.42508  21445559.67708
  -4683141.37908  -3649197.97309  20664388.23808  20664390.12509
  -5257267.22108  -4096570.98108  23156813.74108  23156815.45808
   -549030.45807   -427815.90007  24205637.67107  24205642.27607
  -3280485.92208  -2556222.16408  21001745.74608  21001748.66908
 94 01 25 03 44 00.0000000  0  5 02 07 09 12 13
  -3368474.50908  -2624778.22908  21451733.18608  21451735.21208
  -4645133.26708  -3619581.25609  20671621.07508  20671622.93509
  -5348661.49708  -4167787.26608  23139421.79608  23139423.39408
   -640569.11907   -499144.73808  24188218.02107  24188222.23008
  -3337978.60108  -2601021.63908  20990805.26008  20990808.07908
 94 01 25 03 44 30.0000000  0  5 02 07 09 12 13
  -3335719.51108  -2599254.86208  21457966.26808  21457968.34108
  -4606713.14808  -3589643.49909  20678932.16008  20678934.04609
  -5439790.20808  -4238796.63108  23122080.10308  23122081.71508
   -732029.95107   -570412.94508  24170813.38507  24170817.81808
  -3394858.91108  -2645343.95308  20979981.28208  20979984.06508
 94 01 25 03 45 00.0000000  0  5 02 07 09 12 13
  -3302714.37108  -2573536.56908  21464246.77608  21464248.84708
  -4567932.46008  -3559424.78009  20686311.67508  20686313.68909
  -5530708.65007  -4309642.15708  23104778.66007  23104780.37908
   -823459.36707   -641656.64208  24153414.73307  24153419.55908
  -3451174.16408  -2689225.95308  20969264.75108  20969267.59408
 94 01 25 03 45 30.0000000  0  5 02 07 09 12 13
  -3269480.01508  -2547639.67208  21470571.18508  21470573.27308
  -4528814.00708  -3528942.86009  20693755.44408  20693757.60309
  -5621423.73808  -4380329.22008  23087515.79608  23087517.75608
   -914875.26507   -712889.79308  24136018.65607  24136023.67608
  -3506942.09808  -2732681.47308  20958652.50808  20958655.31608
 94 01 25 03 46 00.0000000  0  6 02 07 09 12 13 26
  -3236034.49408  -2521578.23508  21476935.78808  21476937.99108
  -4489373.49008  -3498209.97809  20701260.50208  20701262.95309
  -5711953.83608  -4450872.14808  23070288.71108  23070290.64208
  -1006295.08007   -784126.02208  24118621.99407  24118626.91708
  -3562181.37308  -2775725.05808  20948140.90308  20948143.73508
        -0.04117         0.40316  22965249.43017  22965251.81216
 94 01 25 03 46 30.0000000  0  6 02 07 09 12 13 26
  -3202448.22708  -2495407.13708  21483327.04108  21483329.08908
  -4449640.07408  -3467248.87209  20708821.49408  20708823.99209
  -5802341.80608  -4521304.32908  23053088.72908  23053090.48108
  -1097763.28507   -855399.93908  24101215.97807  24101220.96308
  -3616936.97108  -2818391.75108  20937721.39108  20937724.10908
     51379.50107     40036.42306  22975026.50807  22975027.90706
 94 01 25 03 47 00.0000000  0  6 02 07 09 12 13 26
  -3168768.01608  -2469162.82308  21489736.15108  21489738.20108
  -4409657.11308  -3436093.31309  20716430.19408  20716432.56609
  -5892617.20508  -4591648.79708  23035910.17608  23035911.77008
  -1189310.07808   -926735.10008  24083795.23708  24083799.91408
  -3671239.75908  -2860705.60908  20927387.92208  20927390.66308
    103011.25908     80268.94306  22984851.79808  22984853.46106
 94 01 25 03 47 30.0000000  0  6 02 07 09 12 13 26
  -3134925.30108  -2442791.88408  21496176.46708  21496178.58408
  -4369366.31808  -3404697.88009  20724097.27108  20724099.68009
  -5982712.88708  -4661853.22108  23018765.68508  23018767.56008
  -1280870.45508   -998080.83208  24066371.41808  24066376.18408
  -3725025.63308  -2902616.66208  20917152.80808  20917155.57008
    154976.08808    120761.01606  22994740.45908  22994741.70506
 94 01 25 03 48 00.0000000  0  6 02 07 09 12 13 26
  -3100909.34008  -2416285.94308  21502649.49708  21502651.72408
  -4328743.57808  -3373043.78909  20731827.33608  20731829.65309
  -6072606.45908  -4731900.14908  23001659.51008  23001661.48408
  -1372419.26508  -1069417.54708  24048950.17508  24048954.79708
  -3778270.20008  -2944105.90208  20907020.68808  20907023.57908
    207303.07008    161535.30106  23004697.86508  23004698.76606
 94 01 25 03 48 30.0000000  0  6 02 07 09 12 13 26
  -3066726.12908  -2389649.67408  21509154.16608  21509156.54708
  -4287778.91708  -3341123.27209  20739622.79908  20739624.90909
  -6162294.10608  -4801786.63808  22984592.45808  22984594.50308
  -1463946.59208  -1140737.52808  24031532.66708  24031537.35708
  -3830964.36008  -2985166.26408  20896993.34008  20896996.20808
    259994.50508    202593.54606  23014724.76508  23014724.63906
 94 01 25 03 49 00.0000000  0  6 02 07 09 12 13 26
  -3032358.00008  -2362869.31308  21515694.07708  21515696.54208
  -4246473.47208  -3308937.20508  20747483.17008  20747485.03908
  -6251770.53208  -4871508.52808  22967565.49008  22967567.73808
  -1555446.33608  -1212036.01008  24014121.01308  24014125.28108
  -3883102.75808  -3025793.56408  20887071.68308  20887074.68008
    313059.22307    243942.69006  23024822.65307  23024822.56906
 94 01 25 03 49 30.0000000  0  6 02 07 09 12 13 26
  -2997784.30808  -2335928.79108  21522273.18408  21522275.68108
  -4204803.21209  -3276466.87908  20755412.80109  20755414.58708
  -6341016.35208  -4941050.73508  22950582.39708  22950584.71008
  -1646907.00608  -1283304.04708  23996716.26808  23996720.83808
  -3934674.68708  -3065979.46308  20877257.83708  20877260.89508
    366502.06507    285586.45806  23034991.84207  23034993.56606
 94 01 25 03 50 00.0000000  0  6 02 07 09 12 13 26
  -2963011.16308  -2308832.85208  21528890.18008  21528892.88008
  -4162768.39909  -3243712.48308  20763411.79609  20763413.63808
  -6430033.21208  -5010414.51508  22933643.05708  22933645.12608
  -1738328.93308  -1354541.89708  23979319.14808  23979323.60508
  -3985681.72808  -3105725.19408  20867551.49208  20867554.58008
    420310.59107    327515.14606  23045231.01207  23045233.19706
 94 01 25 03 50 30.0000000  0  6 02 07 09 12 13 26
  -2928012.46208  -2281561.13508  21535550.10208  21535553.00508
  -4120362.12009  -3210668.63509  20771481.59009  20771483.35209
  -6518811.21108  -5079592.17908  22916749.59508  22916751.02308
  -1829705.84708  -1425744.68408  23961930.81708  23961935.23508
  -4036118.38208  -3145026.45808  20857953.72508  20857956.76308
    474490.37307    369733.17506  23055541.56907  23055543.46406
 94 01 25 03 51 00.0000000  0  6 02 07 09 12 13 26
  -2892763.26408  -2254094.23008  21542257.83608  21542260.81708
  -4077585.36109  -3177336.09309  20779621.67409  20779623.52209
  -6607335.00908  -5148571.76408  22899904.05208  22899904.92508
  -1921034.56608  -1496909.90808  23944551.66108  23944555.92408
  -4085982.31208  -3183881.44908  20848464.91408  20848467.87008
    529043.54407    412242.11406  23065922.39907  23065924.88606
 94 01 25 03 51 30.0000000  0  6 02 07 09 12 13 26
  -2857274.84708  -2226440.93308  21549011.13208  21549013.90908
  -4034464.33008  -3143735.29209  20787827.11308  20787828.99109
  -6695611.86908  -5217358.92108  22883105.46808  22883106.13908
  -2012325.04208  -1568045.34108  23927179.90308  23927183.99708
  -4135284.50509  -3222298.72608  20839082.97009  20839085.77108
    583937.88207    455016.85906  23076368.15407  23076370.55806
 94 01 25 03 52 00.0000000  0  6 02 07 09 12 13 26
  -2821574.53908  -2198622.51208  21555804.83008  21555807.46608
  -3991031.84408  -3109891.79109  20796092.00308  20796093.97209
  -6783654.14908  -5285963.28108  22866351.34008  22866352.01908
  -2103592.13008  -1639162.53908  23909812.41408  23909816.67008
  -4184041.08909  -3260290.85608  20829804.96309  20829807.53908
    639152.87607    498041.50407  23086874.79507  23086878.08807
 94 01 25 03 52 30.0000000  0  5 02 07 09 12 13
  -2785651.91608  -2170630.86908  21562640.68008  21562643.38008
  -3947290.51108  -3075807.63908  20804415.69108  20804417.73008
  -6871452.40908  -5354377.49208  22849643.79608  22849644.70308
  -2194831.15708  -1710257.87708  23892450.29308  23892454.41508
  -4232248.34809  -3297854.95708  20820631.47309  20820633.86208
 94 01 25 03 53 00.0000000  0  5 02 07 09 12 13
  -2749518.90508  -2142475.29008  21569516.74108  21569519.21908
  -3903250.14808  -3041490.47608  20812796.13708  20812798.29208
  -6959001.55808  -5422597.58508  22832983.59508  22832984.81908
  -2286038.02408  -1781328.15508  23875094.26508  23875098.39008
  -4279903.23709  -3334988.64408  20811562.97609  20811565.40608
 94 01 25 03 53 30.0000000  0  5 02 07 09 12 13
  -2713136.86008  -2114125.65508  21576439.84208  21576442.40608
  -3858860.91008  -3006901.45708  20821242.96308  20821245.12408
  -7046240.91208  -5490576.30308  22816382.50908  22816383.93908
  -2377155.04808  -1852328.41108  23857755.17008  23857759.29508
  -4326949.37809  -3371647.97108  20802610.33209  20802612.90908
 94 01 25 03 54 00.0000000  0  5 02 07 09 12 13
  -2676552.17508  -2085618.10908  21583401.75108  21583404.23008
  -3814156.48308  -2972066.83508  20829750.00808  20829752.21408
  -7133217.57208  -5558350.31508  22799831.59908  22799833.21808
  -2468224.60108  -1923291.68308  23840425.26108  23840429.16808
  -4373430.53309  -3407867.04808  20793765.22309  20793767.97308
 94 01 25 03 54 30.0000000  0  5 02 07 09 12 13
  -2639775.17108  -2056960.71008  21590400.33808  21590402.57408
  -3769153.87208  -2936999.86309  20838313.69408  20838316.00509
  -7219966.88608  -5625947.17508  22783323.90308  22783325.70008
  -2559271.05508  -1994236.95508  23823099.76608  23823103.31608
  -4419371.92809  -3443665.52908  20785022.83909  20785025.62908
 94 01 25 03 55 00.0000000  0  5 02 07 09 12 13
  -2602840.08808  -2028180.13408  21597428.65208  21597430.95308
  -3723874.24208  -2901717.02809  20846930.18208  20846932.41909
  -7306513.32808  -5693385.95008  22766854.77808  22766856.64608
  -2650317.13708  -2065181.92908  23805774.30508  23805777.48908
  -4464797.82509  -3479062.32308  20776378.55409  20776381.27108
 94 01 25 03 55 30.0000000  0  5 02 07 09 12 13
  -2565722.41708  -1999257.28108  21604491.90308  21604494.31308
  -3678290.89408  -2866197.54209  20855604.37108  20855606.50509
  -7392845.41808  -5760657.70008  22750426.63908  22750428.49308
  -2741344.69508  -2136112.47208  23788452.24208  23788455.05808
  -4509691.34409  -3514044.27808  20767835.58609  20767838.20708
 94 01 25 03 56 00.0000000  0  5 02 07 09 12 13
  -2528409.97208  -1970182.64908  21611592.27108  21611594.62008
  -3632397.98508  -2830436.83509  20864337.56508  20864339.63409
  -7478969.39608  -5827767.29108  22734037.72408  22734039.61108
  -2832353.49308  -2207028.37708  23771133.85708  23771136.37008
  -4554053.31209  -3548612.03808  20759393.81909  20759396.23308
 94 01 25 03 56 30.0000000  0  5 02 07 09 12 13
  -2490887.19808  -1940944.13808  21618732.81208  21618734.88908
  -3586197.82808  -2794436.71009  20873129.18108  20873131.25809
  -7564866.59608  -5894700.18608  22717692.00208  22717693.91208
  -2923335.77708  -2277923.63008  23753820.46708  23753822.94408
  -4597877.65609  -3582760.88308  20751054.30909  20751056.69308
 94 01 25 03 57 00.0000000  0  5 02 07 09 12 13
  -2453152.31308  -1911540.34008  21625913.56208  21625915.57908
  -3539698.01108  -2758203.09409  20881977.79308  20881980.01809
  -7650510.60808  -5961435.77208  22701394.43408  22701396.43808
  -3014278.02908  -2348787.69308  23736514.60808  23736517.46408
  -4641152.05809  -3616481.19108  20742819.50909  20742821.91708
 94 01 25 03 57 30.0000000  0  5 02 07 09 12 13
  -2415198.50208  -1881965.94208  21633135.89208  21633138.08908
  -3492900.45608  -2721737.46208  20890883.27108  20890885.36808
  -7735905.23908  -6027977.04208  22685144.40708  22685146.39608
  -3105179.18208  -2419619.73708  23719216.49408  23719220.00308
  -4683877.07508  -3649773.40208  20734689.17208  20734691.70408
 94 01 25 03 58 00.0000000  0  5 02 07 09 12 13
  -2377027.90408  -1852222.62108  21640399.46108  21640401.57108
  -3445815.47908  -2685047.87508  20899843.50108  20899845.38108
  -7821040.92008  -6094316.53308  22668943.73708  22668945.42708
  -3196034.87808  -2490416.37808  23701927.56108  23701930.83508
  -4726049.73508  -3682635.20108  20726663.95208  20726666.67608
 94 01 25 03 58 30.0000000  0  5 02 07 09 12 13
  -2338655.80708  -1822322.29708  21647701.66408  21647703.45508
  -3398456.63008  -2648144.87908  20908855.75008  20908857.53908
  -7905915.28208  -6160452.39308  22652792.61708  22652794.18908
  -3286844.59008  -2561177.19408  23684647.22808  23684650.71208
  -4767670.90108  -3715067.26108  20718743.65508  20718746.52308
 94 01 25 03 59 00.0000000  0  5 02 07 09 12 13
  -2300103.74508  -1792281.74108  21655037.78208  21655039.69308
  -3350825.79608  -2611029.94008  20917919.26508  20917921.27808
  -7990542.35608  -6226395.54608  22636688.61508  22636689.80908
  -3377611.87808  -2631904.93608  23667375.00708  23667378.31408
  -4808745.64608  -3747073.52808  20710927.40408  20710930.24308
 94 01 25 03 59 30.0000000  0  5 02 07 09 12 13
  -2261372.21108  -1762101.33308  21662408.01608  21662410.21208
  -3302911.53108  -2573694.14008  20927036.84608  20927038.98408
  -8074921.40108  -6292145.44508  22620631.71708  22620632.71208
  -3468333.81708  -2702597.36608  23650111.41908  23650114.52008
  -4849272.91308  -3778653.20208  20703215.28108  20703218.13008
 94 01 25 04 00 00.0000000  0  5 02 07 09 12 13
  -2222466.43408  -1731785.15108  21669811.61008  21669813.81308
  -3254728.08508  -2536148.58508  20936205.76508  20936207.91608
  -8159037.15308  -6357690.16008  22604624.65908  22604625.90508
  -3559011.79308  -2773255.51008  23632855.89408  23632858.99408
  -4889255.42408  -3809808.39108  20695606.76108  20695609.75608
 94 01 25 04 00 30.0000000  0  5 02 07 09 12 13
  -2183377.10408  -1701325.94108  21677249.95108  21677252.20608
  -3206253.52708  -2498376.19508  20945430.05108  20945432.19708
  -8242870.16108  -6423014.56708  22588671.26008  22588673.07308
  -3649628.23508  -2843865.71708  23615611.92108  23615615.08108
  -4928677.43208  -3840526.80908  20688104.99708  20688107.88208
 94 01 25 04 01 00.0000000  0  5 02 07 09 12 13
  -2144078.18408  -1670703.41708  21684728.24208  21684730.42108
  -3157473.74808  -2460365.97108  20954712.57208  20954714.60608
  -8326403.99808  -6488105.86608  22572775.07708  22572777.35308
  -3740169.33908  -2914417.22208  23598382.48208  23598385.58308
  -4967526.95508  -3870799.15408  20680712.15508  20680714.97208
 94 01 25 04 01 30.0000000  0  6 02 04 07 09 12 13
  -2104537.63208  -1639892.61308  21692252.55908  21692254.70908
        -0.25017        -0.45917  22105828.74117  22105829.88017
  -3108381.15808  -2422112.00808  20964054.79708  20964056.52608
  -8409622.67408  -6552951.59308  22556939.02508  22556941.56508
  -3830624.48308  -2984901.74208  23581169.35008  23581172.20008
  -5005794.76408  -3900618.21708  20673429.98208  20673432.78908
 94 01 25 04 02 00.0000000  0  6 02 04 07 09 12 13
  -2064773.88508  -1608907.89108  21699819.22208  21699821.47808
    -84147.13807    -65569.46207  22089816.36307  22089817.05707
  -3058998.35008  -2383631.90408  20973452.34608  20973453.86108
  -8492559.81108  -6617577.93908  22541156.69408  22541159.49108
  -3921018.47208  -3055338.61008  23563967.78608  23563970.67008
  -5043507.59508  -3930004.82608  20666253.43808  20666256.23108
 94 01 25 04 02 30.0000000  0  6 02 04 07 09 12 13
  -2024775.30208  -1577740.17708  21707430.61908  21707433.01708
   -167981.84107   -130895.18907  22073863.33007  22073863.99507
  -3009324.26008  -2344924.82608  20982905.10608  20982906.61808
  -8575231.67608  -6681997.58608  22525425.10508  22525427.75108
  -4011349.71008  -3125726.58508  23546778.21208  23546781.23908
  -5080665.52108  -3958959.04208  20659182.56308  20659185.31508
 94 01 25 04 03 00.0000000  0  6 02 04 07 09 12 13
  -1984522.81808  -1546374.60808  21715090.45008  21715092.88208
   -251493.35506   -195969.06007  22057972.14206  22057972.20307
  -2959356.25008  -2305988.71508  20992413.62408  20992415.44808
  -8657632.75008  -6746206.22508  22509744.98008  22509747.29108
  -4101610.99708  -3196060.05708  23529602.13208  23529605.21908
  -5117263.25408  -3987476.74408  20652218.23308  20652221.09808
 94 01 25 04 03 30.0000000  0  5 02 07 09 12 13
  -1944044.25308  -1514832.87308  21722793.30908  21722795.67208
  -2909098.94208  -2266827.17308  21001977.20708  21001979.24008
  -8739772.44508  -6810211.18208  22494114.58308  22494116.68708
  -4191809.71408  -3266344.78008  23512438.03608  23512441.18908
  -5153309.99408  -4015565.10508  20645358.79508  20645361.63508
 94 01 25 04 04 00.0000000  0  5 02 07 09 12 13
  -1903388.55208  -1483153.11508  21730529.86108  21730532.08508
  -2858593.40808  -2227472.21008  21011588.04708  21011590.12708
  -8821667.10008  -6874025.19208  22478530.68308  22478532.73908
  -4281967.94308  -3336597.94608  23495281.57308  23495285.11908
  -5188829.62408  -4043242.72408  20638599.56108  20638602.53408
 94 01 25 04 04 30.0000000  0  5 02 07 09 12 13
  -1862563.54308  -1451341.43308  21738298.67308  21738300.99508
  -2807845.02508  -2187928.01008  21021245.02008  21021247.20508
  -8903297.09108  -6937632.95408  22462997.10808  22462999.04408
  -4372076.29708  -3406812.24708  23478134.48008  23478138.30108
  -5223814.95908  -4070504.00608  20631942.03608  20631945.14108
 94 01 25 04 05 00.0000000  0  5 02 07 09 12 13
  -1821548.88308  -1419381.97208  21746103.67308  21746105.81008
  -2756812.83208  -2148162.66308  21030955.83408  21030958.11908
  -8984609.57308  -7000993.31708  22447523.85608  22447525.71408
  -4462094.17308  -3476956.04608  23461004.53008  23461008.62508
  -5258226.99508  -4097318.55508  20625393.55508  20625396.75008
 94 01 25 04 05 30.0000000  0  5 02 07 09 12 13
  -1780334.16408  -1387266.61908  21753946.47208  21753948.61708
  -2705479.48308  -2108162.64308  21040724.03008  21040726.33908
  -9065592.16608  -7064096.61508  22432113.30708  22432115.13808
  -4552001.85308  -3547013.97708  23443895.48708  23443899.71808
  -5292048.14408  -4123672.67108  20618957.58308  20618960.80808
 94 01 25 04 06 00.0000000  0  5 02 07 09 12 13
  -1738900.29008  -1354980.48708  21761830.90008  21761833.26208
  -2653857.92208  -2067938.04608  21050547.34308  21050549.57508
  -9146249.24308  -7126946.27108  22416764.55608  22416766.54808
  -4641796.91308  -3616984.15408  23426807.89708  23426812.22608
  -5325278.14708  -4149566.15408  20612634.14908  20612637.29808
 94 01 25 04 06 30.0000000  0  5 02 07 09 12 13
  -1697224.98108  -1322506.23008  21769761.55408  21769763.93108
  -2601922.47908  -2027468.87108  21060430.48108  21060432.57708
  -9226586.14908  -7189546.45908  22401476.67808  22401478.98608
  -4731476.50308  -3686864.35908  23409742.47908  23409746.49208
  -5357916.03408  -4174998.25308  20606423.45008  20606426.46408
 94 01 25 04 07 00.0000000  0  5 02 07 09 12 13
  -1655281.50108  -1289823.01308  21777743.15708  21777745.40908
  -2549657.99908  -1986743.30908  21070376.09308  21070378.09208
  -9306597.14708  -7251892.70408  22386250.89908  22386253.50708
  -4821029.24208  -3756645.71608  23392701.45408  23392705.15208
  -5389952.83108  -4199961.98008  20600327.01508  20600330.02308
 94 01 25 04 07 30.0000000  0  5 02 07 09 12 13
  -1613070.95608  -1256931.69508  21785775.54408  21785777.89908
  -2497085.11208  -1945777.41908  21080380.42708  21080382.53908
  -9386299.46908  -7313998.42408  22371083.92408  22371086.73008
  -4910465.51008  -3826336.32508  23375682.59408  23375685.71508
  -5421400.83608  -4224466.90308  20594342.65608  20594345.63708
 94 01 25 04 08 00.0000000  0  5 02 07 09 12 13
  -1570586.10908  -1223826.63508  21793860.07608  21793862.50708
  -2444217.17208  -1904581.61708  21090440.89708  21090442.99408
  -9465672.72008  -7375847.72108  22355979.66308  22355982.56908
  -4999788.02408  -3895938.27808  23358685.17608  23358688.06108
  -5452264.74309  -4248516.68708  20588469.42709  20588472.43908
 94 01 25 04 08 30.0000000  0  5 02 07 09 12 13
  -1527856.98108  -1190531.21708  21801991.10208  21801993.64008
  -2391068.10008  -1863166.75508  21100554.87208  21100556.80808
  -9544721.74508  -7437444.37608  22340937.03608  22340939.85608
  -5089012.02808  -3965463.46508  23341706.28908  23341709.22408
  -5482561.97109  -4272124.90808  20582704.15209  20582707.07608
 94 01 25 04 09 00.0000000  0  5 02 07 09 12 13
  -1484910.34008  -1157066.30908  21810163.58508  21810166.29108
  -2337683.65408  -1821568.49008  21110713.77808  21110715.48408
  -9623455.21408  -7498795.14908  22325954.71608  22325957.24708
  -5178149.39708  -4034921.13008  23324743.87008  23324746.63608
  -5512306.72609  -4295302.63208  20577044.02909  20577046.77608
 94 01 25 04 09 30.0000000  0  6 02 04 07 09 12 13
  -1441723.67408  -1123414.36908  21818381.86508  21818384.56108
        -0.01617        -0.42916  21857294.54617  21857296.64516
  -2284051.20708  -1779776.97908  21120919.76208  21120921.37508
  -9701834.69508  -7559870.08208  22311039.72808  22311041.70708
  -5267175.11208  -4104291.79308  23307802.57808  23307805.45108
  -5541476.40909  -4318032.25108  20571493.34509  20571495.93508
 94 01 25 04 10 00.0000000  0  7 02 04 05 07 09 12 13
  -1398312.56308  -1089587.54208  21826642.58808  21826645.30708
    -78570.39607    -61224.07306  21842343.59607  21842344.71506
        -0.37416         0.14917  24887952.16316  24887955.21017
  -2230182.55508  -1737801.41108  21131170.57608  21131172.17708
  -9779859.38408  -7620668.53908  22296192.39408  22296193.71408
  -5356098.60408  -4173582.80908  23290880.62808  23290883.74508
  -5570082.71809  -4340322.87608  20566049.72009  20566052.34308
 94 01 25 04 10 30.0000000  0  7 02 04 05 07 09 12 13
  -1354722.61608  -1055621.35408  21834937.41708  21834940.05808
   -156814.16608   -122193.22106  21827454.64408  21827454.69106
    -78537.52806    -61197.59607  24873006.81506  24873009.82807
  -2176107.00108  -1695664.62108  21141460.81408  21141462.30008
  -9857578.35108  -7681228.75008  22281403.12408  22281403.95008
  -5444952.01808  -4242819.23208  23273971.78408  23273975.46808
  -5598160.01709  -4362201.28508  20560706.73909  20560709.45908
 94 01 25 04 11 00.0000000  0  6 02 04 07 09 12 13
  -1311253.47808  -1021749.30608  21843209.29708  21843211.89908
   -235037.80308   -183146.70607  21812569.16608  21812568.95907
  -2122138.26708  -1653611.07008  21151730.63108  21151732.00708
  -9935303.54308  -7741793.80408  22266612.45008  22266613.18908
  -5534046.18708  -4312243.26008  23257017.40208  23257021.41708
  -5626021.54909  -4383911.56108  20555404.74509  20555407.59308
 94 01 25 04 11 30.0000000  0  6 02 04 07 09 12 13
  -1267876.71008   -987949.24508  21851463.79808  21851466.30108
   -313207.97207   -244058.51607  21797693.61807  21797694.00807
  -2068237.79108  -1611610.70508  21161987.40508  21161988.72208
 -10013014.67008  -7802347.90408  22251824.44308  22251825.48208
  -5623357.37508  -4381836.39908  23240022.25908  23240025.91908
  -5653646.06409  -4405437.14708  20550147.99209  20550150.87008
 94 01 25 04 12 00.0000000  0  6 02 04 07 09 12 13
  -1223708.43408   -953532.42308  21859868.87808  21859871.16008
   -390420.13907   -304223.82607  21783000.22807  21783001.47407
  -2013501.58108  -1568959.12008  21172403.47708  21172404.68508
 -10089828.76008  -7862203.03208  22237206.96508  22237208.59408
  -5711980.02308  -4450893.00408  23223158.56008  23223161.62308
  -5680130.33209  -4426074.23108  20545108.21409  20545111.02508
 94 01 25 04 12 30.0000000  0  7 02 04 05 07 09 12 13
  -1179155.80808   -918816.11308  21868347.07808  21868349.18308
   -467092.05207   -363968.14607  21768409.68007  21768411.53207
        -0.96917        -0.63418  24812947.50217  24812951.24018
  -1958347.72408  -1525982.09508  21182899.09308  21182900.21308
 -10166167.21808  -7921687.55408  22222680.06408  22222682.06708
  -5800325.38208  -4519733.53008  23206347.51508  23206350.04708
  -5705888.09009  -4446145.21108  20540206.77509  20540209.39608
 94 01 25 04 13 00.0000000  0  7 02 04 05 07 09 12 13
  -1134372.16908   -883919.77908  21876869.07808  21876871.23108
   -543378.36907   -423412.02607  21753892.50707  21753894.52207
    -78608.74607    -61253.39108  24797988.83007  24797992.60408
  -1902929.29508  -1482798.90808  21193444.94608  21193446.13408
 -10242177.69808  -7980916.51508  22208215.80608  22208217.64008
  -5888541.35608  -4588473.22108  23189561.02208  23189563.23208
  -5731069.61409  -4465767.17908  20535414.86409  20535417.41908
 94 01 25 04 13 30.0000000  0  6 02 05 07 09 12 13
  -1089416.11308   -848889.09908  21885424.14208  21885425.99308
   -157261.69907   -122541.42208  24783021.62607  24783025.03208
  -1847292.07808  -1439445.23608  21204032.30808  21204033.61308
 -10317897.98108  -8039919.35008  22193806.99008  22193808.43408
  -5976669.97908  -4657144.84308  23172790.90408  23172793.12408
  -5755719.58409  -4484974.95008  20530724.07109  20530726.60008
 94 01 25 04 14 00.0000000  0  6 02 05 07 09 12 13
  -1044319.05808   -813748.55808  21894006.07308  21894007.57308
   -236011.61607   -183904.87808  24768036.13507  24768039.28708
  -1791477.68608  -1395953.50408  21214653.48708  21214654.87708
 -10393343.37508  -8098707.98408  22179450.16908  22179451.56208
  -6064744.07608  -4725773.98508  23156031.08508  23156033.37808
  -5779873.57609  -4503796.23808  20526127.62909  20526130.30108
 94 01 25 04 14 30.0000000  0  6 02 05 07 09 12 13
   -999050.49508   -778474.36708  21902620.17708  21902621.88208
   -314848.30407   -245336.05007  24753033.43007  24753036.83307
  -1735458.20508  -1352301.96008  21225313.69808  21225315.17308
 -10468484.42708  -8157259.46808  22165151.26008  22165152.83108
  -6152745.29508  -4794346.34708  23139284.89908  23139287.42308
  -5803515.49009  -4522218.50108  20521628.68009  20521631.48408
 94 01 25 04 15 00.0000000  0  6 02 05 07 09 12 13
   -953586.27408   -743047.71708  21911271.77808  21911273.44408
   -393738.70507   -306809.04507  24738021.47407  24738024.26807
  -1679189.17608  -1308455.96008  21236021.24908  21236023.01008
 -10543266.57808  -8215531.28008  22150920.72208  22150922.30108
  -6240634.15408  -4862831.16408  23122559.99308  23122562.90108
  -5826608.71008  -4540213.20108  20517234.14008  20517237.09608
 94 01 25 04 15 30.0000000  0  6 02 05 07 09 12 13
   -907897.63308   -707446.18108  21919966.05808  21919967.75808
   -472676.12007   -368318.68607  24722999.83407  24723002.62907
  -1622670.85008  -1264415.69308  21246776.16408  21246778.29108
 -10617677.94108  -8273514.15808  22136760.69408  22136762.40908
  -6328399.46808  -4931219.71908  23105858.40508  23105861.68308
  -5849144.58808  -4557773.60508  20512945.72008  20512948.69208
 94 01 25 04 16 00.0000000  0  6 02 05 07 09 12 13
   -861972.00508   -671659.98608  21928705.22908  21928707.03108
   -551637.95407   -429847.39207  24707973.96407  24707976.80307
  -1565905.92408  -1220183.26908  21257577.93708  21257580.25808
 -10691735.60008  -8331221.42108  22122667.88408  22122669.58608
  -6416038.79708  -4999510.10908  23089180.86408  23089184.57208
  -5871123.43108  -4574899.95308  20508763.15308  20508766.24708
 94 01 25 04 16 30.0000000  0  7 02 04 05 07 09 12 13
   -815790.49808   -635674.40908  21937493.30008  21937495.00708
         0.06216        -0.20918  21654203.40316  21654205.33118
   -630586.72407   -491365.89307  24692950.46807  24692953.03907
  -1508876.39208  -1175744.66708  21268430.38708  21268432.57908
 -10765431.36208  -8388646.68308  22108643.84308  22108645.56008
  -6503526.20208  -5067682.13008  23072532.32108  23072536.06708
  -5892521.92208  -4591574.07908  20504691.19608  20504694.25408
 94 01 25 04 17 00.0000000  0  7 02 04 05 07 09 12 13
   -769375.62308   -599506.98208  21946325.96608  21946327.41908
    -73218.88407    -57053.93208  21640270.53407  21640272.40308
   -709565.64607   -552907.90807  24677920.94307  24677923.77707
  -1451640.01808  -1131144.88908  21279322.23108  21279324.20908
 -10838796.24608  -8445814.11708  22094682.79008  22094684.43108
  -6590894.49008  -5135761.33008  23055906.74508  23055910.41108
  -5913375.64408  -4607823.71308  20500722.93608  20500725.79908
 94 01 25 04 17 30.0000000  0  7 02 04 05 07 09 12 13
   -722717.64908   -563150.11708  21955204.75408  21955206.44308
   -146066.47907   -113818.29208  21626407.80707  21626409.88508
   -788578.27007   -614476.14207  24662885.06807  24662888.26507
  -1394202.78108  -1086388.59608  21290252.18708  21290254.13708
 -10911834.60208  -8502727.11108  22080784.13808  22080785.83808
  -6678137.32108  -5203742.77108  23039305.24808  23039308.57608
  -5933681.13009  -4623646.15008  20496858.97209  20496861.74208
 94 01 25 04 18 00.0000000  0  7 02 04 05 07 09 12 13
   -675834.82408   -526618.06008  21964126.40108  21964128.18308
   -218548.84807   -170298.07208  21612614.80407  21612617.00008
   -867633.60507   -676077.66006  24647840.78007  24647844.00006
  -1336558.79008  -1041471.19108  21301221.53008  21301223.46308
 -10984537.09408  -8559378.39208  22066949.56108  22066951.12808
  -6765252.32208  -5271624.59408  23022728.22608  23022731.14808
  -5953438.67409  -4639041.62508  20493099.26309  20493102.02208
 94 01 25 04 18 30.0000000  0  7 02 04 05 07 09 12 13
   -628736.09808   -489917.76808  21973089.03008  21973090.69308
   -290661.14407   -226489.46008  21598892.13807  21598894.68808
   -946750.59807   -737727.22406  24632785.21707  24632786.90206
  -1278707.79408   -996392.49608  21312230.31508  21312232.03408
 -11056881.36408  -8615750.53608  22053183.02208  22053184.62808
  -6852231.79508  -5339400.81208  23006176.91008  23006179.28008
  -5972643.62909  -4654006.51508  20489444.69709  20489447.31808
 94 01 25 04 19 00.0000000  0  6 02 04 07 09 12 13
   -581421.92108   -453049.58408  21982092.37808  21982094.13708
   -362371.79807   -282367.87208  21585246.02207  21585248.54808
  -1220645.07808   -951148.82508  21323279.35008  21323280.75708
 -11128849.98108  -8671829.97308  22039488.03208  22039489.65008
  -6939068.31208  -5407065.62708  22989652.45208  22989654.84708
  -5991291.33109  -4668537.18808  20485896.19309  20485898.74508
 94 01 25 04 19 30.0000000  0  6 02 04 07 09 12 13
   -533893.54208   -416014.48108  21991136.60208  21991138.41508
   -433662.35007   -337918.94908  21571679.76507  21571682.43908
  -1162353.14308   -905726.54608  21334371.83708  21334373.09408
 -11200436.75008  -8727611.86908  22025865.52308  22025867.17908
  -7025750.76208  -5474610.39208  22973157.26608  22973159.74008
  -6009373.64209  -4682627.30208  20482455.25809  20482457.83608
 94 01 25 04 20 00.0000000  0  7 02 04 05 07 09 12 13
   -486098.27808   -378771.42208  22000231.92108  22000233.47808
   -504458.71807   -393084.94108  21558207.55207  21558210.32608
        -0.23916        -0.61316  24587573.88716  24587572.05516
  -1103771.05608   -860078.17108  21345519.52108  21345520.84608
 -11271583.80608  -8783051.13108  22012326.62908  22012328.43908
  -7112225.62208  -5541993.38708  22956701.40408  22956704.19608
  -6026839.84709  -4696237.32808  20479131.49009  20479134.19208
 94 01 25 04 20 30.0000000  0  6 02 04 07 09 12 13
   -438110.76408   -341378.57308  22009363.49608  22009365.24308
   -574837.26607   -447925.37808  21544815.17807  21544817.96908
  -1044985.96108   -814271.60608  21356706.11408  21356707.58808
 -11342363.84408  -8838204.40408  21998857.56608  21998859.53608
  -7198572.06508  -5609276.31608  22940269.99208  22940272.97508
  -6043772.26009  -4709431.41208  20475909.35609  20475912.05308
 94 01 25 04 21 00.0000000  0  6 02 04 07 09 12 13
   -389935.41408   -303839.35408  22018530.78608  22018532.93508
   -644813.77108   -502452.52708  21531499.09508  21531501.91908
   -986020.85308   -768324.76908  21367926.92008  21367928.48508
 -11412792.78208  -8893084.10508  21985455.17308  21985457.40808
  -7284811.14308  -5676475.58908  22923859.06108  22923862.20308
  -6060194.89609  -4722228.25808  20472784.12809  20472786.92508
 94 01 25 04 21 30.0000000  0  6 02 04 07 09 12 13
   -341493.35308   -266092.30508  22027748.93908  22027751.24808
   -714321.16408   -556614.13008  21518272.25008  21518275.28608
   -926804.06208   -722181.81808  21379195.32908  21379197.13108
 -11482802.24008  -8947636.94108  21972132.54108  21972134.91808
  -7370872.31608  -5743536.24008  22907482.23808  22907485.30408
  -6076040.14208  -4734575.18708  20469768.71808  20469771.65908
 94 01 25 04 22 00.0000000  0  6 02 04 07 09 12 13
   -292818.75208   -228164.07208  22037011.37808  22037013.79208
   -783395.19008   -610438.04408  21505128.02108  21505131.11008
   -867375.26308   -675873.66308  21390504.10708  21390505.97308
 -11552418.55508  -9001883.42708  21958885.22308  21958887.48208
  -7456787.65008  -5810483.25408  22891133.15608  22891136.20608
  -6091343.31708  -4746499.72408  20466856.57408  20466859.48508
 94 01 25 04 22 30.0000000  0  6 02 04 07 09 12 13
   -243913.17608   -190055.84508  22046317.90508  22046320.13808
   -852067.76808   -663949.12808  21492060.24808  21492063.12508
   -807767.72608   -629426.23808  21401847.05908  21401848.88108
 -11621662.07508  -9055839.40908  21945708.84008  21945710.70408
  -7542570.82108  -5877327.28108  22874809.36108  22874812.26608
  -6106120.93208  -4758014.73108  20464044.45108  20464047.39108
 94 01 25 04 23 00.0000000  0  6 02 04 07 09 12 13
   -194766.28408   -151759.55008  22055670.19508  22055672.44608
   -920329.26708   -717139.88708  21479070.38308  21479073.39708
   -747973.44808   -582833.29808  21413225.52608  21413227.36608
 -11690545.58108  -9109514.85608  21932600.98508  21932602.54608
  -7628212.72508  -5944061.21808  22858512.22508  22858515.21908
  -6120367.25809  -4769115.75008  20461333.62009  20461336.39708
 94 01 25 04 23 30.0000000  0  6 02 04 07 09 12 13
   -145400.87208   -113292.99808  22065064.18308  22065066.44208
   -988195.42008   -770022.58708  21466155.68408  21466158.54808
   -687998.97908   -536099.93908  21424638.32908  21424640.29108
 -11759093.48008  -9162928.79208  21919556.69608  21919558.27908
  -7713723.30808  -6010692.81908  22842240.07808  22842243.07708
  -6134095.18509  -4779812.82908  20458721.46109  20458724.06408
 94 01 25 04 24 00.0000000  0  6 02 04 07 09 12 13
    -95823.10708    -74660.98708  22074498.37108  22074500.56408
  -1055670.04408   -822600.19808  21453316.07608  21453318.21408
   -627846.83708   -489228.13408  21436085.09608  21436086.96208
 -11827300.23208  -9216076.90908  21906577.27708  21906579.20408
  -7799098.36608  -6077218.82008  22825993.59608  22825996.67408
  -6147303.79809  -4790105.25608  20456208.04109  20456210.54008
 94 01 25 04 24 30.0000000  0  6 02 04 07 09 12 13
    -46024.44108    -35856.83808  22083974.70708  22083976.88108
  -1122724.61408   -874850.50908  21440556.04008  21440557.69408
   -567500.70108   -442205.17108  21447568.89008  21447570.56608
 -11895161.88308  -9268956.10908  21893663.54708  21893665.59208
  -7884318.58908  -6143624.18708  22809776.53508  22809779.91708
  -6159977.00609  -4799980.48108  20453796.33609  20453798.82408
 94 01 25 04 25 00.0000000  0  6 02 04 07 09 12 13
      3991.31508      3116.45208  22093492.56208  22093494.54008
  -1189317.78608   -926741.29207  21427883.90208  21427885.03407
   -506929.46308   -395006.80708  21459095.47808  21459096.94208
 -11962652.21108  -9321545.98208  21880820.51108  21880822.63608
  -7969356.94808  -6209887.83608  22793594.01808  22793597.72508
  -6172091.03309  -4809419.98408  20451490.96209  20451493.48708
 94 01 25 04 25 30.0000000  0  6 02 04 07 09 12 13
     54216.06608     42252.63208  22103050.23708  22103051.58308
  -1255453.69308   -978275.77007  21415298.62408  21415299.77907
   -446145.09408   -347642.37508  21470662.34308  21470663.70508
 -12029759.21108  -9373837.16408  21868050.22608  21868052.43708
  -8054216.64408  -6276012.27508  22777445.49708  22777449.62008
  -6183652.30509  -4818428.76808  20449290.87909  20449293.34308
 94 01 25 04 26 00.0000000  0  6 02 04 07 09 12 13
    104662.32008     81561.39508  22112649.71608  22112651.08608
  -1321125.99208  -1029448.98607  21402801.83608  21402802.78107
   -385155.36008   -300117.91108  21482268.12408  21482269.55808
 -12096470.71308  -9425820.16708  21855355.52208  21855357.76408
  -8138887.17508  -6341989.31908  22761333.04308  22761337.48408
  -6194653.52309  -4827001.14608  20447197.43309  20447199.85508
 94 01 25 04 26 30.0000000  0  6 02 04 07 09 12 13
    155344.70308    121054.15608  22122294.09008  22122295.64208
  -1386334.68708  -1080260.90407  21390393.08608  21390393.83607
   -323952.82508   -252427.61708  21493914.18408  21493916.05308
 -12162785.79708  -9477494.26208  21842736.11208  21842738.22708
  -8223364.13508  -6407815.53108  22745257.72908  22745262.31008
  -6205093.81209  -4835136.43008  20445210.68309  20445213.25308
 94 01 25 04 27 00.0000000  0  6 02 04 07 09 12 13
    206280.32408    160744.22708  22131987.02408  22131988.37908
  -1451098.56708  -1130726.26007  21378069.07608  21378069.52207
   -262538.90208   -204572.60708  21505600.43908  21505602.62108
 -12228684.58308  -9528843.97708  21830196.20508  21830198.13408
  -8307649.05808  -6473492.09008  22729219.24908  22729223.37508
  -6214978.12308  -4842838.48008  20443329.68108  20443332.51908
 94 01 25 04 27 30.0000000  0  6 02 04 07 09 12 13
    257506.40508    200660.64608  22141734.76508  22141736.69208
  -1515418.91708  -1180846.01607  21365829.16208  21365829.82207
   -200914.82508   -156553.84108  21517327.11908  21517329.19208
 -12294149.81608  -9579855.84508  21817738.77408  21817740.42908
  -8391731.45508  -6539010.83608  22713219.36208  22713222.93708
  -6224298.99808  -4850101.48808  20441555.97808  20441558.94208
 94 01 25 04 28 00.0000000  0  6 02 04 07 09 12 13
    309010.42908    240793.63108  22151536.03608  22151537.85708
  -1579299.85508  -1230623.32307  21353673.09108  21353673.66407
   -139089.53408   -108378.28908  21529092.40508  21529094.16808
 -12359188.23508  -9630535.13708  21805362.25908  21805363.84208
  -8475618.75508  -6604377.55708  22697256.53908  22697259.65308
  -6233067.40508  -4856933.99508  20439887.48008  20439890.38308
 94 01 25 04 28 30.0000000  0  6 02 04 07 09 12 13
    360778.20308    281132.16208  22161387.10008  22161389.01108
  -1642720.94308  -1280042.31507  21341604.35408  21341604.99607
    -77074.46808    -60054.85608  21540893.66108  21540895.44708
 -12423798.33608  -9680880.66008  21793067.40108  21793069.01908
  -8559319.26908  -6669598.72408  22681329.10308  22681331.88108
  -6241295.12709  -4863345.19308  20438321.90209  20438324.64908
 94 01 25 04 29 00.0000000  0  6 02 04 07 09 12 13
    412780.56708    321653.46508  22171282.75008  22171284.47608
  -1705670.96708  -1329094.26207  21329625.22708  21329625.57407
    -14895.71908    -11603.88208  21552725.65708  21552727.69308
 -12487975.15908  -9730888.56308  21780854.82008  21780856.70908
  -8642841.43408  -6734680.92508  22665435.36808  22665438.06208
  -6248994.25409  -4869344.50908  20436856.81109  20436859.55908
 94 01 25 04 29 30.0000000  0  6 02 04 07 09 12 13
    465002.22108    362345.67008  22181220.18308  22181221.94208
  -1768136.20808  -1377768.44008  21317738.18508  21317738.98208
     47452.10908     36978.84808  21564589.90208  21564592.18408
 -12551720.53308  -9780560.27608  21768724.47008  21768726.33308
  -8726179.59708  -6799619.75208  22649576.33308  22649579.17508
  -6256162.51209  -4874930.15508  20435492.62409  20435495.47608
 94 01 25 04 30 00.0000000  0  6 02 04 07 09 12 13
    517415.96808    403187.53608  22191194.59608  22191196.39508
  -1830109.98108  -1426059.67208  21305945.16808  21305946.14908
    109974.78208     85697.82008  21576487.64708  21576489.67708
 -12615038.33208  -9829898.82508  21756675.35108  21756677.26508
  -8809337.43508  -6864418.06808  22633751.65108  22633754.66108
  -6262806.93708  -4880107.61708  20434228.13208  20434231.07108
 94 01 25 04 30 30.0000000  0  6 02 04 07 09 12 13
    570010.10808    444169.97208  22201203.10108  22201205.00408
  -1891613.53508  -1473984.50008  21294241.56408  21294242.59408
    172667.01408    134548.91008  21588417.60008  21588419.20108
 -12677948.06708  -9878919.40608  21744704.18708  21744706.03408
  -8892326.30308  -6929084.71908  22617959.28108  22617962.35408
  -6268942.80408  -4884888.79808  20433060.37908  20433063.41908
 94 01 25 04 31 00.0000000  0  7 02 04 05 07 09 12 13
    622810.89808    485313.43008  22211250.42808  22211252.86708
  -1952656.53008  -1521550.44408  21282625.26808  21282626.28208
         0.40916         0.25916  24254368.70116  24254383.90716
    235561.90308    183557.90908  21600386.17608  21600387.48908
 -12740440.76008  -9927615.01908  21732812.42308  21732814.11608
  -8975122.06608  -6993600.89508  22602203.76208  22602206.63608
  -6274549.09208  -4889257.32508  20431993.54308  20431996.50708
 94 01 25 04 31 30.0000000  0  7 02 04 05 07 09 12 13
    675831.97408    526628.54908  22221340.01308  22221342.40608
  -2013249.50808  -1568765.73108  21271094.36908  21271095.81008
    -79925.64507    -62279.79706  24239159.45507  24239175.67406
    298662.08708    232726.87408  21612393.77208  21612395.13408
 -12802540.92908  -9976004.76108  21720995.22208  21720996.68708
  -9057720.93708  -7057963.64908  22586485.71608  22586488.26308
  -6279625.85309  -4893213.23508  20431027.68809  20431030.36608
 94 01 25 04 32 00.0000000  0  7 02 04 05 07 09 12 13
    729119.72808    568151.45508  22231480.26908  22231482.47508
  -2073355.47908  -1615601.54308  21259656.57508  21259658.10408
   -159842.98507   -124552.98406  24223951.14007  24223967.25306
    361981.74808    282066.85708  21624442.85508  21624444.26408
 -12864221.33708 -10024067.40608  21709257.93708  21709259.23708
  -9140086.11608  -7122144.28708  22570812.22308  22570814.28308
  -6284139.91609  -4896730.68808  20430168.82509  20430171.28108
 94 01 25 04 32 30.0000000  0  7 02 04 05 07 09 12 13
    782669.27608    609878.36908  22241670.54308  22241672.28808
  -2132998.70508  -1662076.74808  21248306.79708  21248308.41508
   -239783.95707   -186844.64406  24208738.11307  24208756.21006
    425494.46708    331557.27708  21636528.91608  21636530.52808
 -12925498.71308 -10071816.00408  21697597.37508  21697598.67008
  -9222231.77808  -7186153.87908  22555180.38008  22555182.61908
  -6288109.13009  -4899823.58708  20429413.52809  20429415.90008
 94 01 25 04 33 00.0000000  0  6 02 04 07 09 12 13
    836472.77908    651803.17308  22251908.80108  22251910.73208
  -2192168.20108  -1708182.83908  21237046.99708  21237049.02808
    489187.10008    381187.90308  21648649.16508  21648651.07608
 -12986371.84608 -10119249.61308  21686013.32408  21686014.79308
  -9304160.83908  -7249994.70208  22539589.61908  22539592.21408
  -6291540.04709  -4902497.03008  20428760.53409  20428762.99308
 94 01 25 04 33 30.0000000  0  6 02 04 07 09 12 13
    890525.30008    693922.00608  22262194.49308  22262196.64408
  -2250848.29408  -1753907.58608  21225880.75308  21225882.47008
    553043.34708    430946.01808  21660800.75308  21660802.81708
 -13046814.31508 -10166347.63808  21674511.39708  21674513.08108
  -9385869.46808  -7313663.75908  22524040.81708  22524043.76008
  -6294432.47109  -4904750.86108  20428209.98109  20428212.61008
 94 01 25 04 34 00.0000000  0  7 02 04 05 07 09 12 13
    944818.65208    736228.50208  22272526.05908  22272528.46908
  -2309038.41208  -1799250.52108  21214807.58708  21214808.99608
        -0.78617        -0.22916  24163067.50317  24163069.05816
    617065.58508    480833.48108  21672983.78608  21672985.87708
 -13106805.72408 -10213094.19808  21663095.37308  21663096.98808
  -9467360.56808  -7377163.32508  22508533.48508  22508536.92408
  -6296793.15008  -4906590.34108  20427760.69008  20427763.46408
 94 01 25 04 34 30.0000000  0  7 02 04 05 07 09 12 13
    999353.55108    778723.19808  22282904.01208  22282906.24408
  -2366734.48708  -1844208.50908  21203828.38108  21203830.02408
    -80063.60507    -62386.86006  24147832.10307  24147832.40306
    681266.99108    530860.55208  21685200.97208  21685202.96308
 -13166337.11608 -10259482.29508  21651766.89508  21651768.46708
  -9548637.78708  -7440496.23708  22493066.98608  22493070.59308
  -6298629.39809  -4908021.17608  20427411.36709  20427414.16708
 94 01 25 04 35 00.0000000  0  7 02 04 05 07 09 12 13
   1054112.55208    821392.52408  22293324.45908  22293326.47408
  -2423955.07908  -1888795.97008  21192939.65208  21192941.41508
   -160152.84307   -124794.05806  24132591.94007  24132592.65006
    745616.39408    581002.93608  21697446.22008  21697448.06808
 -13225421.16308 -10305521.81308  21640523.66808  21640525.17608
  -9629713.16408  -7503671.87108  22477638.88308  22477642.56808
  -6299957.09509  -4909055.73708  20427158.73009  20427161.53808
 94 01 25 04 35 30.0000000  0  7 02 04 05 07 09 12 13
   1109122.24208    864257.20708  22303792.32408  22303794.50308
  -2480692.61408  -1933006.99008  21182143.02408  21182144.65008
   -240245.51307   -187203.93506  24117351.09507  24117352.47006
    810114.24008    631260.98908  21709719.69008  21709721.62708
 -13284039.67308 -10351198.56608  21629368.85608  21629370.32108
  -9710571.64108  -7566678.48108  22462252.01908  22462255.81708
  -6300765.17309  -4909685.40008  20427004.91809  20427007.79308
 94 01 25 04 36 00.0000000  0  7 02 04 05 07 09 12 13
   1164403.56908    907333.53708  22314311.91708  22314313.93108
  -2536930.34108  -1976828.56608  21171441.29608  21171443.01908
   -320323.34507   -249602.21707  24102113.16007  24102114.23407
    874781.08908    681650.73808  21722025.35708  21722027.21208
 -13342195.62108 -10396514.88408  21618302.24508  21618303.91408
  -9791202.04408  -7629507.37708  22446909.06608  22446912.29508
  -6301045.94509  -4909904.17708  20426951.57409  20426954.36608
 94 01 25 04 36 30.0000000  0  7 02 04 05 07 09 12 13
   1219923.66508    950595.94308  22324877.30208  22324879.74808
  -2592696.05208  -2020282.36908  21160829.61208  21160831.10808
   -400419.21808   -312014.58807  24086871.74008  24086873.04407
    939574.46608    732139.07908  21734355.34808  21734357.25108
 -13399914.15708 -10441490.36708  21607318.86308  21607320.50908
  -9871628.15208  -7692177.06808  22431604.51308  22431607.77708
  -6300826.96809  -4909733.53708  20426993.28909  20426996.05508
 94 01 25 04 37 00.0000000  0  7 02 04 05 07 09 12 13
   1275675.05008    994038.55208  22335486.28708  22335488.87008
  -2647986.87808  -2063366.09408  21150307.93508  21150309.82708
   -480533.90808   -374441.57507  24071626.58408  24071627.97707
   1004494.81208    782726.36308  21746709.38908  21746711.17608
 -13457195.95308 -10486125.53908  21596418.76908  21596420.32208
  -9951837.74608  -7754678.03808  22416341.28908  22416344.28608
  -6300100.29609  -4909167.29308  20427131.64109  20427134.27008
 94 01 25 04 37 30.0000000  0  7 02 04 05 07 09 12 13
   1331645.73208   1037652.04908  22346137.33008  22346139.80508
  -2702792.43708  -2106071.72208  21139878.68508  21139880.56408
   -560676.92308   -436890.66407  24056375.80508  24056377.53407
   1069557.17908    833424.30808  21759090.29608  21759091.97808
 -13514043.30308 -10530422.18208  21585601.10808  21585602.54908
 -10031833.23708  -7817012.17708  22401118.73208  22401121.69608
  -6298872.05309  -4908210.21508  20427365.40109  20427367.90808
 94 01 25 04 38 00.0000000  0  7 02 04 05 07 09 12 13
   1387832.11308   1081433.62608  22356829.49308  22356831.88508
  -2757103.74408  -2148392.20008  21129543.62108  21129545.50008
   -640851.05408   -499363.98608  24041118.87208  24041121.04608
   1134779.94308    884247.23808  21771501.56308  21771503.39608
 -13570451.03108 -10574376.25608  21574867.19708  21574868.68108
 -10111599.18708  -7879167.44908  22385939.68208  22385942.70708
  -6297130.74309  -4906853.34408  20427696.68709  20427699.20308
 94 01 25 04 38 30.0000000  0  7 02 04 05 07 09 12 13
   1444220.31108   1125372.46608  22367559.79308  22367562.49108
  -2810947.76608  -2190348.56408  21119297.51708  21119299.16208
   -721071.29708   -561873.24308  24025853.44308  24025855.86308
   1200147.51908    935183.00808  21783940.63808  21783942.56708
 -13626432.71708 -10617998.35008  21564214.05808  21564215.68108
 -10191139.73608  -7941147.08708  22370803.47308  22370806.49508
  -6294884.34109  -4905102.88908  20428123.98409  20428126.66608
 94 01 25 04 39 00.0000000  0  7 02 04 05 07 09 12 13
   1500846.79808   1169496.99208  22378335.06408  22378338.18008
  -2864287.05708  -2231911.63708  21109147.33708  21109148.94208
   -801304.25808   -624392.42308  24010585.47708  24010587.81808
   1265691.41208    986256.17408  21796413.18308  21796415.09408
 -13681972.52208 -10661276.13508  21553644.94608  21553646.82308
 -10270428.55608  -8002930.57008  22355715.04308  22355718.28508
  -6292110.60109  -4902941.52508  20428651.81209  20428654.41808
 94 01 25 04 39 30.0000000  0  7 02 04 05 07 09 12 13
   1557708.92908   1213805.14008  22389155.19508  22389158.69908
  -2917114.64908  -2273075.99608  21099094.55308  21099096.25208
   -881562.11408   -686930.99908  23995312.73708  23995315.00908
   1331400.59308   1037458.12908  21808917.35008  21808919.09308
 -13737060.79308 -10704202.06908  21543162.07408  21543164.09608
 -10349470.81208  -8064521.93708  22340673.83608  22340676.96408
  -6288818.51509  -4900376.26008  20429278.33509  20429280.78708
 94 01 25 04 40 00.0000000  0  7 02 04 05 07 09 12 13
   1614810.00408   1258299.46708  22400021.17408  22400024.64408
  -2969430.87108  -2313841.87508  21089139.12008  21089140.56008
   -961852.71408   -749495.09708  23980034.10808  23980035.97508
   1397274.05008   1088788.09308  21821452.48408  21821454.41208
 -13791691.48708 -10746771.45108  21532766.37608  21532768.20508
 -10428265.65008  -8125920.51608  22325679.74508  22325682.71908
  -6285011.33409  -4897409.62508  20430002.77509  20430005.15808
 94 01 25 04 40 30.0000000  0  7 02 04 05 07 09 12 13
   1672170.56908   1302995.99208  22410936.71008  22410939.83208
  -3021207.75808  -2354187.49308  21079286.15908  21079287.48508
  -1042157.59508   -812070.32108  23964752.67708  23964754.45408
   1463332.84008   1140262.47008  21834022.85608  21834025.07208
 -13845847.16108 -10788970.67808  21522460.95208  21522462.64108
 -10506795.60508  -8187112.69208  22310736.10308  22310738.79608
  -6280675.66909  -4894031.18108  20430827.80009  20430830.21008
 94 01 25 04 41 00.0000000  0  7 02 04 05 07 09 12 13
   1729792.28508   1347896.01608  22421901.72508  22421904.97708
  -3072417.59408  -2394091.25008  21069541.22208  21069542.91108
  -1122456.11607   -874640.61408  23949472.09807  23949473.98908
   1529588.71908   1191890.42808  21846630.94808  21846633.40408
 -13899496.52408 -10830775.37408  21512251.98208  21512253.56908
 -10585052.22208  -8248091.87908  22295844.47808  22295847.20908
  -6275807.15009  -4890237.52808  20431754.38309  20431756.76008
 94 01 25 04 41 30.0000000  0  7 02 04 05 07 09 12 13
   1787639.75308   1392971.94808  22432910.27708  22432913.00908
  -3123111.27308  -2433592.82408  21059894.67308  21059895.93908
  -1202781.88107   -937232.11608  23934186.50007  23934188.57508
   1596010.20308   1243647.42808  21859270.56108  21859272.91508
 -13952663.10608 -10872203.88008  21502134.31908  21502136.07808
 -10663060.25908  -8308877.36108  22280999.96908  22281002.76808
  -6270434.58609  -4886051.11108  20432776.77609  20432779.20908
 94 01 25 04 42 00.0000000  0  7 02 04 05 07 09 12 13
   1845728.12908   1438235.60708  22443964.04308  22443966.62308
  -3173301.47808  -2472702.06408  21050343.93508  21050345.12908
  -1283125.17107   -999837.25908  23918897.49507  23918899.85408
   1662593.72408   1295530.69808  21871941.09108  21871943.29508
 -14005361.05408 -10913267.21408  21492106.01908  21492107.93508
 -10740813.96208  -8369464.65708  22266204.01308  22266206.75608
  -6264556.43609  -4881470.73108  20433895.30609  20433897.89708
 94 01 25 04 42 30.0000000  0  7 02 04 05 07 09 12 13
   1904081.98708   1483706.13208  22455068.36808  22455071.03008
  -3222986.18308  -2511417.41708  21040889.08508  21040890.65208
  -1363458.81406  -1062434.93608  23903609.87506  23903613.10208
   1729330.23408   1347533.17508  21884640.67308  21884642.78808
 -14057585.07308 -10953961.24808  21482168.05308  21482170.15708
 -10818301.67508  -8429844.67908  22251458.54408  22251461.41508
  -6258164.89608  -4876490.29908  20435111.33008  20435114.25508
 94 01 25 04 43 00.0000000  0  6 02 04 07 09 12 13
   1962719.44108   1529397.62508  22466226.85908  22466229.35108
  -3272158.43308  -2549733.46908  21031531.88008  21031533.62708
   1796211.33208   1399648.31408  21897367.75808  21897369.73208
 -14109314.23208 -10994269.68508  21472324.35908  21472326.35608
 -10895512.20708  -8490008.72308  22236765.72208  22236768.73808
  -6251253.08108  -4871104.44708  20436426.41308  20436429.59708
 94 01 25 04 43 30.0000000  0  6 02 04 07 09 12 13
   2021619.77708   1575293.97008  22477435.43608  22477437.60008
  -3320846.61808  -2587672.27508  21022266.71808  21022268.49908
   1863198.52308   1451846.11408  21910114.94108  21910116.84208
 -14160597.60508 -11034230.77808  21462565.51608  21462567.44508
 -10972474.83408  -8549979.60108  22222120.06008  22222123.18308
  -6243854.23208  -4865339.09708  20437834.35708  20437837.58708
 94 01 25 04 44 00.0000000  0  6 02 04 07 09 12 13
   2080779.78208   1621392.66908  22488693.13608  22488694.96108
  -3369022.60508  -2625212.00608  21013098.97308  21013100.96708
   1930287.36308   1504123.14308  21922881.11008  21922883.26408
 -14211423.24208 -11073835.15708  21452893.77608  21452895.55808
 -11049187.86908  -8609755.97508  22207521.99708  22207525.25408
  -6235970.93909  -4859196.25708  20439334.72509  20439337.64808
 94 01 25 04 44 30.0000000  0  6 02 04 07 09 12 13
   2140196.27108   1667691.21608  22499999.62008  22500001.70108
  -3416664.00108  -2662335.14608  21004032.99808  21004035.11508
   1997492.76308   1556491.00208  21935669.67908  21935671.99108
 -14261773.66908 -11113069.24808  21443312.88208  21443313.85708
 -11125639.82808  -8669328.93508  22192973.48408  22192977.10208
  -6227596.11909  -4852670.42608  20440928.54409  20440931.21108
 94 01 25 04 45 00.0000000  0  6 02 04 07 09 12 13
   2199821.20008   1714152.18708  22511345.87508  22511347.77708
  -3463780.96308  -2699049.63808  20995066.89208  20995069.01908
   2064798.54208   1608937.06208  21948477.72808  21948479.65208
 -14311680.48109 -11151957.66008  21433816.08509  21433816.63708
 -11201852.57308  -8728715.48908  22178470.63408  22178474.46608
  -6218755.42309  -4845781.57208  20442610.85909  20442613.41108
 94 01 25 04 45 30.0000000  0  6 02 04 07 09 12 13
   2259623.39908   1760751.30608  22522726.01508  22522727.84408
  -3510382.15208  -2735362.23108  20986199.00508  20986200.99208
   2132206.74808   1661462.92508  21961305.62008  21961307.22508
 -14361155.56508 -11190509.65208  21424401.12308  21424401.77708
 -11277831.04608  -8787919.50008  22164012.58008  22164016.12708
  -6209458.53709  -4838537.24808  20444379.87609  20444382.43708
 94 01 25 04 46 00.0000000  0  6 02 04 07 09 12 13
   2319618.39008   1807500.64208  22534142.70708  22534144.58508
  -3556455.75508  -2771263.72808  20977431.53608  20977433.54908
   2199738.99008   1714085.45408  21974156.88608  21974158.30608
 -14410172.28108 -11228704.47708  21415073.26208  21415074.33208
 -11353552.29708  -8846923.07908  22149603.45808  22149606.84708
  -6199686.31609  -4830922.53008  20446239.39509  20446242.01808
 94 01 25 04 46 30.0000000  0  6 02 04 07 09 12 13
   2379857.56508   1854440.26908  22545605.65008  22545607.34008
  -3601975.33908  -2806733.51708  20968769.42708  20968771.43608
   2267443.48608   1766842.19308  21987040.76808  21987042.16908
 -14458688.94708 -11266509.66408  21405840.76308  21405842.17408
 -11428966.40208  -8905687.32308  22135252.58708  22135256.01608
  -6189393.27909  -4822901.97708  20448198.08709  20448200.72308
 94 01 25 04 47 00.0000000  0  7 02 04 05 07 09 12 13
   2440331.65208   1901562.92308  22557113.51608  22557115.12108
  -3646963.14608  -2841788.94208  20960208.85908  20960210.57608
        -0.01617         0.43218  23765940.37317  23765941.39218
   2335307.66808   1819723.37008  21999954.72508  21999956.38808
 -14506690.79908 -11303913.70508  21396706.10008  21396707.94108
 -11504080.41808  -8964217.71808  22120958.89608  22120962.30708
  -6178590.83109  -4814484.47808  20450253.70309  20450256.42208
 94 01 25 04 47 30.0000000  0  7 02 04 05 07 09 12 13
   2501055.19708   1948879.99008  22568669.00108  22568670.47608
  -3691422.13608  -2876432.28308  20951748.57608  20951750.10508
    -80423.04507    -62666.86308  23750636.81107  23750636.80108
   2403330.92308   1872728.50208  22012899.23208  22012900.72708
 -14554158.46108 -11340901.52008  21387673.19608  21387675.09108
 -11578894.56808  -9022514.45808  22106721.99408  22106725.68308
  -6167283.31809  -4805673.42608  20452405.47809  20452408.17208
 94 01 25 04 48 00.0000000  0  7 02 04 05 07 09 12 13
   2562058.51208   1996414.99807  22580277.76308  22580279.35507
  -3735324.27608  -2910641.75108  20943394.33908  20943395.74208
   -160814.25407   -125309.24807  23735337.82807  23735338.31707
   2471524.81308   1925866.60308  22025875.69208  22025877.33108
 -14601074.83208 -11377459.74008  21378745.36908  21378747.20908
 -11653394.06708  -9080566.02308  22092545.20108  22092548.89108
  -6155460.52909  -4796460.85508  20454655.26309  20454658.02108
 94 01 25 04 48 30.0000000  0  7 02 04 05 07 09 12 13
   2623316.49008   2044148.44407  22591934.63108  22591936.21907
  -3778690.23008  -2944433.39208  20935141.83608  20935143.34508
   -241211.61707   -187956.48907  23720038.55107  23720038.93907
   2539859.16408   1979114.15108  22038878.82808  22038880.62508
 -14647466.99608 -11413609.49308  21369917.38108  21369919.05308
 -11727602.99108  -9138391.15608  22078423.73708  22078427.34308
  -6143150.71008  -4786868.77908  20456997.75508  20457000.56208
 94 01 25 04 49 00.0000000  0  7 02 04 05 07 09 12 13
   2684816.25908   2092070.37508  22603637.40308  22603639.27708
  -3821507.19808  -2977797.23408  20926993.74808  20926995.52508
   -321627.58507   -250618.21807  23704735.79207  23704735.89407
   2608321.48908   2032461.41008  22051906.81808  22051908.80408
 -14693354.71708 -11449366.16608  21361185.58508  21361186.73308
 -11801530.56208  -9195997.04808  22064355.87408  22064359.38408
  -6130367.29508  -4776907.66908  20459430.31208  20459433.19308
 94 01 25 04 49 30.0000000  0  7 02 04 05 07 09 12 13
   2746571.45908   2140191.33508  22615388.42108  22615390.93008
  -3863754.26708  -3010716.98808  20918954.21008  20918956.38308
   -402038.05508   -313275.66007  23689434.43008  23689433.83307
   2676918.48008   2085913.61508  22064960.43608  22064962.59908
 -14738751.19408 -11484740.02208  21352546.86508  21352547.66708
 -11875162.95908  -9253372.93608  22050344.35508  22050347.66308
  -6117100.99708  -4766570.28708  20461954.73808  20461957.74908
 94 01 25 04 50 00.0000000  0  7 02 04 05 07 09 12 13
   2808562.63308   2188496.15208  22627184.54708  22627187.76208
  -3905463.13708  -3043217.38108  20911017.15108  20911019.16608
   -482452.33908   -375936.07207  23674131.95208  23674131.51407
   2745620.60608   2139447.75108  22078034.29308  22078036.26608
 -14783686.41508 -11519754.48208  21343995.91808  21343996.83108
 -11948510.68208  -9310526.98808  22036386.94608  22036389.98008
  -6103366.73208  -4755868.24108  20464568.33808  20464571.17608
 94 01 25 04 50 30.0000000  0  7 02 04 05 07 09 12 13
   2870795.71307   2236989.40308  22639026.68907  22639030.71408
  -3946640.03008  -3075303.25708  20903181.66908  20903183.68808
   -562869.13108   -438598.48907  23658829.25908  23658829.00007
   2814420.74408   2193058.24808  22091126.71908  22091128.59008
 -14828154.68208 -11554405.07408  21335533.54608  21335534.86408
 -12021562.28308  -9367450.30608  22022485.63508  22022488.63508
  -6089157.46908  -4744796.08808  20467272.26708  20467275.00208
 94 01 25 04 51 00.0000000  0  7 02 04 05 07 09 12 13
   2933283.11407   2285680.88107  22650918.29307  22650921.55707
  -3987270.22908  -3106963.11208  20895450.09008  20895451.89308
   -643269.97108   -501248.44107  23643529.75908  23643529.45307
   2883330.17908   2246753.91308  22104239.68108  22104241.64508
 -14872128.62808 -11588670.48508  21327165.44808  21327167.05508
 -12094300.43908  -9424129.37708  22008643.93608  22008647.05208
  -6074460.13709  -4733343.61908  20470069.18509  20470071.78908
 94 01 25 04 51 30.0000000  0  7 02 04 05 07 09 12 13
   2996011.75507   2334560.30507  22662855.53007  22662858.03507
  -4027381.05208  -3138218.27508  20887817.24408  20887818.90008
   -723665.85208   -563894.56708  23628231.01408  23628230.89908
   2952333.58108   2300522.79608  22117370.53808  22117372.40408
 -14915615.67308 -11622556.51708  21318890.02508  21318891.83808
 -12166734.20008  -9480571.27108  21994860.05708  21994863.40808
  -6059288.35809  -4721521.44808  20472956.28009  20472958.92108
 94 01 25 04 52 00.0000000  0  7 02 04 05 07 09 12 13
   3058979.40407   2383625.97507  22674837.81507  22674840.61507
  -4066974.55508  -3169070.34808  20880283.02108  20880284.41508
   -804080.02908   -626554.94208  23612928.72908  23612928.79608
   3021414.42108   2354352.02808  22130516.14608  22130518.06208
 -14958620.52308 -11656066.79808  21310706.61608  21310708.32308
 -12238871.40208  -9536782.08208  21981132.56308  21981136.15008
  -6043654.37309  -4709339.11408  20475931.31609  20475933.99708
 94 01 25 04 52 30.0000000  0  7 02 04 05 07 09 12 13
   3122185.05008   2432877.09507  22686865.88408  22686868.34607
  -4106024.37908  -3199498.78408  20872852.14108  20872853.58208
   -884520.75508   -689236.00408  23597621.07608  23597621.69508
   3090589.87308   2408254.97508  22143679.64308  22143681.44708
 -15001132.81908 -11689193.27308  21302617.00308  21302618.75208
 -12310709.40108  -9592759.75308  21967461.98008  21967465.88308
  -6027560.01509  -4696798.04808  20478994.16309  20478996.71408
 94 01 25 04 53 00.0000000  0  7 02 04 05 07 09 12 13
   3185636.09008   2482319.40107  22698940.89008  22698942.99907
  -4144514.00508  -3229490.69008  20865527.84808  20865529.32808
   -964982.85807   -751933.77108  23582309.13507  23582310.47008
   3159891.23008   2462256.03608  22156867.49808  22156868.97408
 -15043135.58308 -11721922.70008  21294624.23008  21294625.77008
 -12382235.51808  -9648494.39308  21953850.95508  21953854.75508
  -6010997.08709  -4683891.87108  20482146.17509  20482148.52508
 94 01 25 04 53 30.0000000  0  7 02 04 05 07 09 12 13
   3249343.42008   2531961.48307  22711064.25708  22711065.48907
  -4182437.43108  -3259041.40908  20858311.31908  20858312.76208
  -1045457.17207   -814640.98908  23566995.05407  23566996.89108
   3229322.45208   2516358.26708  22170080.00408  22170081.34808
 -15084624.10608 -11754251.42908  21286728.96908  21286730.50308
 -12453442.23108  -9703980.15608  21940300.93308  21940304.45808
  -5993962.60009  -4670618.24608  20485387.86409  20485390.02608
 94 01 25 04 54 00.0000000  0  7 02 04 05 07 09 12 13
   3313305.68608   2581802.21407  22723235.56408  22723236.76207
  -4219798.40308  -3288153.84308  20851201.67108  20851203.22208
  -1125955.84007   -877367.25508  23551675.26407  23551678.57408
   3298883.91008   2570561.98608  22183317.14508  22183318.50908
 -15125592.52408 -11786174.86608  21278933.12508  21278934.53508
 -12524335.30508  -9759221.51608  21926810.63608  21926813.79508
  -5976466.73209  -4656985.10308  20488717.18609  20488719.45708
 94 01 25 04 54 30.0000000  0  7 02 04 05 07 09 12 13
   3377495.55908   2631820.28607  22735450.59008  22735451.49507
  -4256623.50708  -3316848.71908  20844194.08608  20844195.83008
  -1206475.76907   -940110.08408  23536351.72907  23536356.26508
   3368575.80508   2624867.35108  22196579.31908  22196580.76408
 -15166040.84108 -11817693.03208  21271236.18308  21271237.57808
 -12594924.67208  -9814226.22908  21913378.01408  21913381.02408
  -5958523.67309  -4643003.50108  20492131.56009  20492134.00008
 94 01 25 04 55 00.0000000  0  7 02 04 05 07 09 12 13
   3441938.08008   2682035.21807  22747713.23008  22747713.44907
  -4292908.80908  -3345122.97108  20837289.19308  20837290.83708
  -1286979.49806  -1002840.28008  23521032.07706  23521036.74008
   3438407.23408   2679281.44708  22209867.70008  22209869.31408
 -15205942.55508 -11848785.26908  21263643.20308  21263644.29508
 -12665184.58308  -9868974.21608  21900008.25808  21900010.95608
  -5940112.54409  -4628657.16208  20495635.04509  20495637.56908
 94 01 25 04 55 30.0000000  0  7 02 04 05 07 09 12 13
   3506647.23108   2732457.93507  22760026.93608  22760027.80707
  -4328644.91308  -3372969.27208  20830488.86008  20830490.52408
  -1367430.55707  -1065529.45708  23505722.88607  23505727.33508
   3508376.34408   2733802.83808  22223181.73808  22223183.95008
 -15245290.95108 -11879446.35508  21256155.37908  21256156.33308
 -12735101.48508  -9923454.90608  21886703.71608  21886706.26408
  -5921224.12709  -4613938.89708  20499229.22909  20499231.92708
 94 01 25 04 56 00.0000000  0  7 02 04 05 07 09 12 13
   3571611.06707   2783079.08207  22772388.87407  22772390.08107
  -4363826.07708  -3400383.16008  20823794.01508  20823795.54508
  -1447826.96807  -1128176.03108  23490425.12007  23490428.37808
   3578485.37208   2788433.26208  22236522.61608  22236525.62108
 -15284089.24208 -11909678.78008  21248772.47008  21248773.54208
 -12804675.12708  -9977668.12208  21873464.35408  21873467.04108
  -5901863.08509  -4598852.35408  20502913.44409  20502916.18908
 94 01 25 04 56 30.0000000  0  7 02 04 05 07 09 12 13
   3636805.49307   2833879.93507  22784794.69507  22784796.06907
  -4398463.31208  -3427373.19908  20817202.79708  20817204.20008
  -1528194.54807  -1190800.10208  23475132.16307  23475134.82908
   3648698.92608   2843145.13208  22249883.73608  22249886.38008
 -15322367.73808 -11939506.17308  21241488.40208  21241489.53708
 -12873921.88108 -10031626.62108  21860287.13508  21860289.99908
  -5882049.84409  -4583413.44908  20506683.77809  20506686.37808
 94 01 25 04 57 00.0000000  0  7 02 04 05 07 09 12 13
   3702237.21907   2884865.66707  22797245.65807  22797247.85007
  -4432548.70108  -3453933.23508  20810716.45008  20810717.91708
  -1608553.01408  -1253417.07908  23459840.79208  23459843.14008
   3718992.11808   2897919.04608  22263260.38308  22263262.75008
 -15360149.43008 -11968946.46108  21234298.78908  21234299.93508
 -12942848.49908 -10085335.67008  21847170.70108  21847173.72708
  -5861795.93909  -4567631.17208  20510537.96509  20510540.45208
 94 01 25 04 57 30.0000000  0  7 02 04 05 07 09 12 13
   3767923.27307   2936049.60407  22809745.09607  22809747.90507
  -4466054.58408  -3480041.71808  20804340.42508  20804342.11808
  -1688907.34608  -1316030.84108  23444550.21908  23444552.13508
   3789380.75108   2952767.35408  22276655.14608  22276657.31808
 -15397426.99108 -11997993.90508  21227204.95908  21227206.32208
 -13011440.58908 -10138784.04708  21834117.84208  21834121.17808
  -5841091.54209  -4551497.87108  20514477.85709  20514480.30908
 94 01 25 04 58 00.0000000  0  7 02 04 05 07 09 12 13
   3833858.63807   2987427.76107  22822292.38507  22822294.83207
  -4498979.67408  -3505697.62008  20798074.98308  20798076.81808
  -1769291.74208  -1378668.02408  23429253.85208  23429255.44308
   3859849.04108   3007677.70008  22290064.94508  22290066.71108
 -15434208.57008 -12026654.88008  21220205.46208  21220207.07508
 -13079703.50708 -10191975.93608  21821127.68408  21821130.95708
  -5819946.74309  -4535021.40208  20518501.46809  20518504.00408
 94 01 25 04 58 30.0000000  0  7 02 04 05 07 09 12 13
   3900044.54907   3039001.16107  22834888.35607  22834890.15407
  -4531333.54208  -3530908.41508  20791918.10708  20791920.03508
  -1849719.43608  -1441338.91908  23413948.92208  23413950.21808
   3930377.34208   3062634.79808  22303486.13608  22303487.45808
 -15470500.91408 -12054934.64008  21213299.15208  21213300.92108
 -13147642.42208 -10244915.34908  21808199.41708  21808202.65408
  -5798370.95709  -4518209.09708  20522607.22609  20522609.69608
 94 01 25 04 59 00.0000000  0  7 02 04 05 07 09 12 13
   3966495.06507   3090780.76307  22847533.56107  22847535.85907
  -4563107.58508  -3555667.39808  20785871.75408  20785873.62908
  -1930151.99708  -1504013.62008  23398643.00208  23398644.17208
   4000984.50508   3117653.34908  22316922.25008  22316923.54608
 -15506282.19408 -12082816.18108  21206490.08508  21206491.94508
 -13215240.81408 -10297589.42408  21795335.94808  21795339.00408
  -5776352.66109  -4501051.97908  20526797.26809  20526799.67008
 94 01 25 04 59 30.0000000  0  7 02 04 05 07 09 12 13
   4033211.19307   3142767.30807  22860229.52907  22860232.01107
  -4594303.86508  -3579976.17708  20779935.42108  20779937.17808
  -2010575.91808  -1566681.58908  23383339.06608  23383339.75908
   4071680.25808   3172740.93908  22330375.24808  22330376.54608
 -15541531.30008 -12110283.03308  21199782.38708  21199784.26608
 -13282487.71308 -10349989.60708  21782539.25108  21782542.19908
  -5753885.39209  -4483545.00908  20531072.63409  20531075.11808
 94 01 25 05 00 00.0000000  0  7 02 04 05 07 09 12 13
   4100175.01507   3194946.88407  22872972.11507  22872974.70807
  -4624929.29708  -3603840.14608  20774107.75108  20774109.23808
  -2090972.41108  -1629328.17808  23368040.28008  23368040.35108
   4142458.52308   3227892.81808  22343843.91408  22343845.35608
 -15576240.05608 -12137328.83008  21193177.67508  21193179.45308
 -13349382.92608 -10402115.74608  21769809.34508  21769812.44208
  -5730973.43609  -4465691.53408  20535432.68009  20535435.12508
 94 01 25 05 00 30.0000000  0  7 02 04 05 07 09 12 13
   4167357.61507   3247296.96607  22885756.18607  22885759.46207
  -4655016.92008  -3627285.03908  20768382.15208  20768383.66708
  -2171342.81508  -1691954.43308  23352746.18008  23352745.92708
   4213306.21508   3283098.81408  22357325.76608  22357327.27908
 -15610412.89508 -12163957.02308  21186675.00308  21186676.74708
 -13415943.33308 -10453981.00308  21757143.20108  21757146.39108
  -5707638.47809  -4447508.44908  20539873.14209  20539875.63708
 94 01 25 05 01 00.0000000  0  7 02 04 05 07 09 12 13
   4234759.19107   3299817.63007  22898582.09107  22898585.93807
  -4684564.17808  -3650308.86208  20762759.36408  20762760.96608
  -2251677.00708  -1754552.47908  23337459.00608  23337458.95208
   4284239.37308   3338371.39808  22370823.83808  22370825.42008
 -15644035.84308 -12190156.73608  21180276.81308  21180278.53108
 -13482160.59308 -10505578.86808  21744542.57008  21744545.53708
  -5683876.74909  -4428992.81808  20544394.76509  20544397.36408
 94 01 25 05 01 30.0000000  0  7 02 04 05 07 09 12 13
   4302389.47107   3352516.49807  22911451.77207  22911455.13307
  -4713551.43608  -3672896.32008  20757243.22208  20757245.09708
  -2331975.61408  -1817122.78508  23322178.52308  23322178.68908
   4355265.75208   3393716.63308  22384339.74608  22384341.51408
 -15677102.31608 -12215922.81908  21173984.39308  21173986.17208
 -13548024.56308 -10556901.45208  21732009.13308  21732011.89608
  -5659682.45609  -4410140.11608  20548998.60409  20549001.42108
 94 01 25 05 02 00.0000000  0  7 02 04 05 07 09 12 13
   4370228.14707   3405377.73007  22924361.35207  22924364.71407
  -4741975.75908  -3695045.11908  20751834.15208  20751836.21808
  -2412247.52408  -1879672.29708  23306902.91208  23306903.63508
   4426381.88708   3449131.80708  22397872.73708  22397874.59708
 -15709622.55908 -12241263.28208  21167796.17108  21167797.86808
 -13613539.22108 -10607951.82308  21719542.21208  21719544.81508
  -5635064.55709  -4390957.32808  20553683.18309  20553686.04108
 94 01 25 05 02 30.0000000  0  7 02 04 05 07 09 12 13
   4438272.29807   3458399.10507  22937308.57807  22937313.26107
  -4769849.06308  -3716764.54709  20746529.89608  20746532.17909
  -2492521.49908  -1942223.42108  23291627.12908  23291628.25608
   4497576.27208   3504607.94908  22411420.32308  22411422.58708
 -15741618.53208 -12266195.22308  21161707.54508  21161709.37008
 -13678718.08608 -10658740.54308  21707139.14108  21707141.85808
  -5610041.19709  -4371458.60108  20558445.03409  20558447.69208
 94 01 25 05 03 00.0000000  0  7 02 04 05 07 09 12 13
   4506544.43607   3511598.08407  22950302.17907  22950304.78007
  -4797146.48008  -3738035.23908  20741335.42008  20741337.61408
  -2572794.39608  -2004773.71508  23276351.43008  23276353.35008
   4568862.51608   3560155.66908  22424985.53608  22424987.89408
 -15773101.44008 -12290727.37308  21155716.46108  21155718.24908
 -13743545.29808 -10709255.23608  21694802.97908  21694805.86908
  -5584601.26409  -4351635.27708  20563286.11409  20563288.54908
 94 01 25 05 03 30.0000000  0  6 04 05 07 09 12 13
  -4823862.09608  -3758852.57908  20736251.67008  20736253.75808
  -2653063.98308  -2067321.43308  23261076.37008  23261078.68508
   4640241.36908   3615775.56108  22438568.70108  22438571.00008
 -15804077.82408 -12314864.82008  21149821.76408  21149823.61508
 -13808007.35708 -10759485.41808  21682536.30808  21682539.26908
  -5558735.74009  -4331480.33308  20568208.13709  20568210.54708
 94 01 25 05 04 00.0000000  0  6 04 05 07 09 12 13
  -4850031.16708  -3779244.04408  20731271.76108  20731273.77908
  -2733355.53908  -2129886.30008  23245797.05908  23245799.76308
   4711700.19208   3671457.76908  22452166.97708  22452169.22408
 -15834546.72608 -12338606.82908  21144023.55008  21144025.46008
 -13872113.56808 -10809438.32808  21670337.36608  21670340.32608
  -5532458.71809  -4311004.73008  20573208.35209  20573211.01208
 94 01 25 05 04 30.0000000  0  6 04 05 07 09 12 13
  -4875617.38908  -3799181.34808  20726403.08208  20726404.87408
  -2813620.34208  -2192430.29708  23230522.74508  23230526.20208
   4783279.26108   3727233.66908  22465787.97908  22465790.08908
 -15864466.53008 -12361920.96408  21138330.16108  21138331.85208
 -13935818.41808 -10859078.49808  21658214.59208  21658217.49808
  -5505729.23809  -4290176.56008  20578294.74909  20578297.62408
 94 01 25 05 05 00.0000000  0  7 02 04 05 07 09 12 13
        -0.88316        -0.91216  23002723.16716  23002724.45016
  -4900605.30208  -3818652.44508  20721648.15708  20721649.92108
  -2893840.82208  -2254939.79408  23215257.24408  23215260.93708
   4854984.42408   3783107.81708  22479433.24908  22479435.27808
 -15893824.65808 -12384797.41908  21132743.54808  21132745.14408
 -13999103.57908 -10908391.62808  21646171.81508  21646174.56008
  -5478533.67608  -4268985.20808  20583469.93508  20583472.81908
 94 01 25 05 05 30.0000000  0  7 02 04 05 07 09 12 13
     69535.43206     54183.23506  23015955.11406  23015957.71906
  -4925003.91408  -3837664.34208  20717005.38508  20717007.03408
  -2974015.59108  -2317413.67008  23200000.76308  23200004.30508
   4926796.92408   3839065.60908  22493098.78108  22493100.82508
 -15922603.12808 -12407222.20308  21127267.16808  21127268.54008
 -14061978.13508 -10957384.80108  21634207.10508  21634209.73308
  -5450886.05009  -4247441.60408  20588731.21509  20588734.01008
 94 01 25 05 06 00.0000000  0  6 04 05 07 09 12 13
  -4948794.46308  -3856202.43208  20712478.32008  20712479.81908
  -3054118.21608  -2379831.31608  23184758.14608  23184761.29508
   4998725.42408   3895113.78008  22506786.29808  22506788.13208
 -15950782.29008 -12429179.98608  21121904.94108  21121906.21308
 -14124436.50108 -11006053.66708  21622321.67508  21622324.07508
  -5422785.32609  -4225544.93608  20594078.75509  20594081.38108
 94 01 25 05 06 30.0000000  0  6 04 05 07 09 12 13
  -4971994.74308  -3874280.56808  20708063.28108  20708064.82708
  -3134183.51808  -2442219.88308  23169522.84108  23169525.25108
   5070716.91808   3951211.04808  22520485.83008  22520487.39508
 -15978415.67408 -12450712.48908  21116646.36208  21116647.73708
 -14186522.52608 -11054432.38308  21610507.13808  21610509.42608
  -5394280.02909  -4203333.01608  20599503.19809  20599505.84608
 94 01 25 05 07 00.0000000  0  6 04 05 07 09 12 13
  -4994603.29308  -3891897.61908  20703760.95508  20703762.49808
  -3214209.78408  -2504578.02608  23154294.73908  23154296.65608
   5142770.81408   4007356.92308  22534197.40708  22534198.56008
 -16005483.51708 -12471804.31308  21111495.35208  21111497.00108
 -14248231.08508 -11102516.96708  21598764.42108  21598766.80008
  -5365369.81909  -4180805.57708  20605004.60509  20605007.37608
 94 01 25 05 07 30.0000000  0  6 04 05 07 09 12 13
  -5016629.22508  -3909060.68008  20699569.52708  20699571.05308
  -3294185.01208  -2566896.38108  23139075.98108  23139077.79308
   5214896.24008   4063558.53808  22547922.79408  22547923.55208
 -16031970.48908 -12492443.51808  21106454.95708  21106456.85208
 -14309557.91708 -11150304.09208  21587094.24208  21587096.82608
  -5336055.15709  -4157962.97808  20610582.97509  20610585.76908
 94 01 25 05 08 00.0000000  0  6 04 05 07 09 12 13
  -5038079.76508  -3925775.38608  20695487.73108  20695489.24208
  -3374135.08708  -2629195.12508  23123862.10008  23123863.77908
   5287080.80208   4119806.23808  22561659.15208  22561659.72908
 -16057903.00508 -12512650.68808  21101520.42608  21101522.25308
 -14370513.68808 -11197802.08008  21575494.57908  21575497.60008
  -5306351.17808  -4134817.01608  20616235.38908  20616238.17408
 94 01 25 05 08 30.0000000  0  6 04 05 07 09 12 13
  -5058969.08208  -3942052.77008  20691512.61508  20691514.25708
  -3454101.54308  -2691506.64408  23108645.22508  23108646.62108
   5359309.30608   4176088.17108  22575403.67008  22575404.51108
 -16083295.59408 -12532437.13608  21096688.44408  21096690.24608
 -14431106.86608 -11245017.54308  21563964.00508  21563967.18308
  -5276271.09508  -4111377.98708  20621959.29108  20621962.09508
 94 01 25 05 09 00.0000000  0  6 04 05 07 09 12 13
  -5079298.05808  -3957893.52208  20687644.08108  20687645.83908
  -3534071.37008  -2753820.78408  23093427.61608  23093428.67508
   5431610.57908   4232426.82008  22589161.86108  22589163.01908
 -16108147.95008 -12551802.61508  21091959.22608  21091961.22008
 -14491319.67308 -11291936.62608  21552505.96608  21552509.16208
  -5245802.15508  -4087635.95408  20627757.13908  20627760.04608
 94 01 25 05 09 30.0000000  0  6 04 05 07 09 12 13
  -5099045.83608  -3973281.39108  20683886.11008  20683887.83208
  -3614035.40308  -2816130.41208  23078210.92908  23078211.96708
   5503992.79608   4288828.53808  22602935.66208  22602937.01408
 -16132467.76308 -12570753.13308  21087331.41308  21087333.43208
 -14551139.16708 -11338549.22408  21541122.85408  21541126.03008
  -5214935.82208  -4063584.26208  20633630.69908  20633633.66508
 94 01 25 05 10 00.0000000  0  6 04 05 07 09 12 13
  -5118223.79908  -3988225.24308  20680236.54608  20680238.29708
  -3694022.96708  -2878458.36408  23062989.69808  23062990.66308
   5576430.46508   4345273.47008  22616719.94208  22616721.45808
 -16156278.76408 -12589307.16608  21082800.20708  21082802.26008
 -14610582.10908 -11384868.39408  21529811.46408  21529814.35908
  -5183693.67108  -4039239.71408  20639575.63508  20639578.89208
 94 01 25 05 10 30.0000000  0  6 04 05 07 09 12 13
  -5136807.70208  -4002706.19409  20676700.08508  20676701.77309
  -3773983.30608  -2940765.09908  23047773.76208  23047774.69508
   5648966.33208   4401794.92208  22630523.15608  22630524.68308
 -16179544.60308 -12607436.41408  21078372.94208  21078374.91808
 -14669606.40408 -11430861.36308  21518579.56108  21518582.37808
  -5152038.42908  -4014573.28308  20645599.45008  20645602.78008
 94 01 25 05 11 00.0000000  0  6 04 05 07 09 12 13
  -5154800.37808  -4016726.45209  20673276.22008  20673277.77209
  -3853874.52308  -3003017.97408  23032570.88708  23032571.74808
   5721601.69208   4458393.88908  22644344.92208  22644346.62908
 -16202249.54708 -12625128.59508  21074052.38108  21074054.20208
 -14728198.13908 -11476517.26908  21507429.85908  21507432.71108
  -5119960.86608  -3989577.77008  20651703.97408  20651706.91508
 94 01 25 05 11 30.0000000  0  6 04 05 07 09 12 13
  -5172182.56409  -4030271.00708  20669968.69909  20669970.01708
  -3933681.43508  -3065205.15608  23017384.14208  23017384.81508
   5794323.80508   4515060.46908  22658183.29808  22658185.25108
 -16224357.68608 -12642355.72308  21069845.20708  21069846.87408
 -14786350.08908 -11521830.47808  21496363.63508  21496366.83808
  -5087458.28609  -3964251.08608  20657889.37209  20657891.89208
 94 01 25 05 12 00.0000000  0  7 02 04 05 07 09 12 13
        -0.24817        -0.61217  23192276.20917  23192278.30017
  -5188958.38709  -4043343.07208  20666776.46809  20666777.71108
  -4013404.78508  -3127327.22608  23002213.08808  23002213.67208
   5867141.26608   4571801.33708  22672040.05408  22672042.21508
 -16245858.71308 -12659109.76408  21065753.84308  21065755.23408
 -14844060.16008 -11566799.36308  21485381.64408  21485384.95408
  -5054533.09909  -3938595.09708  20664154.92109  20664157.31908
 94 01 25 05 12 30.0000000  0  7 02 04 05 07 09 12 13
     73053.89207     56924.68007  23206178.32807  23206180.52707
  -5205160.32409  -4055967.95208  20663693.32409  20663694.62308
  -4093066.32508  -3189401.13908  22987053.83208  22987054.70908
   5940021.88908   4628591.43508  22685908.93708  22685911.01208
 -16266791.00008 -12675420.63208  21061770.63408  21061771.88308
 -14901358.44808 -11611447.38708  21474478.32708  21474481.47908
  -5021221.16809  -3912637.75008  20670494.04109  20670496.31008
 94 01 25 05 13 00.0000000  0  7 02 04 05 07 09 12 13
    146362.30507    114048.10507  23220128.72107  23220130.59107
  -5220761.67209  -4068124.83608  20660724.50109  20660725.87508
  -4172643.20108  -3251409.06208  22971910.45308  22971911.52708
   6012980.26508   4685442.11308  22699792.83208  22699794.53308
 -16287121.50608 -12691262.57908  21057901.76308  21057903.08108
 -14958225.05708 -11655759.03408  21463656.99708  21463660.21208
  -4987506.29909  -3886366.42208  20676909.78309  20676911.82708
 94 01 25 05 13 30.0000000  0  7 02 04 05 07 09 12 13
    219873.00707    171329.15607  23234116.97507  23234119.37107
  -5235796.50409  -4079840.28408  20657863.30909  20657864.76608
  -4252192.34508  -3313395.38508  22956772.48508  22956773.75708
   6085981.26208   4742326.00208  22713684.50608  22713686.22608
 -16306901.64708 -12706675.67008  21054137.54108  21054138.91108
 -15014703.33108 -11699768.07708  21452909.64908  21452912.78008
  -4953436.98609  -3859818.91708  20683392.85509  20683394.79008
 94 01 25 05 14 00.0000000  0  7 02 04 05 07 09 12 13
    293594.70307    228774.57807  23248146.05207  23248148.28807
  -5250278.30808  -4091124.80108  20655107.32408  20655108.93608
  -4331719.32908  -3375364.46608  22941638.56108  22941640.18708
   6159022.01008   4799240.86808  22727583.58808  22727585.14408
 -16326157.20908 -12721680.00908  21050473.21208  21050474.71708
 -15070786.26708 -11743469.06208  21442237.58108  21442240.49108
  -4919010.81909  -3832993.34008  20689943.78309  20689945.82908
 94 01 25 05 14 30.0000000  0  6 04 05 07 09 12 13
  -5264192.13108  -4101966.73508  20652459.53108  20652461.10308
  -4411205.49508  -3437301.72308  22926512.86108  22926514.65108
   6232099.39508   4856184.27908  22741489.88308  22741491.35808
 -16344875.64608 -12736265.80208  21046911.22708  21046912.81208
 -15126461.57609 -11786852.42808  21431643.04909  21431645.80308
  -4884220.14409  -3805883.72708  20696564.11709  20696566.41208
 94 01 25 05 15 00.0000000  0  6 04 05 07 09 12 13
  -5277540.63808  -4112368.15708  20649919.39808  20649921.00608
  -4490663.45108  -3499217.02008  22911392.26908  22911394.35708
   6305205.38408   4913149.97908  22755401.21608  22755402.85208
 -16363052.06808 -12750429.27008  21043452.44608  21043454.14208
 -15181732.19308 -11829920.43408  21421125.25308  21421128.37508
  -4849072.90508  -3778496.26208  20703252.32708  20703254.94408
 94 01 25 05 15 30.0000000  0  7 02 04 05 07 09 12 13
        -0.32917        -0.16018  23290498.94117  23290501.88318
  -5290279.82408  -4122294.78708  20647495.17908  20647496.68208
  -4570058.50008  -3561083.30108  22896284.37408  22896286.32608
   6378388.19508   4970175.52308  22769327.37008  22769329.00308
 -16380655.00108 -12764145.86108  21040102.67908  21040104.48708
 -15236550.08408 -11872635.68008  21410693.66208  21410696.91608
  -4813525.31009  -3750796.82208  20710016.87609  20710019.56908
 94 01 25 05 16 00.0000000  0  7 02 04 05 07 09 12 13
     74686.73707     58197.49008  23304710.85607  23304713.74808
  -5302444.47808  -4131773.73008  20645180.20308  20645181.83208
  -4649436.43008  -3622936.21908  22881179.80908  22881181.47208
   6451605.55408   5027228.01308  22783260.32008  22783261.68208
 -16397712.42508 -12777437.38008  21036856.93108  21036858.55608
 -15290954.21308 -11915028.52908  21400340.90808  21400344.02508
  -4777621.08409  -3722819.50008  20716849.25009  20716852.00208
 94 01 25 05 16 30.0000000  0  7 02 04 05 07 09 12 13
    149579.06307    116555.14908  23318962.58607  23318965.80508
  -5314046.53408  -4140814.29308  20642972.50408  20642973.98108
  -4728822.27608  -3684795.32508  22866073.44908  22866075.09308
   6524851.95808   5084303.11008  22797198.80708  22797199.93908
 -16414225.70608 -12790304.88008  21033714.67308  21033716.14208
 -15344966.38308 -11957115.93808  21390062.83108  21390065.76608
  -4741387.06609  -3694585.19608  20723744.35409  20723747.02308
 94 01 25 05 17 00.0000000  0  7 02 04 05 07 09 12 13
    224675.74407    175072.01808  23333252.81407  23333255.76108
  -5325080.77708  -4149412.40808  20640872.66808  20640874.32508
  -4808213.29008  -3746658.46008  22850966.24508  22850967.52508
   6598147.30908   5141416.36008  22811146.19008  22811147.43608
 -16430187.84508 -12802742.91908  21030677.09108  21030678.60008
 -15398568.88409 -11998884.12208  21379862.74909  21379865.48008
  -4704810.05909  -3666083.63108  20730704.77409  20730707.35208
 94 01 25 05 17 30.0000000  0  7 02 04 05 07 09 12 13
    299993.87807    233761.44608  23347585.60107  23347588.87208
  -5335514.40008  -4157542.49508  20638887.19308  20638888.96708
  -4887585.04008  -3808506.57408  22835862.28708  22835863.62508
   6671511.45808   5198583.21708  22825106.50008  22825108.04008
 -16445580.11808 -12814736.89308  21027748.10908  21027749.64208
 -15451732.72009 -12040310.48508  21369746.04209  21369748.53208
  -4667865.65208  -3637295.77708  20737734.89408  20737737.64308
 94 01 25 05 18 00.0000000  0  6 04 05 07 09 12 13
  -5345325.21208  -4165187.27208  20637020.24908  20637022.18508
  -4966918.14008  -3870324.55908  22820765.60308  22820766.96608
   6744941.12508   5255801.13708  22839079.43708  22839081.46608
 -16460381.95708 -12826270.78108  21024931.40008  21024932.95608
 -15504446.62209 -12081386.25108  21359714.89809  21359717.28008
  -4630547.51808  -3608216.70308  20744836.22408  20744839.01008
 94 01 25 05 18 30.0000000  0  6 04 05 07 09 12 13
  -5354488.62808  -4172327.58208  20635276.61908  20635278.50108
  -5046153.45708  -3932066.36608  22805687.48108  22805688.87108
   6818477.84908   5313102.48208  22853072.84308  22853075.46708
 -16474566.14108 -12837323.38608  21022232.26108  21022233.78208
 -15556668.87708 -12122078.92308  21349777.07008  21349779.76008
  -4592818.25208  -3578817.27508  20752015.98308  20752018.65708
 94 01 25 05 19 00.0000000  0  7 02 04 05 07 09 12 13
         0.16217         0.28818  23390875.60417  23390879.39318
  -5362938.09908  -4178911.57109  20633668.84008  20633670.53409
  -5125205.33108  -3993665.22208  22790644.20008  22790645.80308
   6892186.42008   5370537.74408  22867099.31108  22867102.14608
 -16488064.50708 -12847841.59308  21019663.35808  21019665.15108
 -15608331.34008 -12162335.39308  21339945.83408  21339948.79108
  -4554614.68208  -3549048.26308  20759285.88508  20759288.54708
 94 01 25 05 19 30.0000000  0  7 02 04 05 07 09 12 13
     76383.33007     59519.60908  23405410.64207  23405414.76208
  -5370791.15008  -4185030.82609  20632174.35708  20632176.09509
  -5204178.33208  -4055202.61808  22775616.02108  22775617.78208
   6965950.36108   5428016.14308  22881136.14208  22881139.02908
 -16500978.66208 -12857904.56908  21017205.78008  21017207.70008
 -15659556.79008 -12202251.33408  21330198.09508  21330200.97908
  -4516064.20508  -3519008.93408  20766621.59408  20766624.44308
 94 01 25 05 20 00.0000000  0  7 02 04 05 07 09 12 13
    152949.90707    119181.85208  23419980.83207  23419984.86008
  -5378126.74208  -4190746.86309  20630778.76508  20630780.25409
  -5283115.81608  -4116712.34508  22760594.47708  22760596.57808
   7039720.82408   5485499.64408  22895174.05908  22895176.95908
 -16513351.51008 -12867545.76608  21014851.18108  21014853.05908
 -15710402.91308 -12241871.70208  21320522.39208  21320525.18308
  -4477229.28108  -3488747.95108  20774011.44208  20774014.53308
 94 01 25 05 20 30.0000000  0  7 02 04 05 07 09 12 13
    229752.71607    179028.14008  23434596.35907  23434599.85208
  -5384912.99208  -4196034.84409  20629487.48208  20629488.81409
  -5361977.52908  -4178163.03008  22745587.39808  22745589.72808
   7113554.64808   5543032.49308  22909224.25908  22909226.76408
 -16525126.31408 -12876720.94908  21012610.76608  21012612.46508
 -15760817.56408 -12281155.85408  21310928.81908  21310931.57108
  -4438062.09808  -3458228.06208  20781464.66808  20781467.87108
 94 01 25 05 21 00.0000000  0  7 02 04 05 07 09 12 13
    306786.17007    239054.15708  23449255.36907  23449258.80508
  -5391145.95708  -4200891.70609  20628301.30308  20628302.66309
  -5440794.28308  -4239578.68608  22730588.90708  22730591.47008
   7187425.50508   5600594.19008  22923281.29608  22923283.65108
 -16536315.77208 -12885440.01808  21010481.58108  21010483.29008
 -15810804.43508 -12320106.65708  21301416.73108  21301419.47008
  -4398571.23708  -3427455.95208  20788979.67908  20788982.76308
 94 01 25 05 21 30.0000000  0  7 02 04 05 07 09 12 13
    384030.73707    299244.70907  23463954.36507  23463957.72907
  -5396840.97508  -4205329.36809  20627217.42408  20627218.81909
  -5519596.73008  -4300983.20108  22715593.15708  22715595.73708
   7261297.48008   5658156.75708  22937338.95708  22937340.65508
 -16546954.93008 -12893730.27708  21008457.18408  21008458.87208
 -15860369.50608 -12358728.77508  21291984.86208  21291987.67608
  -4358767.21908  -3396439.82808  20796554.34508  20796557.10008
 94 01 25 05 22 00.0000000  0  7 02 04 05 07 09 12 13
    461495.27207    359606.63607  23478694.86307  23478698.81907
  -5401984.25208  -4209337.11009  20626238.66308  20626240.22109
  -5598376.19308  -4362369.81108  22700601.98208  22700604.58208
   7335172.02208   5715721.31708  22951397.34208  22951398.40908
 -16557057.82609 -12901602.68008  21006534.78209  21006536.55108
 -15909489.28909 -12397003.92608  21282637.74109  21282640.67708
  -4318631.00508  -3365164.86108  20804192.14608  20804194.71608
 94 01 25 05 22 30.0000000  0  7 02 04 05 07 09 12 13
    539192.58607    420149.96107  23493480.10807  23493483.60107
  -5406549.46908  -4212894.40709  20625370.09208  20625371.58809
  -5677137.51008  -4423742.28208  22685614.10008  22685616.64408
   7409058.30808   5773295.03808  22965457.63708  22965458.51108
 -16566636.27509 -12909066.42208  21004712.12509  21004713.94908
 -15958150.11809 -12434921.45108  21273377.84009  21273380.95008
  -4278153.84809  -3333624.22008  20811894.88309  20811897.18208
 94 01 25 05 23 00.0000000  0  7 02 04 05 07 09 12 13
    617128.77907    480879.42107  23508311.12207  23508314.17707
  -5410512.63508  -4215982.58409  20624615.98108  20624617.38909
  -5755858.95208  -4485083.67408  22670633.92408  22670636.40708
   7482964.09308   5830883.92908  22979521.51108  22979522.25208
 -16575696.27709 -12916126.18408  21002988.02509  21002989.76608
 -16006340.30408 -12472472.24308  21264207.45808  21264210.70508
  -4237328.50809  -3301812.27608  20819663.89809  20819665.89108
 94 01 25 05 23 30.0000000  0  7 02 04 05 07 09 12 13
    695326.58907    541812.75907  23523192.61707  23523193.88607
  -5413863.08908  -4218593.32109  20623978.41208  20623979.91109
  -5834503.63008  -4546365.24108  22655668.30608  22655670.64608
   7556924.24208   5888515.17908  22993595.91408  22993596.35808
 -16584197.80409 -12922750.77208  21001370.31009  21001372.01408
 -16054041.29608 -12509641.85108  21255130.26208  21255133.47908
  -4196141.11909  -3269718.21908  20827501.65309  20827503.66108
 94 01 25 05 24 00.0000000  0  7 02 04 05 07 09 12 13
    773788.06108    602951.55806  23538124.01308  23538123.60906
  -5416592.49508  -4220720.12809  20623458.95308  20623460.52309
  -5913059.65508  -4607577.73008  22640719.42408  22640721.99208
   7630976.59808   5946218.29408  23007687.68308  23007688.08208
 -16592100.81208 -12928908.98408  20999866.35408  20999867.98408
 -16101243.98308 -12546423.16408  21246147.96108  21246151.03808
  -4154587.06709  -3237338.44508  20835409.06709  20835411.24908
 94 01 25 05 24 30.0000000  0  7 02 04 05 07 09 12 13
    852480.38407    664270.26006  23553098.76307  23553098.55306
  -5418722.43708  -4222379.82009  20623053.51308  20623055.17809
  -5991539.18608  -4668730.60208  22625785.17008  22625787.72108
   7705106.86508   6003982.12608  23021794.06508  23021794.42608
 -16599410.53808 -12934604.89108  20998475.20708  20998476.76308
 -16147971.53208 -12582834.25108  21237256.00808  21237259.01908
  -4112694.15309  -3204694.61608  20843380.95409  20843383.17108
 94 01 25 05 25 00.0000000  0  7 02 04 05 07 09 12 13
    931405.84207    725770.61506  23568117.80307  23568118.84406
  -5420247.43508  -4223568.12009  20622763.13808  20622764.97009
  -6069919.04408  -4729805.81208  22610870.04708  22610872.24908
   7779301.56508   6061796.14908  23035912.93008  23035913.61608
 -16606110.13808 -12939825.37608  20997200.38608  20997201.89408
 -16194217.24508 -12618869.88208  21228455.68208  21228458.89008
  -4070460.23008  -3171785.06408  20851417.64608  20851420.11908
 94 01 25 05 25 30.0000000  0  7 02 04 05 07 09 12 13
   1010564.46707    787452.66506  23583181.41207  23583183.39806
  -5421170.98508  -4224287.75609  20622587.27108  20622589.17709
  -6148194.23508  -4790799.45108  22595974.94908  22595976.81808
   7853569.64308   6119667.36908  23050045.58408  23050046.87708
 -16612187.56209 -12944561.03808  20996043.83909  20996045.32508
 -16239974.15708 -12654524.63008  21219748.19608  21219751.62108
  -4027883.01908  -3138608.01008  20859519.79108  20859522.17208
 94 01 25 05 26 00.0000000  0  7 02 04 05 07 09 12 13
   1089924.50007    849291.64807  23598283.37207  23598285.82507
  -5421507.07408  -4224549.63708  20622523.48408  20622525.12108
  -6226379.23108  -4851722.80808  22581096.98508  22581098.71208
   7927881.94408   6177573.06508  23064186.60808  23064188.38608
 -16617691.59609 -12948849.90008  20994996.55109  20994997.83108
 -16285262.78308 -12689814.48708  21211129.98408  21211133.50908
  -3984987.41808  -3105182.87208  20867682.41508  20867684.78108
 94 01 25 05 26 30.0000000  0  6 04 05 07 09 12 13
  -5421256.81908  -4224354.63408  20622571.20108  20622572.63208
  -6304467.91208  -4912571.10908  22566237.34708  22566239.07008
   8002212.31208   6235492.82008  23078331.39508  23078333.21308
 -16622653.47809 -12952716.30508  20994052.45909  20994053.68608
 -16330086.89108 -12724742.37708  21202600.23608  21202603.74108
  -3941781.78308  -3071516.14008  20875903.95108  20875906.56808
 94 01 25 05 27 00.0000000  0  6 04 05 07 09 12 13
  -5420421.45708  -4223703.70208  20622730.21408  20622731.63708
  -6382464.01508  -4973347.27308  22551395.39408  22551396.89808
   8076569.96608   6293433.83708  23092481.04008  23092483.02708
 -16627068.05909 -12956156.23708  20993212.37809  20993213.52908
 -16374439.08708 -12759302.53408  21194160.26808  21194163.74908
  -3898263.24308  -3037605.59208  20884185.43108  20884187.97608
 94 01 25 05 27 30.0000000  0  6 04 05 07 09 12 13
  -5418980.78908  -4222581.11008  20623004.32808  20623005.72908
  -6460343.44808  -5034032.52308  22536575.62608  22536577.06808
   8151007.96608   6351437.46108  23106645.76208  23106647.97308
 -16630894.97609 -12959138.25208  20992484.15009  20992485.33908
 -16418284.96108 -12793468.14708  21185816.83808  21185820.01008
  -3854401.98409  -3003427.98608  20892532.31409  20892534.55208
 94 01 25 05 28 00.0000000  0  7 02 04 05 07 09 12 13
         0.02617        -0.37317  23659134.44217  23659138.14717
  -5416962.37108  -4221008.31808  20623388.42108  20623389.97208
  -6538137.70308  -5094651.40908  22521771.94408  22521773.41808
   8225492.08908   6409477.04308  23120818.89008  23120821.98408
 -16634151.39808 -12961675.71908  20991864.41908  20991865.73008
 -16461647.39408 -12827257.05108  21177565.39708  21177568.32808
  -3810225.28009  -2969004.58408  20900938.87309  20900941.15708
 94 01 25 05 28 30.0000000  0  7 02 04 05 07 09 12 13
     80568.06107     62779.86007  23674465.73707  23674469.74407
  -5414391.54908  -4219005.07408  20623877.68208  20623879.32108
  -6615882.45708  -5155231.72108  22506977.51808  22506979.25908
   8300007.00308   6467540.62408  23134998.08708  23135002.01008
 -16636830.67008 -12963763.46708  20991354.27608  20991355.91408
 -16504544.67309 -12860683.48808  21169402.32509  21169405.37008
  -3765755.91208  -2934353.12508  20909400.93708  20909403.37708
 94 01 25 05 29 00.0000000  0  7 02 04 05 07 09 12 13
    161359.66307    125734.28207  23689840.10307  23689843.82307
  -5411265.80108  -4216569.42109  20624472.39408  20624474.18709
  -6693576.37808  -5215772.43108  22492192.99808  22492194.80908
   8374553.91208   6525629.14408  23149183.72708  23149188.08608
 -16638910.20008 -12965383.89108  20990958.31308  20990960.33308
 -16546971.61708 -12893743.44308  21161328.67108  21161331.92408
  -3720993.20308  -2899473.08908  20917918.84608  20917921.38608
 94 01 25 05 29 30.0000000  0  7 02 04 05 07 09 12 13
    242354.99507    188847.45506  23705252.84907  23705256.68406
  -5407586.53308  -4213702.45209  20625172.55208  20625174.32709
  -6771227.61308  -5276279.87408  22477416.38208  22477418.45108
   8449106.77608   6583722.28908  23163371.07808  23163375.02608
 -16640403.12808 -12966547.24308  20990673.77408  20990676.16708
 -16588935.23308 -12926442.36308  21153343.00408  21153346.60908
  -3675948.61708  -2864373.41108  20926490.59208  20926492.95208
 94 01 25 05 30 00.0000000  0  7 02 04 05 07 09 12 13
    323549.79207    252116.06606  23720703.43807  23720707.61206
  -5403348.90608  -4210400.39608  20625978.85108  20625980.60008
  -6848828.90208  -5336748.40108  22462649.34508  22462651.56008
   8523655.18908   6641811.94708  23177557.41608  23177560.98008
 -16641319.33308 -12967261.20208  20990499.80008  20990501.92908
 -16630429.78008 -12958775.79008  21145446.76008  21145450.51308
  -3630620.81608  -2829053.05108  20935116.11108  20935118.46408
 94 01 25 05 30 30.0000000  0  7 02 04 05 07 09 12 13
    404941.99407    315538.50706  23736191.78307  23736195.42706
  -5398550.58408  -4206661.44508  20626892.05108  20626893.67908
  -6926367.78708  -5397168.30408  22447894.01908  22447896.44808
   8598213.90408   6699909.64708  23191745.64608  23191748.95608
 -16641651.51308 -12967520.05908  20990437.03208  20990438.80608
 -16671444.89208 -12990735.64108  21137641.74608  21137645.57108
  -3585004.05108  -2793507.52008  20943796.60908  20943798.95008
 94 01 25 05 31 00.0000000  0  7 02 04 05 07 09 12 13
    486529.88207    379113.44207  23751717.23507  23751720.42807
  -5393181.40708  -4202477.68408  20627913.94108  20627915.18808
  -7003828.20008  -5457527.05808  22433153.76408  22433156.04508
   8672781.65808   6758014.37508  23205935.41408  23205938.50108
 -16641400.85308 -12967324.74708  20990484.76608  20990486.41808
 -16711966.98508 -13022311.30608  21129930.69308  21129934.46808
  -3539089.11908  -2757729.66508  20952533.97808  20952536.23308
 94 01 25 05 31 30.0000000  0  7 02 04 05 07 09 12 13
    568329.82407    442853.60506  23767283.61207  23767285.27306
  -5387238.79008  -4197847.07808  20629044.74108  20629046.00708
  -7081206.90508  -5517822.15408  22418428.69408  22418431.34308
   8747374.40508   6816138.57408  23220129.92108  23220132.70508
 -16640576.47209 -12966682.37708  20990641.89109  20990643.29608
 -16751988.44308 -13053496.88308  21122315.24408  21122318.37008
  -3492872.54908  -2721716.76108  20961328.83908  20961331.04908
 94 01 25 05 32 00.0000000  0  7 02 04 05 07 09 12 13
    650359.41707    506772.71006  23782893.44807  23782894.47606
  -5380708.80708  -4192758.79408  20630287.38208  20630288.59208
  -7158497.51408  -5578048.60608  22403720.68808  22403723.29008
   8822019.10708   6874303.25408  23234334.50008  23234336.68108
 -16639166.55209 -12965583.74108  20990910.21909  20990911.59708
 -16791494.66709 -13084280.95608  21114797.62109  21114800.40508
  -3446344.33008  -2685461.01308  20970182.88008  20970185.27508
 94 01 25 05 32 30.0000000  0  7 02 04 05 07 09 12 13
    732622.33607    570873.64906  23798547.83407  23798548.77206
  -5373577.64808  -4187202.05308  20631644.31408  20631645.60008
  -7235702.78008  -5638208.55808  22389028.80808  22389031.50908
   8896711.21108   6932504.85908  23248548.05508  23248550.19908
 -16637179.22809 -12964035.17908  20991288.23309  20991289.58208
 -16830483.20409 -13114661.62508  21107378.61409  21107381.01008
  -3399506.32208  -2648963.86608  20979095.79908  20979098.46108
 94 01 25 05 33 00.0000000  0  6 04 05 07 09 12 13
  -5365834.54908  -4181168.46409  20633117.40708  20633119.12809
  -7312826.85308  -5698305.23708  22374352.48808  22374355.17708
   8971431.18008   6990728.18608  23262766.81108  23262768.58908
 -16634640.86709 -12962057.23708  20991771.44509  20991772.66108
 -16868957.88009 -13144641.89008  21100057.28609  21100059.52308
  -3352366.83608  -2612231.79008  20988066.06208  20988068.92408
 94 01 25 05 33 30.0000000  0  6 04 05 07 09 12 13
  -5357508.94108  -4174680.96409  20634701.51908  20634703.52309
  -7389884.49908  -5758350.15508  22359688.81308  22359691.58808
   9046165.95608   7048963.07408  23276988.44708  23276990.11708
 -16631569.51909 -12959663.97708  20992356.04909  20992357.29908
 -16906938.70709 -13174237.33608  21092829.78409  21092832.18908
  -3304949.82408  -2575283.46308  20997089.23608  20997092.01008
 94 01 25 05 34 00.0000000  0  6 04 05 07 09 12 13
  -5348593.27208  -4167733.66309  20636398.18108  20636400.15309
  -7466873.79508  -5818341.80808  22345038.16908  22345040.87808
   9120913.18208   7107207.66108  23291212.51008  23291214.29608
 -16627946.46909 -12956840.81908  20993045.28909  20993046.68808
 -16944415.79309 -13203440.25708  21085698.11309  21085700.69008
  -3257250.17608  -2538114.90708  21006166.12208  21006168.81608
 94 01 25 05 34 30.0000000  0  6 04 05 07 09 12 13
  -5339054.32908  -4160300.70209  20638213.47908  20638215.23309
  -7543734.79708  -5878233.50108  22330412.05908  22330414.64508
   9195707.62908   7165489.03108  23305445.61508  23305447.34308
 -16623726.67608 -12953552.67508  20993848.15508  20993849.76208
 -16981348.21009 -13232218.77208  21078670.07509  21078672.70708
  -3209231.14008  -2500697.47608  21015303.84908  21015306.57208
 94 01 25 05 35 00.0000000  0  7 02 04 05 07 09 12 13
        -0.59117        -0.03016  23877482.37217  23877485.15116
  -5328883.49108  -4152375.36308  20640149.10308  20640150.62608
  -7620425.67008  -5937992.62208  22315818.26508  22315820.79708
   9270587.78608   7223837.18508  23319695.17908  23319696.94108
 -16618861.66708 -12949761.77208  20994773.77208  20994775.62808
 -17017706.53809 -13260549.94508  21071751.24809  21071753.94608
  -3160867.57908  -2463011.58808  21024507.30308  21024510.06908
 94 01 25 05 35 30.0000000  0  6 04 05 07 09 12 13
  -5318105.13508  -4143976.63808  20642200.29608  20642201.60408
  -7696947.99808  -5997620.41108  22301256.90908  22301259.08708
   9345549.17708   7282248.64308  23333960.00008  23333961.95908
 -16613344.39808 -12945462.62008  20995823.56808  20995825.44808
 -17053501.17209 -13288441.87608  21064939.75809  21064942.34808
  -3112174.08709  -2425068.60508  21033773.58109  21033776.25608
 94 01 25 05 36 00.0000000  0  7 02 04 05 07 09 12 13
        -0.18917         0.45216  23909413.08917  23909416.06916
  -5306750.00108  -4135128.48008  20644361.22908  20644362.41808
  -7773331.03708  -6057139.66608  22286721.96308  22286723.77808
   9420545.85608   7340687.61408  23348231.23208  23348232.97008
 -16607221.99008 -12940691.93208  20996988.85208  20996990.58708
 -17088767.08409 -13315921.81308  21058228.89709  21058231.40808
  -3063189.99409  -2386899.18008  21043095.06309  21043097.54708
 94 01 25 05 36 30.0000000  0  7 02 04 05 07 09 12 13
     84241.46407     65643.24806  23925443.91907  23925447.15406
  -5294834.49708  -4125843.66908  20646628.80708  20646629.88608
  -7849565.22808  -6116542.93308  22272215.37908  22272216.77408
   9495568.25308   7399146.62807  23362507.32208  23362508.84507
 -16600514.36408 -12935465.22508  20998265.37308  20998267.15908
 -17123517.92409 -13343000.39108  21051616.08209  21051618.56708
  -3013933.06709  -2348517.16008  21052468.33609  21052470.66908
 94 01 25 05 37 00.0000000  0  7 02 04 05 07 09 12 13
    168672.94707    131433.99006  23941510.52207  23941514.09006
  -5282385.11108  -4116142.84908  20648997.76608  20648998.93008
  -7925689.77708  -6175860.75308  22257729.50008  22257730.51708
   9570575.44408   7457593.77207  23376780.64808  23376781.60207
 -16593245.69708 -12929801.33808  20999648.49708  20999650.29708
 -17157781.71609 -13369699.44208  21045095.83809  21045098.48508
  -2964435.58809  -2309947.70408  21061887.36109  21061889.50308
 94 01 25 05 37 30.0000000  0  7 02 04 05 07 09 12 13
    253281.73207    197362.89406  23957611.12307  23957614.79506
  -5269390.28008  -4106016.99908  20651470.55408  20651471.69508
  -8001720.84408  -6235105.72508  22243261.26608  22243262.18808
   9645568.44908   7516029.86407  23391051.52208  23391052.05507
 -16585428.78008 -12923710.23508  21001135.81908  21001137.71408
 -17191559.42109 -13396019.72708  21038667.93909  21038670.84508
  -2914702.73409  -2271194.83708  21071351.18909  21071353.22308
 94 01 25 05 38 00.0000000  0  7 02 04 05 07 09 12 13
    338070.28306    263431.85306  23973745.92906  23973751.27306
  -5255837.12408  -4095456.09808  20654049.50508  20654050.62008
  -8077668.82608  -6294285.96408  22228808.93208  22228809.55008
   9720561.04608   7574465.64907  23405322.16708  23405322.51707
 -16577063.64208 -12917191.96108  21002727.76008  21002729.56808
 -17224844.30409 -13421956.00008  21032333.85009  21032336.95508
  -2864731.74708  -2232256.42608  21080860.14908  21080862.57408
 94 01 25 05 38 30.0000000  0  7 02 04 05 07 09 12 13
    423051.39106    329650.87506  23989916.99206  23989922.90306
  -5241716.86408  -4084453.29608  20656736.55208  20656737.59908
  -8153544.23908  -6353409.65408  22214370.15908  22214370.81708
   9795557.82308   7632904.66407  23419593.40008  23419594.48807
 -16568128.13708 -12910229.24208  21004428.27708  21004430.12308
 -17257626.31208 -13447500.43008  21026095.48808  21026098.79108
  -2814516.96408  -2193128.01308  21090415.40408  21090418.43008
 94 01 25 05 39 00.0000000  0  7 02 04 05 07 09 12 13
    508214.50606    396011.72906  24006122.58906  24006128.53006
  -5227036.28608  -4073013.88708  20659530.07308  20659531.17908
  -8229381.45208  -6412503.56608  22199938.74108  22199939.54508
   9870555.73008   7691344.57807  23433865.06208  23433866.64607
 -16558631.56308 -12902829.32208  21006235.35808  21006237.26108
 -17289910.30708 -13472656.80608  21019952.04608  21019955.26708
  -2764067.30708  -2153816.57608  21100015.61808  21100018.64708
 94 01 25 05 39 30.0000000  0  7 02 04 05 07 09 12 13
    593592.84906    462540.28906  24022370.09006  24022375.21806
  -5211773.15708  -4061120.54108  20662434.69108  20662435.75808
  -8305154.23008  -6471547.28708  22185519.60708  22185520.43108
   9945593.67508   7749815.70607  23448144.17408  23448146.02007
 -16548561.25108 -12894982.34408  21008151.67108  21008153.52108
 -17321666.35009 -13497401.78808  21013909.26009  21013912.17808
  -2713356.93608  -2114301.99908  21109665.81408  21109668.36808
 94 01 25 05 40 00.0000000  0  7 02 04 05 07 09 12 13
    679214.62306    529258.57706  24038663.83206  24038667.82406
  -5195924.67908  -4048771.07908  20665450.59708  20665451.72808
  -8380832.40408  -6530517.29308  22171118.52108  22171119.50908
  10020670.55708   7808317.18207  23462430.53308  23462432.47307
 -16537893.48508 -12886669.81108  21010181.50808  21010183.38608
 -17352873.23509 -13521718.85208  21007970.93309  21007973.70108
  -2662368.79708  -2074570.99208  21119368.78908  21119371.04308
 94 01 25 05 40 30.0000000  0  7 02 04 05 07 09 12 13
    765076.02606    596163.55706  24055002.91206  24055006.30006
  -5179498.21808  -4035971.23808  20668576.27108  20668577.59908
  -8456394.61008  -6589396.93008  22156739.55308  22156740.73708
  10095780.66408   7866844.52707  23476723.62008  23476725.28007
 -16526625.68008 -12877889.71408  21012325.91908  21012327.68208
 -17383525.11409 -13545603.43608  21002138.10009  21002140.88008
  -2611101.02608  -2034622.08408  21129124.74708  21129126.99008
 94 01 25 05 41 00.0000000  0  7 02 04 05 07 09 12 13
    851167.48206    663247.79306  24071386.07206  24071389.10206
  -5162506.54208  -4022730.96808  20671809.57608  20671811.08708
  -8531827.87208  -6648176.09308  22142384.94208  22142386.45508
  10170924.46007   7925398.12007  23491022.67107  23491024.49907
 -16514776.02408 -12868656.22608  21014580.92308  21014582.49008
 -17413625.86009 -13569058.56208  20996410.12209  20996412.95908
  -2559561.72208  -1994461.58908  21138932.40208  21138934.54508
 94 01 25 05 41 30.0000000  0  7 02 04 05 07 09 12 13
    937490.94306    730512.78906  24087813.69706  24087815.58306
  -5144957.59808  -4009056.46608  20675148.98308  20675150.61808
  -8607107.41108  -6706835.47108  22128059.68308  22128061.41308
  10246092.78507   7983970.82807  23505326.06907  23505328.54707
 -16502341.76308 -12858967.20408  21016947.07808  21016948.62408
 -17443175.68109 -13592084.39908  20990786.87609  20990789.85608
  -2507755.07108  -1954092.77408  21148790.77608  21148792.85508
 94 01 25 05 42 00.0000000  0  6 04 05 07 09 12 13
  -5126857.81608  -3994952.73708  20678593.19108  20678594.88708
  -8682229.60508  -6765372.24208  22113764.50308  22113766.30008
  10321276.79007   8042555.77707  23519632.87407  23519635.40207
 -16489323.46808 -12848823.09008  21019424.38408  21019426.11808
 -17472180.19308 -13614685.32208  20985267.42108  20985270.50108
  -2455690.39708  -1913522.89608  21158698.03908  21158700.25708
 94 01 25 05 42 30.0000000  0  6 04 05 07 09 12 13
  -5108189.01208  -3980405.60008  20682145.78108  20682147.33808
  -8757191.33608  -6823783.96108  22099499.79308  22099501.56508
  10396496.95807   8101168.91407  23533946.85507  23533949.40907
 -16475719.55008 -12838222.63608  21022013.09208  21022014.88608
 -17500631.86108 -13636855.44808  20979853.26108  20979856.32808
  -2403364.56208  -1872749.50008  21168655.27008  21168657.48308
 94 01 25 05 43 00.0000000  0  6 04 05 07 09 12 13
  -5088901.13808  -3965376.10008  20685816.36908  20685817.86408
  -8831942.74608  -6882031.82008  22085274.77308  22085276.82508
  10471807.34107   8159852.30307  23548278.80407  23548280.40007
 -16461478.82908 -12827126.00008  21024723.10708  21024724.75408
 -17528482.02608 -13658556.89708  20974553.46708  20974556.67108
  -2350732.56608  -1831737.57708  21178671.05008  21178672.99508
 94 01 25 05 43 30.0000000  0  6 04 05 07 09 12 13
  -5069059.88708  -3949915.38308  20689592.10708  20689593.67808
  -8906549.67408  -6940167.08408  22071077.16908  22071079.56208
  10547154.29907   8218564.22107  23562617.32207  23562618.37107
 -16446655.94008 -12815575.71008  21027543.73308  21027545.35308
 -17555785.65408 -13679832.46608  20969357.85308  20969360.96508
  -2297853.44008  -1790533.07408  21188733.59308  21188735.70908
 94 01 25 05 44 00.0000000  0  6 04 05 07 09 12 13
  -5048713.78608  -3934061.27109  20693463.81908  20693465.46209
  -8981083.76708  -6998245.59408  22056893.42008  22056896.26008
  10622484.55208   8277263.09707  23576952.84308  23576953.51207
 -16431307.21408 -12803615.67308  21030464.45808  21030466.07808
 -17582591.91308 -13700720.47708  20964256.86408  20964259.92508
  -2244780.35708  -1749177.43308  21198832.85608  21198835.28408
 94 01 25 05 44 30.0000000  0  6 04 05 07 09 12 13
  -5027847.87108  -3917802.10509  20697434.37608  20697436.17309
  -9055536.65108  -7056260.82808  22042725.23308  22042728.35908
  10697818.18408   8335964.60507  23591288.23708  23591289.09907
 -16415412.68608 -12791230.33608  21033489.20908  21033490.85008
 -17608883.47008 -13721207.41208  20959253.71708  20959256.88408
  -2191499.69008  -1707660.02608  21208971.73208  21208974.40908
 94 01 25 05 45 00.0000000  0  6 04 05 07 09 12 13
  -5006474.09308  -3901147.19909  20701501.71308  20701503.45909
  -9129914.60208  -7114217.67208  22028571.45008  22028574.78008
  10773140.83408   8394657.56107  23605621.50808  23605622.14907
 -16398981.58308 -12778426.89408  21036615.90708  21036617.66408
 -17634666.74508 -13741298.28508  20954347.27608  20954350.54308
  -2138021.88908  -1665989.01208  21219148.28608  21219151.05208
 94 01 25 05 45 30.0000000  0  6 04 05 07 09 12 13
  -4984571.18408  -3884079.99208  20705669.75908  20705671.30108
  -9204218.59208  -7172116.89208  22014432.00708  22014435.23208
  10848457.74007   8453346.06407  23619953.96407  23619954.29607
 -16382007.50308 -12765200.35708  21039845.91008  21039847.89308
 -17659929.18808 -13760983.31308  20949539.95008  20949543.30208
  -2084337.90408  -1624157.33608  21229363.93208  21229366.80208
 94 01 25 05 46 00.0000000  0  6 04 05 07 09 12 13
  -4962104.89808  -3866573.79708  20709945.03108  20709946.27308
  -9278425.94508  -7229940.80708  22000310.95608  22000313.99508
  10923772.42308   8512032.81207  23634285.72108  23634286.61407
 -16364480.93608 -12751543.30908  21043180.89508  21043183.06808
 -17684658.93708 -13780253.25608  20944834.06208  20944837.36708
  -2030440.16208  -1582159.08708  21239620.07708  21239623.09808
 94 01 25 05 46 30.0000000  0  6 04 05 07 09 12 13
  -4939067.93608  -3848622.92408  20714328.82608  20714329.95908
  -9352516.76608  -7287673.91208  21986212.25708  21986214.95008
  10999082.03108   8570715.59607  23648616.98408  23648618.30207
 -16346406.01708 -12737458.97608  21046620.62508  21046622.74608
 -17708852.67908 -13799105.52708  20940230.18408  20940233.42708
  -1976328.77208  -1539994.36108  21249917.05108  21249920.19508
 94 01 25 05 47 00.0000000  0  6 04 05 07 09 12 13
  -4915450.85808  -3830220.01008  20718822.97008  20718824.25108
  -9426475.14908  -7345303.82308  21972138.76708  21972141.20008
  11074377.20408   8629387.13807  23662945.50008  23662947.56507
 -16327795.63908 -12722957.40908  21050162.18508  21050164.12508
 -17732503.32908 -13817534.60808  20935729.50608  20935732.66608
  -1922000.50408  -1497660.64008  21260255.43708  21260258.39608
 94 01 25 05 47 30.0000000  0  6 04 05 07 09 12 13
  -4891248.63308  -3811361.13808  20723428.37508  20723429.85808
  -9500281.71108  -7402815.43008  21958094.03108  21958096.29308
  11149660.02408   8688049.06307  23677271.40308  23677273.35207
 -16308648.32108 -12708037.44608  21053805.74008  21053807.63308
 -17755600.22508 -13835532.19408  20931334.32008  20931337.38708
  -1867448.70908  -1455152.74408  21270636.44008  21270639.23408
 94 01 25 05 48 00.0000000  0  6 04 05 07 09 12 13
  -4866465.26308  -3792049.41709  20728144.43308  20728146.05709
  -9573913.34908  -7460190.72808  21944082.52708  21944084.62208
  11224941.17608   8746709.71807  23691597.04208  23691598.45207
 -16288951.97808 -12692689.66608  21057553.68608  21057555.66108
 -17778127.88708 -13853086.21608  20927047.40108  20927050.60608
  -1812661.33608  -1412461.28408  21281062.44408  21281064.97108
 94 01 25 05 48 30.0000000  0  6 04 05 07 09 12 13
  -4841092.61308  -3772278.50409  20732972.60608  20732974.36009
  -9647346.09408  -7517411.03108  21930108.72708  21930110.81308
  11300252.16407   8805393.63007  23705928.09107  23705929.95607
 -16268675.94208 -12676890.16508  21061412.22508  21061414.04208
 -17800057.35608 -13870174.10908  20922874.39508  20922877.63908
  -1757613.26508  -1369566.68108  21291538.03308  21291540.24308
 94 01 25 05 49 00.0000000  0  6 04 05 07 09 12 13
  -4815147.30308  -3752061.38909  20737909.90508  20737911.68309
  -9720579.21108  -7574475.80408  21916172.97808  21916174.94908
  11375605.68607   8864110.62607  23720266.77107  23720270.02507
 -16247804.97408 -12660627.10108  21065383.92408  21065385.65708
 -17821381.56708 -13886790.40308  20918816.74308  20918819.91708
  -1702301.10908  -1326466.32508  21302063.49808  21302065.71308
 94 01 25 05 49 30.0000000  0  6 04 05 07 09 12 13
  -4788633.67908  -3731401.41809  20742955.36108  20742957.13009
  -9793613.51508  -7631385.64608  21902275.02308  21902276.91108
  11451019.78807   8922874.83807  23734617.08007  23734621.01207
 -16226311.08008 -12643878.62108  21069474.12808  21069475.92708
 -17842089.78209 -13902926.68108  20914876.31309  20914879.32408
  -1646717.63108  -1283154.53408  21312640.51808  21312642.87808
 94 01 25 05 50 00.0000000  0  6 04 05 07 09 12 13
  -4761563.69408  -3710307.92009  20748106.60908  20748108.40209
  -9866465.96508  -7688153.78408  21888411.59208  21888413.47608
  11526494.78007   8981686.53007  23748979.59507  23748983.45907
 -16204188.11708 -12626639.96108  21073684.06308  21073685.81808
 -17862188.84109 -13918588.28408  20911051.62309  20911054.65208
  -1590873.27208  -1239639.46208  21323267.45108  21323269.85908
 94 01 25 05 50 30.0000000  0  6 04 05 07 09 12 13
  -4733957.80608  -3688796.83209  20753359.84708  20753361.62809
  -9939149.59908  -7744790.37508  21874580.37208  21874582.28208
  11602010.24507   9040529.76807  23763349.90107  23763353.94407
 -16181450.48408 -12608922.33508  21078010.89808  21078012.82608
 -17881697.98909 -13933790.21508  20907339.10509  20907342.08908
  -1534790.85008  -1195938.88508  21333939.53608  21333942.21108
 94 01 25 05 51 00.0000000  0  6 04 05 07 09 12 13
  -4705827.68208  -3666877.25108  20758712.73708  20758714.44908
 -10011676.89408  -7801305.14608  21860778.94508  21860780.79608
  11677544.64007   9099387.74607  23777723.92107  23777728.28007
 -16158115.47008 -12590739.22408  21082451.20708  21082453.45108
 -17900630.94509 -13948543.17208  20903736.00809  20903739.11908
  -1478487.82608  -1152066.40008  21344653.50608  21344656.43408
 94 01 25 05 51 30.0000000  0  6 04 05 07 09 12 13
  -4677169.83608  -3644546.45608  20764165.89408  20764167.60108
 -10084063.10008  -7857709.97708  21847004.35808  21847006.07808
  11753077.84807   9158244.77607  23792097.12107  23792101.51007
 -16134205.46908 -12572108.07108  21087001.15508  21087003.31508
 -17919009.95808 -13962864.49008  20900238.42808  20900241.74208
  -1421989.84108  -1108041.98808  21355404.74308  21355407.68208
 94 01 25 05 52 00.0000000  0  6 04 05 07 09 12 13
  -4647994.96808  -3621812.79208  20769717.52808  20769719.31008
 -10156313.47608  -7914008.97408  21833255.57708  21833257.28308
  11828589.42807   9217084.93707  23806466.57207  23806469.95107
 -16109752.83208 -12553054.08408  21091654.45308  21091656.54208
 -17936854.99508 -13976769.73108  20896842.57408  20896846.07208
  -1365320.42708  -1063884.00608  21366188.70508  21366191.38508
 94 01 25 05 52 30.0000000  0  6 04 05 07 09 12 13
  -4618306.08208  -3598678.59008  20775367.13108  20775368.96808
 -10228426.82108  -7970201.19408  21819532.91708  21819534.65708
  11904066.53007   9275898.21307  23820829.66407  23820831.77907
 -16084775.06608 -12533590.90808  21096407.56108  21096409.53008
 -17954171.38408 -13990263.03908  20893547.29108  20893550.91608
  -1308488.21708  -1019599.17408  21377003.55108  21377006.00308
 94 01 25 05 53 00.0000000  0  6 04 05 07 09 12 13
  -4588075.15608  -3575122.01508  20781119.91708  20781121.71608
 -10300388.37008  -8026275.12808  21805839.17008  21805840.92408
  11979527.31307   9334698.78607  23835190.27307  23835191.32407
 -16059265.03408 -12513712.97708  21101261.82908  21101263.96608
 -17970939.59908 -14003329.19808  20890356.42008  20890360.03308
  -1251477.24508   -975175.05208  21387852.26008  21387854.78308
 94 01 25 05 53 30.0000000  0  6 04 05 07 09 12 13
  -4557306.84708  -3551146.70208  20786975.02708  20786976.77108
 -10372192.95508  -8082226.75608  21792175.23108  21792177.07608
  12054980.24706   9393493.25607  23849548.65806  23849549.81307
 -16033223.21808 -12493420.66308  21106217.19008  21106219.66808
 -17987152.10308 -14015962.33608  20887271.52808  20887274.86808
  -1194283.59208   -930608.57708  21398735.85408  21398738.44208
 94 01 25 05 54 00.0000000  0  5 04 05 09 12 13
  -4526018.36008  -3526766.05908  20792929.24308  20792930.69108
 -10443839.42308  -8138055.17008  21778541.34708  21778543.21408
 -16006649.80208 -12472714.11908  21111273.84808  21111276.39508
 -18002799.03809 -14028154.75908  20884294.25809  20884297.34408
  -1136900.26008   -885894.29008  21409655.46908  21409658.33708
 94 01 25 05 54 30.0000000  0  5 04 05 09 12 13
  -4494556.70208  -3502250.48708  20798916.44008  20798917.59908
 -10515678.08408  -8194033.34508  21764870.79608  21764872.70108
 -15979872.22808 -12451848.49308  21116369.42008  21116371.87308
 -18018219.86309 -14040170.98708  20881359.92409  20881362.85908
  -1079670.55608   -841299.70808  21420545.82308  21420548.86308
 94 01 25 05 55 00.0000000  0  5 04 05 09 12 13
  -4462915.17809  -3477594.76208  20804937.72009  20804938.79908
 -10587701.44008  -8250155.44408  21751165.05308  21751167.05208
 -15952873.10308 -12430810.23008  21121507.25408  21121509.54908
 -18033395.89109 -14051996.46208  20878472.04809  20878474.96508
  -1022578.87708   -796812.67908  21431410.04808  21431412.91608
 94 01 25 05 55 30.0000000  0  5 04 05 09 12 13
  -4430167.09509  -3452076.77708  20811169.36709  20811170.66308
 -10658976.14408  -8305694.17208  21737601.92808  21737604.14108
 -15924712.78008 -12408867.13608  21126866.22508  21126868.25808
 -18047393.09209 -14062903.37308  20875808.47409  20875811.44808
   -964694.73308   -751708.15508  21442425.20308  21442427.74708
 94 01 25 05 56 00.0000000  0  5 04 05 09 12 13
  -4396750.46208  -3426037.84308  20817528.09708  20817529.62608
 -10729942.07308  -8360992.29408  21724097.54108  21724099.77808
 -15895831.23308 -12386362.03908  21132362.05308  21132364.14808
 -18060653.30609 -14073236.01208  20873285.08809  20873288.09908
   -906462.91308   -706332.71408  21453506.48908  21453508.80608
 94 01 25 05 56 30.0000000  0  5 04 05 09 12 13
  -4362790.96608  -3399575.90008  20823990.27308  20823991.88908
 -10800721.05108  -8416144.74408  21710628.52808  21710630.77408
 -15866355.36108 -12363393.83108  21137971.18708  21137973.44808
 -18073304.94509 -14083094.43908  20870877.51209  20870880.55008
   -848015.22608   -660789.06308  21464628.87408  21464631.01808
 94 01 25 05 57 00.0000000  0  5 04 05 09 12 13
  -4328317.78108  -3372713.68008  20830550.38708  20830551.86408
 -10871340.61708  -8471172.97208  21697190.05708  21697192.20108
 -15836337.01308 -12340002.91608  21143683.50708  21143685.83208
 -18085379.64208 -14092503.30408  20868579.76508  20868582.82008
   -789386.47408   -615104.32308  21475785.64908  21475787.61508
 94 01 25 05 57 30.0000000  0  6 04 05 07 09 12 13
  -4293311.57908  -3345436.12308  20837211.92508  20837213.20308
 -10941792.00208  -8526070.15308  21683783.60708  21683785.58108
        -0.20116        -0.66317  23964332.18016  23964337.15517
 -15805775.48408 -12316188.74708  21149499.39808  21149501.65608
 -18096876.51808 -14101461.92308  20866392.01408  20866395.04208
   -730579.24808   -569280.51708  21486976.14608  21486978.06108
 94 01 25 05 58 00.0000000  0  6 04 05 07 09 12 13
  -4257770.62108  -3317741.87408  20843975.21008  20843976.47608
 -11012082.57508  -8580842.03308  21670407.79708  21670409.73208
     75636.01606     58936.60307  23978724.07906  23978729.01407
 -15774673.39108 -12291953.36208  21155418.03708  21155420.17008
 -18107798.20208 -14109972.33508  20864313.68908  20864316.78608
   -671598.87808   -523321.79308  21498199.66208  21498201.56308
 94 01 25 05 58 30.0000000  0  5 04 05 09 12 13
  -4221703.82608  -3289637.88108  20850838.36808  20850839.67408
 -11082224.40208  -8635498.00708  21657060.36408  21657062.18308
 -15743053.93808 -12267314.84608  21161435.28008  21161437.28508
 -18118159.40008 -14118046.00608  20862341.90508  20862345.07808
   -612463.24708   -477242.08508  21509452.76108  21509454.81508
 94 01 25 05 59 00.0000000  0  5 04 05 09 12 13
  -4185125.46008  -3261135.25508  20857798.91608  20857800.21608
 -11152235.20108  -8690051.88108  21643737.85608  21643739.59308
 -15710952.28008 -12242300.58308  21167544.00108  21167546.02108
 -18127980.67908 -14125698.96408  20860472.78408  20860476.08808
   -553196.06908   -431059.86008  21520730.85708  21520733.02408
 94 01 25 05 59 30.0000000  0  6 04 05 07 09 12 13
  -4148024.49608  -3232225.41208  20864859.08208  20864860.33408
 -11222079.93308  -8744476.35508  21630446.85508  21630448.66908
        -0.53917        -0.44316  24021869.39717  24021870.59216
 -15678343.60908 -12216891.24208  21173749.17308  21173751.13208
 -18137233.92308 -14132909.29908  20858711.98008  20858715.25308
   -493772.33708   -384755.65008  21532038.89808  21532040.94408
 94 01 25 06 00 00.0000000  0  6 04 05 07 09 12 13
  -4110404.94808  -3202911.47808  20872017.97208  20872019.28608
 -11291724.18008  -8798744.60508  21617194.03108  21617195.78608
     75542.14307     58864.00606  24036244.35207  24036246.16006
 -15645211.82608 -12191074.28408  21180053.73808  21180055.83108
 -18145891.60208 -14139655.55808  20857064.61308  20857067.66308
   -434167.56408   -338310.37808  21543381.32708  21543383.17308
 94 01 25 06 00 30.0000000  0  6 04 05 07 09 12 13
  -4072248.29408  -3173179.01908  20879278.99608  20879280.38008
 -11361128.54808  -8852825.93508  21603986.89208  21603988.55808
    151111.38306    117749.11206  24050624.87806  24050626.81306
 -15611537.30008 -12164834.40708  21186461.87308  21186464.03008
 -18153923.41208 -14145914.11408  20855536.30008  20855539.22908
   -374354.29608   -291702.65108  21554763.22808  21554765.18808
 94 01 25 06 01 00.0000000  0  6 04 05 07 09 12 13
  -4033568.33008  -3143038.78508  20886639.60608  20886641.00008
 -11430294.43108  -8906721.43008  21590825.05108  21590826.69208
    226702.90407    176651.52806  24065009.49407  24065010.94506
 -15577309.61108 -12138163.48908  21192975.06308  21192977.39808
 -18161330.85008 -14151686.14608  20854126.77708  20854129.65408
   -314337.17408   -244936.06608  21566183.80508  21566186.38008
 94 01 25 06 01 30.0000000  0  6 04 05 07 09 12 13
  -3994379.93408  -3112502.36908  20894096.94508  20894098.37008
 -11499228.12908  -8960436.00308  21577707.50608  21577709.03308
    302323.78207    235576.83406  24079400.65607  24079399.88306
 -15542510.84808 -12111047.58708  21199597.26308  21199599.54208
 -18168118.26708 -14156975.04608  20852835.17208  20852838.07608
   -254123.34908   -198016.20608  21577642.14408  21577644.89408
 94 01 25 06 02 00.0000000  0  6 04 05 07 09 12 13
  -3954684.38008  -3081570.76508  20901650.69608  20901652.25708
 -11567941.29208  -9013978.73508  21564631.89408  21564633.21008
    377964.88107    294517.97706  24093794.96407  24093794.42306
 -15507137.28708 -12083483.79708  21206328.60208  21206330.78408
 -18174300.35808 -14161792.26408  20851658.84408  20851661.77608
   -193730.39208   -150956.76108  21589134.63608  21589137.38608
 94 01 25 06 02 30.0000000  0  7 04 05 07 09 12 13 20
  -3914477.67608  -3050240.86108  20909301.58408  20909303.31108
 -11636454.28408  -9067365.48708  21551594.25508  21551595.38608
    453625.57707    353474.39606  24108192.21307  24108195.03506
 -15471187.28408 -12055470.83408  21213169.58808  21213171.71308
 -18179889.49108 -14166147.44208  20850595.28208  20850598.35208
   -133173.47308   -103769.55508  21600658.13508  21600660.95308
        -0.75916        -0.48916  24538618.25116  24538623.49216
 94 01 25 06 03 00.0000000  0  6 04 05 07 09 12 13
  -3873791.27908  -3018537.16708  20917043.80008  20917045.61108
 -11704800.97608  -9120622.65108  21538588.33708  21538589.19208
    529272.26607    412419.85806  24122587.98907  24122591.43706
 -15434692.60508 -12027033.45208  21220114.39908  21220116.32408
 -18184919.34408 -14170066.82008  20849638.01008  20849641.31408
    -72489.24108    -56483.14208  21612205.71708  21612208.65308
 94 01 25 06 03 30.0000000  0  7 04 05 07 09 12 13 20
  -3832645.18008  -2986475.26808  20924873.58408  20924875.44708
 -11773000.75308  -9173765.33708  21525610.41408  21525611.07808
    604879.03107    471334.17606  24136975.64607  24136978.05306
 -15397676.75008 -11998189.96208  21227158.25708  21227160.16308
 -18189406.07308 -14173562.98609  20848784.19708  20848787.62009
    -11696.61908     -9112.26308  21623773.90808  21623777.10108
         0.02916         0.18416  24501436.96416  24501450.28016
 94 01 25 06 04 00.0000000  0  6 04 05 07 09 12 13
  -3791004.66008  -2954028.10708  20932797.51308  20932799.29608
 -11841026.31108  -9226772.26808  21512665.74008  21512666.31908
    680473.41807    530238.75206  24151360.85007  24151361.11806
 -15360133.18308 -11968935.26708  21234302.46608  21234304.34908
 -18193316.32908 -14176609.95109  20848040.04708  20848043.50809
     49234.94308     38366.89208  21635368.66408  21635372.05208
 94 01 25 06 04 30.0000000  0  5 04 05 09 12 13
  -3748907.15408  -2921224.85708  20940808.47608  20940810.15408
 -11908900.52408  -9279661.25608  21499749.85108  21499750.51408
 -15322109.63408 -11939306.54308  21241538.28008  21241540.06308
 -18196673.90708 -14179226.26209  20847401.04308  20847404.49609
    110279.01608     85933.69808  21646985.20108  21646988.42708
 94 01 25 06 05 00.0000000  0  5 04 05 09 12 13
  -3706356.20308  -2888068.27208  20948905.62408  20948907.25908
 -11976607.03408  -9332419.57408  21486865.86908  21486866.63608
 -15283610.33808 -11909307.09308  21248864.47308  21248866.21508
 -18199471.01108 -14181405.84209  20846868.74508  20846872.21109
    171440.85608    133592.26408  21658624.24208  21658626.98908
 94 01 25 06 05 30.0000000  0  5 04 05 09 12 13
  -3663313.50908  -2854528.50908  20957096.46008  20957097.86108
 -12044092.07709  -9385005.32208  21474024.01009  21474024.97608
 -15244603.84208 -11878912.42708  21256287.25808  21256289.02308
 -18201667.24708 -14183117.20708  20846450.77708  20846454.22908
    232757.89308    181371.76408  21670292.60208  21670295.34708
 94 01 25 06 06 00.0000000  0  7 04 05 07 09 12 13 20
  -3619771.39508  -2820599.59908  20965382.29908  20965383.63808
 -12111354.53109  -9437417.62808  21461224.33509  21461225.48408
         0.45316        -0.43416  24208833.18316  24208832.72416
 -15205113.31008 -11848140.58408  21263801.97008  21263804.04508
 -18203270.05508 -14184366.15908  20846145.83008  20846149.21108
    294220.51008    229264.71508  21681988.61308  21681991.44308
         0.37517         0.26316  24408334.59517  24408345.83216
 94 01 25 06 06 30.0000000  0  7 04 05 07 09 12 13 20
  -3575693.49008  -2786253.18108  20973770.05508  20973771.49208
 -12178349.47409  -9489621.48308  21448475.55109  21448476.83308
     75525.49406     58850.19706  24223204.74806  24223204.53406
 -15165085.00108 -11816949.68808  21271418.94608  21271421.31308
 -18204239.30208 -14185121.41608  20845961.39108  20845964.78008
    355865.74708    277299.97008  21693719.29208  21693722.12008
    -97877.97707    -76268.61606  24389708.83407  24389718.47806
 94 01 25 06 07 00.0000000  0  6 04 05 09 12 13 20
  -3531077.34008  -2751487.34808  20982260.16208  20982261.74108
 -12245088.77008  -9541626.13008  21435775.38608  21435776.78508
 -15124514.43808 -11785336.26908  21279139.33508  21279141.69508
 -18204576.04009 -14185383.81408  20845897.47409  20845900.65008
    417690.21208    325474.87208  21705484.05708  21705486.50708
   -195732.41207   -152518.81106  24371088.57307  24371096.33006
 94 01 25 06 07 30.0000000  0  6 04 05 09 12 13 20
  -3485932.98108  -2716309.92208  20990850.83208  20990852.45508
 -12311596.80808  -9593450.58308  21423119.10008  21423120.60708
 -15083416.89308 -11753312.21008  21286959.93408  21286962.25708
 -18204294.40109 -14185164.35708  20845951.11009  20845954.18608
    479677.30908    373776.50108  21717279.75408  21717281.90608
   -293576.13807   -228760.68906  24352469.69807  24352475.66606
 94 01 25 06 08 00.0000000  0  6 04 05 09 12 13 20
  -3440273.87008  -2680731.38508  20999539.37908  20999540.96608
 -12377886.66308  -9645105.01508  21410504.34608  21410506.01108
 -15041784.77408 -11720871.61408  21294882.31608  21294884.61908
 -18203392.37409 -14184461.47908  20846122.71109  20846125.84708
    541826.53908    422204.45908  21729106.29108  21729108.56208
   -391405.99107   -304991.73907  24333853.72807  24333858.67507
 94 01 25 06 08 30.0000000  0  6 04 05 09 12 13 20
  -3394140.25608  -2644783.10808  21008318.41608  21008319.73408
 -12443983.53008  -9696609.07108  21397926.41208  21397928.12508
 -14999623.81508 -11688018.93608  21302905.50808  21302907.77808
 -18201893.48908 -14183293.52208  20846407.87808  20846410.92408
    604111.98408    470738.56608  21740958.94708  21740961.36608
   -489244.51307   -381229.51607  24315236.55807  24315240.36707
 94 01 25 06 09 00.0000000  0  6 04 05 09 12 13 20
  -3347557.12108  -2608484.56008  21017183.09708  21017184.24108
 -12509889.38108  -9747964.28408  21385384.74208  21385386.46308
 -14956953.83708 -11654769.62208  21311025.37308  21311027.56008
 -18199813.06508 -14181672.41208  20846803.70008  20846806.70008
    666515.66808    519364.80708  21752834.29108  21752836.46108
   -587106.26707   -457485.40507  24296615.22607  24296617.54207
 94 01 25 06 09 30.0000000  0  6 04 05 09 12 13 20
  -3300538.39008  -2571846.58508  21026130.47108  21026131.69708
 -12575584.07208  -9799154.96108  21372883.23108  21372884.84508
 -14913776.26308 -11621124.76308  21319241.82208  21319243.83908
 -18197152.91708 -14179599.57708  20847309.91608  20847312.93508
    729033.61908    568080.08608  21764731.27108  21764733.16408
   -684992.02806   -533760.01207  24277989.40406  24277990.10507
 94 01 25 06 10 00.0000000  0  5 04 05 09 12 13
  -3253094.05908  -2534876.96808  21035158.59108  21035160.12708
 -12641060.98708  -9850175.94308  21360423.47308  21360424.92408
 -14870097.10208 -11587089.05108  21327553.59708  21327555.55608
 -18193915.66808 -14177077.05908  20847925.99208  20847928.95308
    791660.69008    616880.38308  21776648.92308  21776650.83608
 94 01 25 06 10 30.0000000  0  5 04 05 09 12 13
  -3205179.69708  -2497541.09308  21044276.41708  21044278.03308
 -12706270.76108  -9900988.75208  21348014.55108  21348015.92408
 -14825883.35908 -11552636.78708  21335967.39508  21335969.30308
 -18190062.64208 -14174074.71308  20848659.32708  20848662.22908
    854433.36708    665794.14508  21788594.19708  21788596.32908
 94 01 25 06 11 00.0000000  0  5 04 05 09 12 13
  -3156778.84708  -2459826.13708  21053486.92608  21053488.32808
 -12771181.77108  -9951568.74908  21335662.42408  21335663.94408
 -14781122.23308 -11517757.99708  21344485.00908  21344487.06708
 -18185569.85108 -14170573.85208  20849514.39408  20849517.21808
    917373.42108    714838.34108  21800571.20908  21800573.72408
 94 01 25 06 11 30.0000000  0  5 04 05 09 12 13
  -3107930.99208  -2421762.87408  21062782.57308  21062783.68708
 -12835851.04408 -10001960.37608  21323356.38708  21323357.99108
 -14735869.72708 -11482496.32008  21353096.02908  21353098.17908
 -18180484.76308 -14166611.45908  20850482.16308  20850484.95408
    980431.17208    763974.25808  21812570.55608  21812573.38408
 94 01 25 06 12 00.0000000  0  5 04 05 09 12 13
  -3058596.90308  -2383320.73108  21072170.72708  21072171.62008
 -12900261.96608 -10052150.68908  21311099.46608  21311101.11008
 -14690099.25108 -11446831.03908  21361805.77108  21361807.87908
 -18174781.49709 -14162167.35808  20851567.49109  20851570.39508
   1043630.34408    813220.37508  21824596.84408  21824599.75408
 94 01 25 06 12 30.0000000  0  5 04 05 09 12 13
  -3008802.51108  -2344519.90908  21081646.23108  21081647.06308
 -12964434.25508 -10102155.05408  21298887.88108  21298889.68208
 -14643838.59908 -11410783.80708  21370608.93608  21370610.84708
 -18168488.60809 -14157263.81208  20852764.99009  20852768.03208
   1106939.80308    862552.42708  21836644.03208  21836646.91608
 94 01 25 06 13 00.0000000  0  6 04 05 09 12 13 20
  -2958525.47008  -2305342.99408  21091213.46708  21091214.51608
 -13028374.15608 -10151978.34908  21286720.42508  21286722.49008
 -14597079.91708 -11374348.51708  21379506.83408  21379508.67408
 -18161595.96309 -14151892.92808  20854076.47509  20854079.76908
   1170368.08108    911977.06108  21848713.89608  21848716.91308
        -0.27016        -0.18018  24147623.49216  24147623.53918
 94 01 25 06 13 30.0000000  0  6 04 05 09 12 13 20
  -2907735.35908  -2265766.28208  21100878.31908  21100879.56208
 -13092080.30808 -10201619.50608  21274597.30008  21274599.66408
 -14549814.68808 -11337518.49208  21388501.32408  21388502.87508
 -18154087.32608 -14146042.05809  20855505.28808  20855508.65109
   1233928.98208    961505.03808  21860809.23608  21860812.16108
    -97825.22307    -76227.40608  24129007.73307  24129007.99508
 94 01 25 06 14 00.0000000  0  6 04 05 09 12 13 20
  -2856396.21108  -2225761.74708  21110647.90908  21110649.08308
 -13155527.15108 -10251058.61308  21262523.64608  21262526.05608
 -14502004.93608 -11300264.14908  21397599.11608  21397600.79808
 -18145925.20208 -14139681.97908  20857058.39608  20857061.77508
   1297658.18308   1011164.15908  21872936.60008  21872939.52708
   -195589.25407   -152407.17208  24110403.51107  24110403.95908
 94 01 25 06 14 30.0000000  0  6 04 05 09 12 13 20
  -2804564.17908  -2185373.15008  21120511.13708  21120512.38608
 -13218768.25208 -10300337.40908  21250489.31508  21250491.61808
 -14453706.63108 -11262629.12408  21406789.92508  21406791.41608
 -18137159.85208 -14132851.85308  20858726.35708  20858729.63408
   1361503.35608   1060913.64308  21885085.81308  21885088.84008
   -293341.32407   -228577.60408  24091801.11307  24091802.42308
 94 01 25 06 15 00.0000000  0  6 04 05 09 12 13 20
  -2752271.66308  -2144625.73208  21130462.04408  21130463.45608
 -13281828.70208 -10349475.43708  21238489.55408  21238491.57808
 -14404939.14508 -11224628.48408  21416070.06408  21416071.54608
 -18127813.47608 -14125568.97408  20860504.93308  20860508.08508
   1425440.24708   1110734.59208  21897252.66008  21897255.66508
   -391102.25207   -304754.94508  24073197.33107  24073198.88608
 94 01 25 06 15 30.0000000  0  6 04 05 09 12 13 20
  -2699546.06008  -2103540.84308  21140495.28008  21140496.83208
 -13344694.88008 -10398462.08108  21226526.78008  21226528.59108
 -14355713.50008 -11186270.85008  21425437.51708  21425439.05408
 -18117897.42108 -14117842.18808  20862391.99508  20862394.96308
   1489455.46808   1160616.57008  21909434.59708  21909437.41308
   -488882.05506   -380946.99308  24054589.49706  24054591.95508
 94 01 25 06 16 00.0000000  0  6 04 05 09 12 13 20
  -2646417.41008  -2062141.88808  21150605.36508  21150606.97408
 -13407350.00808 -10447284.26008  21214604.16808  21214605.76608
 -14306032.60808 -11147558.47808  21434891.47908  21434893.24108
 -18107421.44608 -14109679.09408  20864385.58808  20864388.62408
   1553537.28908   1210550.44608  21921629.08508  21921631.67708
   -586688.81906   -457160.02908  24035976.83906  24035979.75208
 94 01 25 06 16 30.0000000  0  6 04 05 09 12 13 20
  -2592899.88008  -2020439.91908  21160789.61708  21160790.96708
 -13469767.42009 -10495921.20308  21202726.61409  21202728.20508
 -14255907.14608 -11108499.68608  21444429.92708  21444431.90008
 -18096390.46409 -14101083.53008  20866484.75309  20866487.91208
   1617678.97508   1260530.96508  21933834.83208  21933837.34408
   -684525.91706   -533396.72208  24017358.61706  24017361.78908
 94 01 25 06 17 00.0000000  0  6 04 05 09 12 13 20
  -2538980.05508  -1978424.48008  21171050.33208  21171051.34108
 -13531930.43109 -10544359.90508  21190897.33609  21190898.98808
 -14205329.98408 -11069088.91608  21454054.39308  21454056.46208
 -18084784.11109 -14092039.62808  20868693.27209  20868696.62308
   1681899.33308   1310572.78208  21946055.44608  21946058.04108
   -782371.56406   -609640.09208  23998739.05206  23998742.17308
 94 01 25 06 17 30.0000000  0  6 04 05 09 12 13 20
  -2484664.92808  -1936101.01708  21181386.17608  21181387.09408
 -13593845.23709 -10592605.20208  21179115.34309  21179116.97508
 -14154319.93408 -11029340.84308  21463761.37208  21463763.25608
 -18072601.65209 -14082546.81208  20871011.46709  20871014.85908
   1746196.92108   1360674.77808  21958290.70908  21958293.52608
   -880223.29706   -685888.19308  23980117.97106  23980121.63108
 94 01 25 06 18 00.0000000  0  6 04 05 09 12 13 20
  -2429939.02508  -1893457.46408  21191799.95808  21191801.05208
 -13655493.04108 -10640642.44808  21167383.94708  21167385.66508
 -14102847.38208 -10989232.37508  21473556.51708  21473558.23108
 -18059817.67909 -14072585.28608  20873444.17009  20873447.53508
   1810595.70808   1410855.64408  21970544.86808  21970548.26708
   -978053.85306   -762119.78208  23961501.35206  23961504.86908
 94 01 25 06 18 30.0000000  0  6 04 05 09 12 13 20
  -2374766.39408  -1850465.80308  21202298.79208  21202300.26308
 -13716862.38508 -10688462.71508  21155705.32508  21155707.40908
 -14050885.85008 -10948742.87808  21483444.54708  21483446.38008
 -18046402.31809 -14062131.76408  20875997.08009  20876000.38308
   1875123.44208   1461137.00808  21982823.71308  21982827.50808
  -1075831.95306   -838310.49708  23942895.05206  23942898.21108
 94 01 25 06 19 00.0000000  0  6 04 05 09 12 13 20
  -2319143.22508  -1807123.07408  21212883.62808  21212885.13708
 -13777959.21908 -10736070.63708  21144078.50608  21144081.15008
 -13998413.95108 -10907855.68908  21493429.59708  21493431.67808
 -18032344.93408 -14051177.96308  20878672.19908  20878675.40508
   1939789.39608   1511526.07708  21995129.09908  21995133.01508
  -1173545.09007   -914450.60508  23924300.86907  23924303.90608
 94 01 25 06 19 30.0000000  0  6 04 05 09 12 13 20
  -2263077.11708  -1763435.19608  21223552.74808  21223554.20608
 -13838766.71008 -10783453.09808  21132507.07108  21132509.97208
 -13945416.35608 -10866558.85608  21503514.70808  21503516.96208
 -18017649.83908 -14039727.24408  20881468.56208  20881471.89308
   2004587.39108   1562018.02508  22007460.32708  22007463.64008
  -1271195.89507   -990542.13008  23905718.23007  23905721.60908
 94 01 25 06 20 00.0000000  0  6 04 05 09 12 13 20
  -2206566.75208  -1719401.14308  21234306.38208  21234307.79508
 -13899290.48708 -10830614.49008  21120989.81608  21120992.60208
 -13891904.57308 -10824861.35608  21513697.38608  21513699.87408
 -18002337.38308 -14027795.46808  20884382.23508  20884385.81808
   2069495.87108   1612596.05808  22019812.41508  22019815.31508
  -1368802.89207  -1066599.50808  23887144.14607  23887147.48708
 94 01 25 06 20 30.0000000  0  6 04 05 09 12 13 20
  -2149602.72408  -1675013.59008  21245146.29208  21245147.65408
 -13959535.76408 -10877558.87108  21109525.82808  21109528.32608
 -13837900.23608 -10782780.05408  21523974.08208  21523976.52308
 -17986415.15908 -14015388.55408  20887411.95508  20887415.64108
   2134505.33208   1663252.77008  22032183.52508  22032186.30408
  -1466371.81307  -1142627.22908  23868577.46207  23868580.60008
 94 01 25 06 21 00.0000000  0  6 04 05 09 12 13 20
  -2092207.86908  -1630290.32908  21256068.22908  21256069.41708
 -14019516.75508 -10924297.31308  21098112.36908  21098114.32208
 -13783426.00408 -10740332.60208  21534340.16508  21534342.56108
 -17969908.19808 -14002526.00008  20890553.06408  20890556.75708
   2199589.37608   1713967.59808  22044568.64808  22044571.50808
  -1563925.68307  -1218643.22008  23850013.06707  23850016.61208
 94 01 25 06 21 30.0000000  0  6 04 05 09 12 13 20
  -2034380.67808  -1585230.18508  21267072.45308  21267073.67508
 -14079235.22309 -10970831.19008  21086748.57509  21086750.16908
 -13728504.74608 -10697536.82308  21544791.23108  21544793.47708
 -17952822.16408 -13989212.22008  20893804.45408  20893807.95808
   2264740.60308   1764734.78308  22056966.34708  22056969.48108
  -1661468.53907  -1294650.62408  23831451.20707  23831454.66108
 94 01 25 06 22 00.0000000  0  6 04 05 09 12 13 20
  -1976111.55208  -1539825.67408  21278160.70708  21278161.89608
 -14138691.51609 -11017160.76708  21075434.41709  21075435.83008
 -13673149.00808 -10654402.49008  21555324.78008  21555327.41108
 -17935147.24908 -13975439.56608  20897167.98308  20897171.33408
   2329967.43508   1815560.89708  22069378.52508  22069381.71208
  -1758988.35007  -1370640.07208  23812893.84707  23812897.20108
 94 01 25 06 22 30.0000000  0  6 04 05 09 12 13 20
  -1917420.95608  -1494092.74508  21289329.06708  21289330.29708
 -14197885.75109 -11063286.13908  21064170.09209  21064171.36508
 -13617359.35008 -10610930.05408  21565940.97908  21565943.86508
 -17916875.62208 -13961201.94108  20900645.09008  20900648.39008
   2395276.28208   1866450.92108  22081806.53508  22081809.32208
  -1856475.24407  -1446603.87808  23794342.67207  23794346.12508
 94 01 25 06 23 00.0000000  0  6 04 05 09 12 13 20
  -1858319.64908  -1448039.78308  21300575.56408  21300576.79508
 -14256813.87409 -11109204.15408  21052956.41509  21052957.59608
 -13561127.07608 -10567112.73608  21576641.49008  21576644.60308
 -17897999.38708 -13946493.19008  20904237.20508  20904240.51908
   2460673.76008   1917409.99008  22094251.62008  22094253.72708
  -1953919.19707  -1522534.22408  23775799.85007  23775803.13708
 94 01 25 06 23 30.0000000  0  6 04 05 09 12 13 20
  -1798825.75008  -1401680.89908  21311896.84208  21311898.07508
 -14315482.49309 -11154919.95908  21041792.16409  21041793.32008
 -13504474.50108 -10522967.89308  21587421.93208  21587424.89408
 -17878527.19808 -13931320.06608  20907942.70108  20907946.01408
   2526149.87308   1968430.31708  22106711.49308  22106712.96108
  -2051327.17807  -1598436.53408  23757263.94607  23757266.81908
 94 01 25 06 24 00.0000000  0  6 04 05 09 12 13 20
  -1738937.92308  -1355015.05608  21323293.06408  21323294.39808
 -14373861.50609 -11200410.09908  21030682.87609  21030684.22408
 -13447378.55208 -10478477.57008  21598287.16608  21598289.93308
 -17858451.18408 -13915676.43008  20911763.06008  20911766.34608
   2591710.97708   2019516.87108  22119187.24708  22119188.56208
  -2148689.16107  -1674303.00408  23738736.80307  23738739.44608
 94 01 25 06 24 30.0000000  0  6 04 05 09 12 13 20
  -1678640.59508  -1308030.12208  21334767.23908  21334768.75808
 -14431920.01809 -11245650.50008  21019634.65409  21019636.28008
 -13389807.67208 -10433617.17308  21609242.70408  21609245.22308
 -17837752.06908 -13899547.26308  20915702.02908  20915705.23308
   2657375.15608   2070683.74308  22131682.50108  22131684.11108
  -2245983.46307  -1750116.73308  23720222.78807  23720224.91508
 94 01 25 06 25 00.0000000  0  6 04 05 09 12 13 20
  -1617937.75908  -1260729.21008  21346318.74308  21346320.17208
 -14489661.98908 -11290644.24508  21008646.67008  21008648.41308
 -13331771.24008 -10388394.01608  21620286.64208  21620289.20708
 -17816448.23908 -13882946.88908  20919756.15508  20919759.25008
   2723122.76508   2121915.64508  22144193.43508  22144195.73608
  -2343226.63008  -1825890.62708  23701718.26808  23701720.04908
 94 01 25 06 25 30.0000000  0  6 04 05 09 12 13 20
  -1556830.92108  -1213113.49408  21357947.09308  21357948.42708
 -14547078.73608 -11335384.57308  20997720.53408  20997722.40308
 -13273276.95908 -10342814.08808  21631417.59108  21631420.24608
 -17794545.57608 -13865879.88908  20923924.12508  20923927.14008
   2788946.76808   2173207.08708  22156719.10908  22156721.87508
  -2440422.31808  -1901627.51308  23683222.55508  23683224.46108
 94 01 25 06 26 00.0000000  0  6 04 05 09 12 13 20
  -1495295.31408  -1165163.67308  21369656.93608  21369658.16908
 -14604155.62608 -11379860.07508  20986859.15008  20986861.09808
 -13214301.13707 -10296858.93808  21642640.08707  21642643.09908
 -17772022.26508 -13848329.26608  20928210.04908  20928213.19108
   2854867.83908   2224574.16708  22169263.60608  22169266.41608
  -2537546.30707  -1977308.52308  23664740.28507  23664742.26008
 94 01 25 06 26 30.0000000  0  6 04 05 09 12 13 20
  -1433323.03208  -1116873.58508  21381449.79808  21381451.16008
 -14660916.48608 -11424089.31608  20976057.93108  20976059.82508
 -13154856.29907 -10250538.33508  21653952.02707  21653955.28408
 -17748875.58408 -13830292.89808  20932614.59408  20932617.86308
   2920887.55908   2276018.11108  22181827.11708  22181829.54908
  -2634593.64507  -2052929.80108  23646272.75307  23646274.72308
 94 01 25 06 27 00.0000000  0  6 04 05 09 12 13 20
  -1370922.27508  -1068249.62008  21393324.01708  21393325.62308
 -14717377.98408 -11468085.29008  20965313.67408  20965315.49208
 -13094962.26607 -10203867.69808  21665349.15407  21665352.78408
 -17725109.80708 -13811774.11908  20937136.96708  20937140.40508
   2987000.61208   2327534.77708  22194408.07508  22194410.39208
  -2731566.18307  -2128492.79308  23627819.45007  23627821.37008
 94 01 25 06 27 30.0000000  0  6 04 05 09 12 13 20
  -1308101.36408  -1019298.26208  21405278.26508  21405279.97008
 -14773542.66208 -11511849.97208  20954625.89708  20954627.69608
 -13034621.52307 -10156848.96108  21676831.93907  21676835.36708
 -17700722.87208 -13792771.32608  20941777.54308  20941781.04908
   3053207.91208   2379124.87508  22207006.86708  22207009.18808
  -2828459.49907  -2203994.06308  23609381.32907  23609383.03608
 94 01 25 06 28 00.0000000  0  6 04 05 09 12 13 20
  -1244884.28108   -970038.19908  21417308.13608  21417309.70508
 -14829429.63809 -11555398.26308  20943991.00009  20943992.72208
 -12973850.35307 -10109494.80108  21688396.78307  21688400.02108
 -17675732.94308 -13773298.66808  20946532.96308  20946536.48308
   3119490.14608   2430773.36308  22219619.85608  22219622.21808
  -2925289.61507  -2279446.08808  23590954.13607  23590956.69108
 94 01 25 06 28 30.0000000  0  5 04 05 09 12 13
  -1181288.34208   -920482.93008  21429410.17308  21429411.72708
 -14885032.29509 -11598725.01008  20933410.22509  20933411.78508
 -12912665.88407 -10061818.56908  21700039.59107  21700043.05808
 -17650153.57108 -13753366.70908  20951400.68208  20951404.06808
   3185832.88808   2482469.01408  22232244.27508  22232246.75808
 94 01 25 06 29 00.0000000  0  5 04 05 09 12 13
  -1117360.47808   -870669.01608  21441575.18508  21441576.87208
 -14940376.22109 -11641850.14908  20922878.61909  20922880.11508
 -12851116.63107 -10013858.10008  21711751.98407  21711755.41908
 -17624031.76208 -13733012.06708  20956371.53108  20956374.87208
   3252188.34408   2534174.57408  22244871.05608  22244873.84708
 94 01 25 06 29 30.0000000  0  5 04 05 09 12 13
  -1053087.96608   -820586.54208  21453805.80808  21453807.69708
 -14995452.42009 -11684766.66708  20912398.10309  20912399.53308
 -12789192.98508  -9965605.89008  21723535.76408  21723539.07408
 -17597367.08108 -13712234.40408  20961445.76608  20961448.96908
   3318556.04808   2585889.67908  22257500.44208  22257503.28508
 94 01 25 06 30 00.0000000  0  5 04 05 09 12 13
   -988392.80208   -770174.72208  21466116.66608  21466118.88108
 -15050198.08609 -11727425.62408  20901980.44409  20901981.84708
 -12726833.75408  -9917014.28108  21735402.53408  21735405.52308
 -17570093.23608 -13690982.06808  20966635.91908  20966638.99308
   3385001.15908   2637665.10008  22270144.71708  22270147.43008
 94 01 25 06 30 30.0000000  0  6 04 05 09 12 13 20
   -923252.12608   -719415.74708  21478512.65608  21478514.65808
 -15104599.10709 -11769816.02608  20891628.29309  20891629.74708
 -12664026.32608  -9868073.41808  21747354.42208  21747357.33608
 -17542194.41008 -13669242.73108  20971944.92908  20971948.00508
   3451538.93608   2689512.73008  22282806.71008  22282809.14908
         0.18817        -0.42117  23498933.53417  23498935.09217
 94 01 25 06 31 00.0000000  0  6 04 05 09 12 13 20
   -857659.09608   -668304.29308  21490994.78408  21490996.51908
 -15158662.20909 -11811943.11608  20881340.40809  20881341.83208
 -12600749.36108  -9818766.68408  21759396.01908  21759398.63108
 -17513657.32708 -13647006.05108  20977375.37808  20977378.45708
   3518181.83208   2741442.26708  22295488.59408  22295490.78108
    -96468.24708    -75170.59607  23480576.57908  23480577.24307
 94 01 25 06 31 30.0000000  0  6 04 05 09 12 13 20
   -791619.09508   -616844.55408  21503562.03708  21503563.51508
 -15212380.61209 -11853801.61208  20871118.09109  20871119.59108
 -12536988.44608  -9769082.86608  21771529.46508  21771531.89308
 -17484474.04608 -13624265.84508  20982928.68108  20982931.82408
   3584936.98508   2793459.26708  22308191.89408  22308193.76508
   -192812.37108   -150243.91007  23462243.45608  23462243.60907
 94 01 25 06 32 00.0000000  0  6 04 05 09 12 13 20
   -725211.88708   -565098.68308  21516198.96808  21516200.34608
 -15265797.68709 -11895425.30508  20860953.09509  20860954.57908
 -12472811.97508  -9719075.25108  21783742.00808  21783744.22008
 -17454704.29508 -13601068.64808  20988593.65408  20988596.74108
   3651743.91408   2845516.60308  22320904.91108  22320906.54408
   -289089.06908   -225264.68307  23443922.82208  23443922.83007
 94 01 25 06 32 30.0000000  0  6 04 05 09 12 13 20
   -658478.77908   -513098.86408  21528897.88508  21528899.16608
 -15318929.49609 -11936826.71808  20850842.33709  20850844.02108
 -12408248.92408  -9668766.41308  21796027.82308  21796030.17908
 -17424376.02408 -13577436.23308  20994364.94808  20994367.93908
   3718574.16008   2897592.11308  22333622.25708  22333623.75808
   -385323.70708   -300252.68208  23425609.96008  23425610.23508
 94 01 25 06 33 00.0000000  0  6 04 05 09 12 13 20
   -591408.99908   -460836.70308  21541660.75308  21541661.95808
 -15371756.07108 -11977990.28708  20840789.65708  20840791.55508
 -12343288.18508  -9618147.68508  21808389.03608  21808391.93408
 -17393476.20808 -13553358.45808  21000245.00308  21000247.93008
   3785439.78308   2949695.19108  22346346.22008  22346348.07208
   -481500.75808   -375195.81808  23407308.14708  23407308.77308
 94 01 25 06 33 30.0000000  0  6 04 05 09 12 13 20
   -524008.46208   -408316.80908  21554486.45208  21554487.70308
 -15424261.50608 -12018903.61608  20830798.22908  20830800.23508
 -12277951.92908  -9567236.33208  21820822.20908  21820825.18308
 -17362012.91408 -13528841.60608  21006232.26408  21006235.23708
   3852331.96908   3001818.97208  22359075.09508  22359077.49508
   -577625.28708   -450098.03508  23389016.15308  23389017.36808
 94 01 25 06 34 00.0000000  0  6 04 05 09 12 13 20
   -456274.98408   -355537.48008  21567375.59808  21567376.88608
 -15476450.17108 -12059570.11508  20820867.05008  20820869.03908
 -12212244.10008  -9516035.42508  21833326.26408  21833328.90608
 -17329987.12808 -13503886.44708  21012326.57908  21012329.58808
   3919249.82308   3053962.75808  22371808.82908  22371811.76208
   -673695.30308   -524957.78208  23370734.56308  23370736.15508
 94 01 25 06 34 30.0000000  0  6 04 05 09 12 13 20
   -388170.53008   -302469.07908  21580335.47208  21580336.70108
 -15528298.84208 -12099971.68408  20811000.54208  20811002.47008
 -12146130.17908  -9464518.08408  21845907.27908  21845909.96308
 -17297364.98908 -13478466.60308  21018534.32708  21018537.47408
   3986226.35708   3106152.27308  22384553.76108  22384557.04108
   -769674.50908   -599746.76908  23352470.24408  23352472.13108
 94 01 25 06 35 00.0000000  0  6 04 05 09 12 13 20
   -319708.48508   -249122.03108  21593363.41708  21593364.70508
 -15579800.30108 -12140102.70208  20801200.13108  20801202.07008
 -12079604.87308  -9412680.18508  21858566.55708  21858569.37908
 -17264142.60808 -13452579.04208  21024856.36408  21024859.56708
   4053264.94108   3158390.14008  22397310.84208  22397314.09908
   -865555.95508   -674459.57708  23334224.45308  23334226.70608
 94 01 25 06 35 30.0000000  0  6 04 05 09 12 13 20
   -250898.78508   -195504.07508  21606457.53308  21606458.95308
 -15630953.07808 -12179962.01608  20791465.86008  20791467.83408
 -12012671.41708  -9360524.24208  21871303.65908  21871306.56808
 -17230319.27808 -13426223.21308  21031292.75608  21031296.06608
   4120365.78308   3210676.51808  22410079.82308  22410082.89108
   -961335.95908   -749093.34608  23315997.97208  23316000.47508
 94 01 25 06 36 00.0000000  0  7 04 05 09 12 13 16 20
   -181738.29108   -141612.77108  21619618.31508  21619619.89108
 -15681760.09608 -12219551.90108  20781797.50108  20781799.38908
 -11945319.54008  -9308042.26708  21884120.41408  21884123.25008
 -17195895.51708 -13399399.51808  21037843.36108  21037846.71708
   4187528.10508   3263010.80008  22422860.30008  22422863.38308
        -0.20216         0.29316  24419632.27716  24419637.28516
  -1057012.03608   -823646.13908  23297791.22908  23297793.95808
 94 01 25 06 36 30.0000000  0  7 04 05 09 12 13 16 20
   -112248.59008    -87464.94308  21632841.70908  21632843.39408
 -15732233.56208 -12258881.88008  20772192.98508  20772194.62908
 -11877571.19608  -9255251.36208  21897012.70908  21897015.23308
 -17160891.14508 -13372123.39608  21044504.42008  21044507.78108
   4254731.44308   3315377.04008  22435648.63008  22435651.57008
    -94040.99306    -73278.18706  24401737.06506  24401741.99006
  -1152601.03808   -898131.07008  23279601.28408  23279603.90208
 94 01 25 06 37 00.0000000  0  7 04 05 09 12 13 16 20
    -42442.92008    -33070.91008  21646125.33508  21646127.12808
 -15782391.32109 -12297965.85508  20762648.48709  20762650.08408
 -11809458.95608  -9202176.90008  21909974.19108  21909976.58408
 -17125330.41808 -13344413.75008  21051271.45108  21051274.69408
   4321951.65008   3367756.41308  22448440.39308  22448443.00208
   -188161.24807   -146618.60106  24383826.89807  24383832.65806
  -1248123.83008   -972564.42108  23261423.92308  23261426.50408
 94 01 25 06 37 30.0000000  0  7 04 05 09 12 13 16 20
     27724.72808     21605.18008  21659477.76308  21659479.57008
 -15832219.81609 -12336793.25508  20753166.44109  20753168.28108
 -11740971.82108  -9148810.31508  21923006.76708  21923009.15708
 -17089192.79208 -13316254.56908  21058148.22808  21058151.45708
   4389208.37908   3420164.23908  22461239.13508  22461241.26208
   -282348.15407   -220010.92006  24365903.81107  24365910.59006
  -1343557.30208  -1046928.16108  23243263.53808  23243265.91808
 94 01 25 06 38 00.0000000  0  7 04 05 09 12 13 16 20
     98259.64608     76567.46108  21672900.10708  21672901.87908
 -15881712.03309 -12375358.61309  20743748.40909  20743750.33209
 -11672100.41508  -9095144.30108  21936112.16608  21936114.82308
 -17052472.37808 -13287641.27008  21065135.94108  21065139.22608
   4456507.79208   3472605.31908  22474045.78008  22474047.85608
   -376598.18207   -293452.44606  24347969.08007  24347976.49806
  -1438892.29308  -1121215.16808  23225121.81008  23225124.18108
 94 01 25 06 38 30.0000000  0  7 04 05 09 12 13 16 20
    169165.04008    131818.42308  21686392.93008  21686394.66108
 -15930870.59709 -12413663.98709  20734393.76209  20734395.75509
 -11602858.31008  -9041189.45108  21949288.32008  21949291.07808
 -17015166.07108 -13258571.43708  21072235.12108  21072238.47908
   4523852.57908   3525081.75708  22486861.01808  22486863.23008
   -470897.01406   -366931.99706  24330024.74706  24330033.09806
  -1534122.53108  -1195420.54708  23207000.08008  23207002.34408
 94 01 25 06 39 00.0000000  0  7 04 05 09 12 13 16 20
    240448.48708    187363.96408  21699957.82808  21699959.41808
 -15979693.55509 -12451707.85108  20725103.09909  20725104.91508
 -11533252.25208  -8986951.00108  21962534.06908  21962536.67308
 -16977267.43608 -13229040.04908  21079447.00808  21079450.41508
   4591248.83608   3577598.30808  22499685.81808  22499688.69408
   -565241.25506   -440446.93606  24312071.88606  24312080.28106
  -1629238.66808  -1269537.01808  23188899.86108  23188902.21108
 94 01 25 06 39 30.0000000  0  7 04 05 09 12 13 16 20
    312096.86108    243193.85208  21713592.10808  21713593.63508
 -16028170.12109 -12489481.79708  20715878.32409  20715879.99608
 -11463270.90908  -8932420.12508  21975851.22308  21975853.87008
 -16938780.43808 -13199050.19708  21086770.82808  21086774.30408
   4658692.46608   3630151.78808  22512519.69908  22512522.95608
   -659628.72706   -513995.59306  24294110.87406  24294118.07106
  -1724241.29308  -1343565.03708  23170821.10608  23170823.69408
 94 01 25 06 40 00.0000000  0  7 04 05 09 12 13 16 20
    384106.00708    299304.86508  21727294.94608  21727296.57908
 -16076292.86509 -12526980.03908  20706721.04509  20706722.50508
 -11392914.20808  -8877596.75108  21989239.74808  21989242.35108
 -16899706.63808 -13168603.09508  21094206.24208  21094209.81108
   4726181.88708   3682740.95208  22525362.31708  22525365.72208
   -754024.51406   -587550.71106  24276148.00006  24276157.28706
  -1819128.81108  -1417503.36708  23152764.20008  23152766.93708
 94 01 25 06 40 30.0000000  0  6 04 05 09 12 13 20
    456479.56808    355699.84808  21741067.09108  21741069.00008
 -16124058.77409 -12564200.22408  20697631.48409  20697632.98808
 -11322195.28808  -8822491.12408  22002697.14008  22002699.73908
 -16860048.05708 -13137700.32108  21101753.04408  21101756.59508
   4793715.01408   3735364.18008  22538213.34008  22538216.72908
  -1913899.85508  -1491350.93408  23134729.53808  23134732.53508
 94 01 25 06 41 00.0000000  0  6 04 05 09 12 13 20
    529162.98608    412336.28408  21754898.11008  21754900.31008
 -16171485.46609 -12601156.07608  20688606.36509  20688608.01608
 -11251137.17508  -8767121.18208  22016219.32608  22016221.66508
 -16819837.30808 -13106367.28708  21109405.00108  21109408.39708
   4861259.16708   3787995.99208  22551066.70708  22551069.93908
  -2008583.58208  -1565130.46208  23116712.00508  23116714.69508
 94 01 25 06 41 30.0000000  0  6 04 05 09 12 13 20
    602169.94608    469224.83508  21768790.96108  21768793.05408
 -16218530.38109 -12637814.44408  20679653.98309  20679655.64408
 -11179703.56008  -8711458.63308  22029812.77608  22029814.95708
 -16779051.73108 -13074586.32608  21117166.33408  21117169.65908
   4928836.97208   3840654.01908  22563926.83008  22563929.37808
  -2103154.04508  -1638821.73008  23098716.09308  23098718.56608
 94 01 25 06 42 00.0000000  0  6 04 05 09 12 13 20
    675483.66608    526352.41908  21782742.25408  21782744.25008
 -16265215.99109 -12674192.84408  20670770.01609  20670771.67808
 -11107911.49408  -8655516.76808  22043474.37508  22043476.38108
 -16737697.45208 -13042362.22308  21125035.77708  21125039.20108
   4996442.33608   3893333.51808  22576791.89208  22576793.95108
  -2197614.28008  -1712427.09708  23080741.31408  23080743.39008
 94 01 25 06 42 30.0000000  0  6 04 05 09 12 13 20
    749083.90808    583703.25808  21796747.91008  21796749.78408
 -16311527.81809 -12710279.99009  20661957.12009  20661958.84909
 -11035752.95408  -8599289.34308  22057205.80008  22057207.72508
 -16695775.76608 -13009695.99108  21133013.27308  21133016.69608
   5064073.93208   3946033.44208  22589661.98608  22589663.58808
  -2291962.01308  -1785944.79608  23062787.81908  23062789.70808
 94 01 25 06 43 00.0000000  0  6 04 05 09 12 13 20
    822995.06608    641296.36808  21810812.67208  21810814.47708
 -16357442.96109 -12746058.02909  20653219.73209  20653221.62209
 -10963197.45308  -8542752.59208  22071012.80808  22071014.73908
 -16653266.13508 -12976571.61708  21141102.58208  21141106.01008
   5131752.41308   3998769.90208  22602540.83608  22602542.37708
  -2386173.42408  -1859356.26708  23044860.32808  23044861.98308
 94 01 25 06 43 30.0000000  0  6 04 05 09 12 13 20
    897211.32308    699127.21808  21824935.55408  21824937.31008
 -16402990.93708 -12781549.96109  20644552.08508  20644554.11109
 -10890272.73208  -8485928.13408  22084889.65708  22084891.85108
 -16610193.73308 -12943008.72008  21149299.06008  21149302.38908
   5199452.86008   4051523.47808  22615423.79508  22615425.51208
  -2480270.08708  -1932678.31808  23026954.38908  23026955.94408
